Date StartTime U_cm/s V_cm/s W_cm/s Ustd_cm/s Vstd_cm/s Wstd_cm/s Uvar_(cm/s)^2 Vvar_(cm/s)^2 Wvar_(cm/s)^2 KE_(m/s)^2 TurbulentKE_(m/s)^2 HorizWindSpeed_cm/s FrictionSpeec_cm/s DragCoef SpeedOfSound_m/s SonicTemperature_C Pressure_mb 
05/26/2014  00:00:00       26.903       26.471       38.593       33.745       52.958       23.568     1138.699     2804.507      555.432        0.371        0.225       37.742       22.028        0.341      344.108       20.694      861.290
05/26/2014  00:01:00     -216.446      -93.380      -26.364      141.037       92.654       52.518    19891.429     8584.687     2758.179        4.374        1.562      235.730       64.072        0.074      344.685       21.677      861.289
05/26/2014  00:02:00      -79.120        4.682       16.410      105.643       62.095       40.946    11160.379     3855.834     1676.545        1.162        0.835       79.258       29.723        0.141      344.617       21.562      861.272
05/26/2014  00:03:00     -136.458        9.764       -6.200      121.558      101.638       48.611    14776.426    10330.196     2363.060        2.311        1.373      136.807       40.020        0.086      344.764       21.812      861.270
05/26/2014  00:04:00     -181.663      -81.374        0.737       95.441       72.274       52.357     9109.016     5223.512     2741.270        2.835        0.854      199.056       51.669        0.067      344.864       21.983      861.259
05/26/2014  00:05:00     -141.735     -116.865        5.286      137.307      143.294       55.342    18853.113    20533.141     3062.778        3.810        2.122      183.702       70.481        0.147      344.726       21.748      861.278
05/26/2014  00:06:00     -276.917     -215.866       -7.964      194.248      129.870       74.330    37732.278    16866.115     5524.878        9.172        3.006      351.114       81.442        0.054      345.030       22.266      861.266
05/26/2014  00:07:00     -176.220      -96.580        3.231      112.817      117.902       54.661    12727.788    13900.860     2987.849        3.500        1.481      200.951       47.332        0.055      344.937       22.108      861.262
05/26/2014  00:08:00      -81.614      -87.065       18.371       98.831      138.430       42.428     9767.646    19162.834     1800.117        2.265        1.537      119.336       53.918        0.204      344.738       21.768      861.297
05/26/2014  00:09:00     -100.141     -135.224        7.436       89.080      105.150       45.276     7935.304    11056.605     2049.949        2.470        1.052      168.267       45.093        0.072      344.945       22.121      861.305
05/26/2014  00:10:00      -17.226       38.210       10.068       81.221       47.791       31.247     6596.911     2283.952      976.357        0.586        0.493       41.913       22.693        0.293      344.554       21.455      861.320
05/26/2014  00:11:00     -152.381      -81.058      -13.992      134.312       52.727       41.560    18039.685     2780.107     1727.274        2.626        1.127      172.599       47.784        0.077      344.820       21.907      861.335
05/26/2014  00:12:00     -133.487      -24.412       -0.409      129.052       81.813       42.701    16654.524     6693.304     1823.411        2.179        1.259      135.701       42.383        0.098      344.773       21.830      861.369
05/26/2014  00:13:00      -37.867       -7.006       11.532       58.091       65.743       41.118     3374.588     4322.125     1690.720        0.550        0.469       38.510       18.773        0.238      344.438       21.257      861.372
05/26/2014  00:14:00       95.198       -6.834       15.471      104.918       52.737       46.093    11007.877     2781.231     2124.552        1.263        0.796       95.443       32.152        0.113      344.150       20.764      861.380
05/26/2014  00:15:00       16.487      -98.582       14.180       69.373      102.387       44.424     4812.628    10483.187     1973.466        1.373        0.863       99.951       43.273        0.187      344.446       21.270      861.368
05/26/2014  00:16:00       31.110      -51.084       22.074       40.998       93.978       38.457     1680.801     8831.812     1478.974        0.803        0.600       59.811       11.034        0.034      344.432       21.247      861.377
05/26/2014  00:17:00     -130.470      -51.514        2.824       79.759       74.461       40.943     6361.572     5544.444     1676.337        1.663        0.679      140.271       43.551        0.096      344.823       21.915      861.366
05/26/2014  00:18:00      -49.075      -64.319        7.074       60.013       51.310       33.989     3601.550     2632.696     1155.260        0.699        0.369       80.903       40.227        0.247      344.687       21.682      861.378
05/26/2014  00:19:00      -30.252      -31.190        7.054       39.099       63.651       28.874     1528.727     4051.510      833.687        0.417        0.321       43.451       36.822        0.718      344.709       21.720      861.388
05/26/2014  00:20:00      -51.401       41.228       -8.071       33.143       19.280       25.054     1098.451      371.724      627.704        0.325        0.105       65.893       11.426        0.030      344.297       21.017      861.404
05/26/2014  00:21:00       -2.238       48.663        0.504       42.838       32.117       24.401     1835.061     1031.501      595.425        0.292        0.173       48.715       15.380        0.100      344.464       21.301      861.416
05/26/2014  00:22:00       85.898       38.708       15.258       39.535       39.183       28.705     1563.051     1535.328      823.987        0.652        0.196       94.216       23.718        0.063      343.554       19.749      861.426
05/26/2014  00:23:00       71.891       35.661       25.441       42.759       30.228       26.791     1828.347      913.724      717.747        0.527        0.173       80.250       24.597        0.094      343.723       20.036      861.421
05/26/2014  00:24:00       20.515       16.119       33.331       22.650       21.544       16.875      513.022      464.164      284.757        0.153        0.063       26.090       12.137        0.216      343.554       19.746      861.423
05/26/2014  00:25:00      100.447       57.297        2.094       34.912       31.287       27.603     1218.874      978.849      761.934        0.817        0.148      115.640       20.159        0.030      343.629       19.877      861.428
05/26/2014  00:26:00       66.333       48.966        6.272       34.664       36.065       26.241     1201.600     1300.684      688.597        0.501        0.160       82.448       19.822        0.058      343.847       20.245      861.429
05/26/2014  00:27:00       34.403       39.646       -4.760       34.244       40.753       24.418     1172.660     1660.780      596.218        0.310        0.171       52.492       21.082        0.161      343.835       20.227      861.443
05/26/2014  00:28:00       50.172      129.646      -12.139       60.909       53.470       30.871     3709.894     2859.008      952.992        1.350        0.376      139.016       37.712        0.074      343.981       20.476      861.466
05/26/2014  00:29:00       18.882       93.639      -15.471       41.971       51.418       25.286     1761.527     2643.778      639.357        0.720        0.252       95.524       26.194        0.075      343.997       20.505      861.469
05/26/2014  00:30:00       36.924      134.372      -15.276       31.545       43.545       26.736      995.102     1896.183      714.837        1.163        0.180      139.353       22.476        0.026      344.058       20.608      861.483
05/26/2014  00:31:00        2.663      140.016      -17.450       21.373       24.512       13.398      456.787      600.829      179.501        1.058        0.062      140.042       11.665        0.007      344.125       20.722      861.498
05/26/2014  00:32:00       36.382       79.500       -8.386       26.066       50.409       23.946      679.432     2541.047      573.426        0.575        0.190       87.430       27.781        0.101      344.071       20.630      861.513
05/26/2014  00:33:00       29.616       92.301        3.300       41.313       31.358       22.753     1706.740      983.317      517.695        0.631        0.160       96.936       22.903        0.056      344.089       20.661      861.534
05/26/2014  00:34:00       99.819       67.458       17.647       36.117       33.781       25.127     1304.472     1141.123      631.357        0.895        0.154      120.476       14.694        0.015      343.960       20.439      861.535
05/26/2014  00:35:00       42.367       75.808       -1.612       31.783       26.053       20.978     1010.177      678.738      440.058        0.484        0.106       86.844       17.890        0.042      343.910       20.355      861.562
05/26/2014  00:36:00       75.547       58.569       16.696       32.565       24.528       22.710     1060.459      601.610      515.730        0.580        0.109       95.591       15.892        0.028      343.779       20.131      861.566
05/26/2014  00:37:00       96.690       37.360       12.776       33.945       27.288       22.747     1152.246      744.642      517.446        0.666        0.121      103.657       14.894        0.021      343.636       19.888      861.578
05/26/2014  00:38:00      123.136       93.978       25.733       28.163       36.621       28.765      793.153     1341.114      827.434        1.381        0.148      154.901       19.513        0.016      343.572       19.779      861.596
05/26/2014  00:39:00       70.336       39.103       22.444       32.591       47.925       41.516     1062.148     2296.798     1723.582        0.603        0.254       80.474       34.657        0.185      343.358       19.413      861.631
05/26/2014  00:40:00       -4.112      -47.678       -8.297       24.351       28.762       24.096      592.961      827.277      580.624        0.218        0.100       47.855       11.841        0.061      343.012       18.823      861.662
05/26/2014  00:41:00      -10.660       -3.545        9.749       14.769       17.316       13.223      218.132      299.836      174.840        0.046        0.035       11.234        9.755        0.754      343.127       19.020      861.682
05/26/2014  00:42:00       23.720       -1.417      -19.627       21.939       25.849       21.039      481.341      668.158      442.629        0.127        0.080       23.763        9.810        0.170      343.194       19.134      861.687
05/26/2014  00:43:00       32.100       19.926       -7.217       28.657       20.713       19.578      821.217      429.032      383.311        0.156        0.082       37.782       15.651        0.172      343.209       19.160      861.689
05/26/2014  00:44:00       26.355        9.729       14.092       15.098       19.318       19.394      227.935      373.187      376.138        0.098        0.049       28.093       13.984        0.248      343.611       19.845      861.679
05/26/2014  00:45:00       40.937      -20.900        0.116       35.612       28.626       28.138     1268.226      819.456      791.719        0.250        0.144       45.963       22.065        0.230      343.322       19.353      861.671
05/26/2014  00:46:00       35.359      -16.743       13.833       40.246       39.815       32.545     1619.772     1585.213     1059.175        0.299        0.213       39.123       23.742        0.368      342.790       18.447      861.654
05/26/2014  00:47:00       55.779      -20.011       19.887       39.961       47.656       25.796     1596.889     2271.095      665.411        0.422        0.227       59.260       25.204        0.181      342.923       18.672      861.646
05/26/2014  00:48:00       39.492      -86.584       13.236       47.945       45.080       23.470     2298.693     2032.223      550.843        0.706        0.244       95.165       22.702        0.057      343.786       20.144      861.635
05/26/2014  00:49:00       -9.216      -19.181       10.805       30.015       21.764       20.458      900.892      473.675      418.530        0.118        0.090       21.280       17.651        0.688      343.614       19.851      861.633
05/26/2014  00:50:00      -34.363      -11.605       -4.645       21.975       21.959       10.600      482.888      482.192      112.370        0.121        0.054       36.270        8.789        0.059      343.535       19.715      861.640
05/26/2014  00:51:00      -13.385       11.495       13.226       18.940       17.149       10.238      358.720      294.082      104.823        0.062        0.038       17.643        8.761        0.247      343.187       19.123      861.642
05/26/2014  00:52:00     -107.485        7.820      -12.129       25.573       17.644       14.783      653.971      311.325      218.546        0.647        0.059      107.769       14.305        0.018      343.431       19.537      861.642
05/26/2014  00:53:00     -119.880      -35.372      -11.679       31.652       41.261       17.373     1001.875     1702.493      301.822        0.938        0.150      124.989       18.878        0.023      343.429       19.535      861.656
05/26/2014  00:54:00      -97.607      -31.593       -1.426       32.223       36.493       18.736     1038.336     1331.736      351.050        0.662        0.136      102.593       16.973        0.027      343.394       19.473      861.654
05/26/2014  00:55:00      -74.391      -27.635       -6.882       28.126       25.092       16.665      791.050      629.605      277.720        0.402        0.085       79.358       15.661        0.039      343.401       19.486      861.649
05/26/2014  00:56:00      -62.662      -25.368       -1.754       28.629       30.280       15.720      819.611      916.883      247.128        0.328        0.099       67.602       11.583        0.029      343.296       19.308      861.637
05/26/2014  00:57:00      -28.302        3.671       14.909       45.993       36.897       18.911     2115.319     1361.359      357.612        0.243        0.192       28.539       16.104        0.318      343.180       19.111      861.609
05/26/2014  00:58:00     -152.310       34.097      -14.361       43.511       35.721       16.303     1893.250     1275.968      265.796        1.400        0.172      156.080        9.360        0.004      343.768       20.113      861.606
05/26/2014  00:59:00      -62.437      -27.779        5.239       26.910       25.974       16.738      724.160      674.655      280.165        0.319        0.084       68.338       12.393        0.033      343.546       19.735      861.588
05/26/2014  01:00:00      -81.904       -8.023      -11.523       32.690       29.591       15.850     1068.667      875.653      251.228        0.455        0.110       82.296       17.315        0.044      344.226       20.893      861.580
05/26/2014  01:01:00      -67.503      -68.774        2.430       55.340       54.817       27.429     3062.493     3004.923      752.349        0.805        0.341       96.366       18.122        0.035      343.923       20.377      861.580
05/26/2014  01:02:00      -83.534      -69.138       15.103       90.018       58.489       42.064     8103.164     3420.971     1769.406        1.264        0.665      108.434       39.100        0.130      343.867       20.280      861.585
05/26/2014  01:03:00     -153.238      -92.728        1.300       74.535       49.485       32.967     5555.481     2448.721     1086.818        2.058        0.455      179.110       37.212        0.043      343.972       20.458      861.572
05/26/2014  01:04:00     -114.176      -46.546       -1.692       53.180       54.988       23.751     2828.156     3023.686      564.129        1.081        0.321      123.299       27.379        0.049      343.899       20.336      861.568
05/26/2014  01:05:00      -86.594      -23.438        4.920       38.297       28.021       17.893     1466.645      785.185      320.172        0.532        0.129       89.710       19.870        0.049      343.851       20.254      861.578
05/26/2014  01:06:00     -101.738      -42.324       -2.097       30.825       28.419       16.399      950.188      807.657      268.938        0.709        0.101      110.190       14.841        0.018      343.715       20.024      861.590
05/26/2014  01:07:00      -51.629      -17.168        0.659       52.011       32.492       12.326     2705.128     1055.734      151.941        0.344        0.196       54.409       20.339        0.140      343.505       19.663      861.595
05/26/2014  01:08:00      -26.340      -15.503        5.353       24.015       26.319       13.054      576.701      692.689      170.419        0.120        0.072       30.563       14.372        0.221      343.351       19.400      861.605
05/26/2014  01:09:00      -87.317        4.467       -1.535       53.822       21.805       13.685     2896.771      475.464      187.288        0.560        0.178       87.431       20.992        0.058      343.446       19.564      861.606
05/26/2014  01:10:00      -39.289      -11.296        7.726       33.836       23.428       21.211     1144.855      548.894      449.911        0.194        0.107       40.881       22.785        0.311      343.255       19.238      861.589
05/26/2014  01:11:00      -18.030       12.630       23.855       45.302       26.483       21.948     2052.290      701.330      481.733        0.214        0.162       22.014       21.959        0.995      343.090       18.957      861.579
05/26/2014  01:12:00       38.035      -32.093        3.287       29.749       27.120       29.890      885.007      735.505      893.399        0.250        0.126       49.766       22.200        0.199      342.793       18.450      861.569
05/26/2014  01:13:00       20.513        8.273       17.908       21.032       12.908       19.370      442.363      166.624      375.186        0.090        0.049       22.119        8.569        0.150      342.738       18.358      861.572
05/26/2014  01:14:00      -38.279       50.141       -1.304       23.973       13.577        6.931      574.726      184.337       48.043        0.239        0.040       63.082        9.560        0.023      343.490       19.639      861.560
05/26/2014  01:15:00      -52.992       34.867       -4.193        7.452       12.534        5.362       55.532      157.112       28.747        0.214        0.012       63.434        5.381        0.007      343.645       19.904      861.563
05/26/2014  01:16:00      -29.520       12.905        8.221       12.855       10.679        5.385      165.245      114.040       28.995        0.071        0.015       32.217        3.630        0.013      343.263       19.249      861.573
05/26/2014  01:17:00       -0.239       17.389       -1.053        9.210       10.646        7.077       84.822      113.344       50.079        0.028        0.012       17.390        2.473        0.020      343.339       19.381      861.560
05/26/2014  01:18:00      -29.398        0.214       -0.510       12.309       18.661        4.361      151.500      348.248       19.015        0.069        0.026       29.399        4.878        0.028      343.467       19.597      861.560
05/26/2014  01:19:00      -29.074       -7.953        6.633       27.979       24.805       15.118      782.841      615.268      228.554        0.129        0.081       30.142       12.735        0.179      342.906       18.644      861.582
05/26/2014  01:20:00     -126.720      -12.460       -7.221       32.695       35.794       18.927     1068.964     1281.220      358.226        0.949        0.135      127.331       16.055        0.016      343.011       18.822      861.597
05/26/2014  01:21:00     -103.572       11.235       -5.146       36.443       50.334       22.849     1328.116     2533.500      522.061        0.763        0.219      104.180       18.778        0.032      343.006       18.815      861.599
05/26/2014  01:22:00      -85.991       70.029      -12.120       23.528       32.403       16.841      553.558     1049.954      283.608        0.717        0.094      110.899       13.714        0.015      343.155       19.068      861.584
05/26/2014  01:23:00      -94.736       56.990      -13.632       24.970       33.439       19.020      623.490     1118.172      361.770        0.726        0.105      110.557       11.037        0.010      343.225       19.186      861.592
05/26/2014  01:24:00      -77.849       22.760      -10.037       26.163       32.689       11.674      684.507     1068.539      136.288        0.428        0.094       81.108       13.431        0.027      343.284       19.288      861.589
05/26/2014  01:25:00      -75.583       51.458       -2.519       52.675       33.581       24.054     2774.691     1127.653      578.589        0.642        0.224       91.437       29.504        0.104      343.075       18.931      861.569
05/26/2014  01:26:00     -113.696       85.493      -18.003       41.838       43.242       28.900     1750.441     1869.884      835.192        1.251        0.223      142.253       24.268        0.029      342.943       18.707      861.589
05/26/2014  01:27:00     -121.417      112.399      -22.968       46.117       45.986       31.792     2126.734     2114.712     1010.755        1.658        0.263      165.455       31.503        0.036      342.819       18.493      861.589
05/26/2014  01:28:00     -105.958       66.548      -20.612       33.214       50.050       26.835     1103.181     2504.964      720.114        1.020        0.216      125.123       31.155        0.062      342.821       18.499      861.610
05/26/2014  01:29:00      -51.247       25.826        4.229       57.154       26.501       23.781     3266.596      702.300      565.555        0.392        0.227       57.387       24.830        0.187      342.698       18.290      861.648
05/26/2014  01:30:00       78.070       76.999       40.979       49.264       51.555       49.238     2426.903     2657.882     2424.418        1.060        0.375      109.653       40.717        0.138      342.538       18.018      861.623
05/26/2014  01:31:00      -10.922       58.734      110.645       42.579       69.310       45.256     1812.945     4803.867     2048.094        1.224        0.433       59.741       44.554        0.556      342.207       17.455      861.637
05/26/2014  01:32:00       24.158      -54.157        9.663       28.264       55.212       35.083      798.864     3048.396     1230.795        0.434        0.254       59.300       33.660        0.322      341.887       16.912      861.699
05/26/2014  01:33:00       62.892      -52.912        4.326       37.921       32.684       34.485     1438.008     1068.258     1189.185        0.523        0.185       82.189       20.993        0.065      341.988       17.082      861.715
05/26/2014  01:34:00       18.213      -22.528       25.204       28.850       42.670       37.811      832.332     1820.740     1429.687        0.278        0.204       28.969       24.337        0.706      341.963       17.041      861.699
05/26/2014  01:35:00        8.708      -26.914       22.880       50.296       42.659       30.726     2529.710     1819.784      944.069        0.331        0.265       28.287       24.967        0.779      342.161       17.377      861.689
05/26/2014  01:36:00       27.836       28.546       45.628       39.107       44.390       32.128     1529.368     1970.497     1032.203        0.410        0.227       39.871       29.663        0.553      342.389       17.765      861.678
05/26/2014  01:37:00       63.995       78.056       74.038       38.190       36.105       32.746     1458.448     1303.547     1072.307        0.975        0.192      100.936       12.094        0.014      342.606       18.134      861.664
05/26/2014  01:38:00       51.034       62.284       66.584       34.243       35.417       22.201     1172.554     1254.337      492.865        0.692        0.146       80.522       11.442        0.020      342.600       18.122      861.670
05/26/2014  01:39:00       82.350       58.860       44.463       31.454       28.303       38.427      989.339      801.054     1476.636        0.774        0.163      101.223       15.082        0.022      342.762       18.398      861.676
05/26/2014  01:40:00       49.131       43.328       34.331       30.001       29.147       23.552      900.062      849.570      554.698        0.389        0.115       65.507       15.579        0.057      342.688       18.273      861.672
05/26/2014  01:41:00       38.143       -0.477       19.712       34.432       35.737       25.806     1185.581     1277.161      665.970        0.249        0.156       38.146       12.623        0.109      342.277       17.572      861.673
05/26/2014  01:42:00       23.023        4.241       38.122       35.334       40.131       35.190     1248.489     1610.486     1238.360        0.305        0.205       23.410       16.413        0.492      342.247       17.523      861.662
05/26/2014  01:43:00       16.320        1.273       32.911       36.926       44.510       27.730     1363.507     1981.171      768.942        0.273        0.206       16.370       20.748        1.606      342.159       17.373      861.670
05/26/2014  01:44:00       31.667      -63.923       19.735       44.459       51.330       33.577     1976.626     2634.763     1127.428        0.561        0.287       71.337       22.151        0.096      341.889       16.915      861.670
05/26/2014  01:45:00       -1.649       19.229       43.573       22.369       35.234       19.198      500.386     1241.422      368.557        0.219        0.106       19.300       12.211        0.400      342.004       17.110      861.673
05/26/2014  01:46:00      -13.724      -20.822       21.062       18.745       34.549       24.055      351.378     1193.653      578.623        0.159        0.106       24.938       23.200        0.865      342.084       17.246      861.697
05/26/2014  01:47:00       -3.193      -15.568       -4.602       25.356       29.960       18.470      642.943      897.621      341.159        0.108        0.094       15.892       14.894        0.878      341.951       17.021      861.718
05/26/2014  01:48:00        6.358      -42.600       -5.961       12.829       33.778       24.509      164.589     1140.948      600.670        0.190        0.095       43.071        8.531        0.039      341.962       17.038      861.739
05/26/2014  01:49:00       42.959      -40.884       15.091       28.533       31.878       26.359      814.140     1016.222      694.774        0.313        0.126       59.304       18.770        0.100      341.825       16.807      861.755
05/26/2014  01:50:00       48.273      -55.147       -2.342       31.709       30.722       25.787     1005.477      943.870      664.995        0.400        0.131       73.291       20.240        0.076      342.149       17.357      861.764
05/26/2014  01:51:00       52.125      -19.391       17.277       30.106       41.868       28.389      906.382     1752.911      805.927        0.343        0.173       55.615       26.555        0.228      341.755       16.687      861.778
05/26/2014  01:52:00       50.761      -24.507       10.791       40.145       31.544       28.084     1611.594      995.023      788.727        0.334        0.170       56.368       24.773        0.193      342.006       17.115      861.784
05/26/2014  01:53:00       20.294       -9.427       34.192       40.215       46.586       28.694     1617.275     2170.216      823.342        0.314        0.231       22.377       21.323        0.908      342.095       17.265      861.785
05/26/2014  01:54:00       41.737        1.806       33.792       52.930       37.156       33.992     2801.555     1380.576     1155.451        0.411        0.267       41.776       31.915        0.584      342.008       17.117      861.784
05/26/2014  01:55:00       42.390       19.443       49.370       57.868       50.460       40.584     3348.718     2546.197     1647.097        0.608        0.377       46.636       36.011        0.596      341.974       17.059      861.778
05/26/2014  01:56:00       26.741       12.071       46.877       43.056       61.638       36.041     1853.781     3799.236     1298.948        0.500        0.348       29.339       35.021        1.425      342.031       17.156      861.764
05/26/2014  01:57:00       79.871       93.410       68.852       64.024       39.230       36.397     4099.118     1539.021     1324.745        1.340        0.348      122.902       31.547        0.066      342.335       17.673      861.772
05/26/2014  01:58:00      152.771       70.567       28.114       48.962       34.812       35.829     2397.310     1211.860     1283.696        1.700        0.245      168.282       22.217        0.017      342.569       18.071      861.766
05/26/2014  01:59:00       99.453       59.182       26.328       42.213       35.833       28.904     1781.947     1284.018      835.464        0.899        0.195      115.730       14.713        0.016      342.446       17.861      861.763
05/26/2014  02:00:00       90.056       62.270       19.429       38.205       29.975       25.571     1459.609      898.473      653.892        0.769        0.151      109.488       11.127        0.010      342.537       18.016      861.753
05/26/2014  02:01:00       93.096       57.828       25.715       37.689       25.969       30.734     1420.460      674.373      944.559        0.786        0.152      109.595       13.133        0.014      342.353       17.703      861.764
05/26/2014  02:02:00       81.301       45.541       16.333       24.236       25.283       25.077      587.379      639.225      628.842        0.540        0.093       93.188       16.845        0.033      342.298       17.609      861.763
05/26/2014  02:03:00       68.256       58.584       18.596       22.122       18.917       27.127      489.365      357.836      735.886        0.501        0.079       89.950       15.047        0.028      342.257       17.542      861.758
05/26/2014  02:04:00       39.835       45.491       14.800       27.466       16.867       14.424      754.394      284.506      208.042        0.256        0.062       60.467       12.802        0.045      342.343       17.687      861.763
05/26/2014  02:05:00       18.188       54.728       -5.973       15.749       25.443       15.263      248.035      647.348      232.947        0.224        0.056       57.672       15.864        0.076      342.243       17.516      861.772
05/26/2014  02:06:00       20.078        4.758       17.683       19.252       21.965       17.822      370.623      482.440      317.625        0.095        0.059       20.634       12.151        0.347      341.924       16.975      861.781
05/26/2014  02:07:00        3.194       12.586       14.017       19.014       16.572       18.469      361.548      274.627      341.109        0.067        0.049       12.985        8.255        0.404      341.497       16.250      861.779
05/26/2014  02:08:00       27.782       -1.192        4.580       23.938       20.120       19.161      573.023      404.832      367.156        0.107        0.067       27.808        8.235        0.088      341.853       16.854      861.752
05/26/2014  02:09:00       33.544       37.454       14.418       37.572       20.628       18.879     1411.683      425.506      356.404        0.246        0.110       50.279       18.797        0.140      342.238       17.507      861.748
05/26/2014  02:10:00     -113.283       19.642      -15.620       56.676       33.164       16.844     3212.161     1099.838      283.731        0.903        0.230      114.973       18.370        0.026      342.038       17.168      861.769
05/26/2014  02:11:00     -195.508       24.356      -24.036       67.094       55.394       35.710     4501.573     3068.474     1275.202        2.412        0.442      197.019       28.168        0.020      341.742       16.664      861.765
05/26/2014  02:12:00     -227.513       51.639      -15.870       39.148       35.248       26.077     1532.531     1242.433      680.012        2.907        0.173      233.300       21.236        0.008      341.839       16.827      861.768
05/26/2014  02:13:00     -149.919       48.550      -18.237       34.026       23.843       18.648     1157.766      568.478      347.745        1.362        0.104      157.584       11.030        0.005      341.967       17.049      861.772
05/26/2014  02:14:00      -49.982       56.646      -10.018       30.549       29.582       12.428      933.226      875.076      154.443        0.388        0.098       75.545        8.843        0.014      342.254       17.535      861.747
05/26/2014  02:15:00       28.016       49.771       10.126       26.577       31.941       17.690      706.320     1020.232      312.919        0.270        0.102       57.114       14.438        0.064      342.265       17.555      861.719
05/26/2014  02:16:00       44.563       66.487       -5.858       23.056       32.395       17.487      531.557     1049.448      305.803        0.416        0.094       80.040       18.228        0.052      342.251       17.531      861.702
05/26/2014  02:17:00       41.745       38.010        2.580       24.022       22.100       14.239      577.055      488.431      202.737        0.223        0.063       56.457       11.986        0.045      342.033       17.159      861.693
05/26/2014  02:18:00       13.818       48.002       -0.445       28.918       19.872       14.651      836.231      394.886      214.651        0.197        0.072       49.951       10.421        0.044      342.413       17.805      861.685
05/26/2014  02:19:00      -42.314       19.184       -8.586       28.153       35.759       13.679      792.574     1278.710      187.121        0.224        0.113       46.459       15.875        0.117      342.229       17.493      861.689
05/26/2014  02:20:00      -85.863       -9.790       -7.271       29.253       22.695       17.661      855.766      515.074      311.926        0.460        0.084       86.419       13.052        0.023      341.883       16.906      861.714
05/26/2014  02:21:00     -113.034      -19.859        0.595       31.893       40.741       20.380     1017.167     1659.792      415.354        0.813        0.155      114.765       16.680        0.021      341.706       16.606      861.723
05/26/2014  02:22:00      -83.388        4.482       -7.119       29.997       22.763       17.118      899.810      518.168      293.042        0.437        0.086       83.508       11.291        0.018      341.987       17.081      861.727
05/26/2014  02:23:00      -12.170       30.923       -3.053       18.504       23.158       15.157      342.401      536.296      229.737        0.111        0.055       33.232        7.046        0.045      341.836       16.825      861.730
05/26/2014  02:24:00      -32.209      -31.523       -7.182       35.340       24.258       13.304     1248.925      588.451      176.996        0.205        0.101       45.068       14.109        0.098      341.957       17.030      861.730
05/26/2014  02:25:00     -125.892      -70.829        1.429       32.995       31.893       20.453     1088.650     1017.140      418.339        1.170        0.126      144.449       14.172        0.010      341.811       16.782      861.735
05/26/2014  02:26:00     -183.573      -77.100       -4.601       33.855       47.453       26.803     1146.169     2251.818      718.396        2.189        0.206      199.107       20.888        0.011      341.756       16.688      861.728
05/26/2014  02:27:00     -171.848      -72.962        1.840       43.452       36.265       25.805     1888.057     1315.146      665.877        1.936        0.193      186.696       22.923        0.015      341.749       16.677      861.739
05/26/2014  02:28:00      -73.025      -75.012        2.852       54.215       48.041       28.783     2939.284     2307.936      828.478        0.852        0.304      104.687       29.430        0.079      341.737       16.658      861.743
05/26/2014  02:29:00      -62.167      -70.934       -0.614       51.222       39.348       28.776     2623.691     1548.267      828.033        0.695        0.250       94.321       24.309        0.066      341.630       16.478      861.751
05/26/2014  02:30:00      -36.316      -11.364        6.112       29.518       28.237       20.636      871.307      797.344      425.830        0.179        0.105       38.053       13.977        0.135      341.525       16.298      861.745
05/26/2014  02:31:00      -84.764       13.178       -3.946       22.227       22.423       17.396      494.038      502.799      302.634        0.434        0.065       85.782       11.163        0.017      341.711       16.613      861.718
05/26/2014  02:32:00     -142.187       22.752      -13.041       27.013       17.204       13.181      729.684      295.982      173.742        1.105        0.060      143.996        7.981        0.003      341.706       16.605      861.697
05/26/2014  02:33:00     -113.804      -46.486       -9.265       26.720       35.214       17.261      713.983     1240.003      297.950        0.872        0.113      122.933        9.703        0.006      341.675       16.551      861.682
05/26/2014  02:34:00     -188.700       44.267      -18.590       54.923       44.915       29.530     3016.484     2017.317      872.044        2.191        0.295      193.823       13.207        0.005      341.579       16.387      861.685
05/26/2014  02:35:00     -156.227      -29.500      -10.827       34.675       59.301       24.629     1202.357     3516.636      606.590        1.536        0.266      158.988       19.943        0.016      341.390       16.069      861.690
05/26/2014  02:36:00     -147.765      -49.766       -4.772       43.514       45.249       25.944     1893.427     2047.446      673.100        1.447        0.231      155.920       23.250        0.022      341.274       15.873      861.703
05/26/2014  02:37:00     -165.215      -31.162       -9.093       51.441       39.233       25.297     2646.210     1539.248      639.956        1.659        0.241      168.128       26.568        0.025      341.245       15.825      861.713
05/26/2014  02:38:00     -161.802       16.735      -10.452       47.504       30.224       20.963     2256.673      913.516      439.439        1.509        0.180      162.665       22.617        0.019      341.209       15.764      861.721
05/26/2014  02:39:00     -107.181        6.932      -10.408       24.577       35.356       19.479      604.046     1250.014      379.441        0.694        0.112      107.405        7.091        0.004      341.183       15.719      861.722
05/26/2014  02:40:00     -161.088        6.715      -17.427       28.621       23.830       19.253      819.142      567.885      370.686        1.403        0.088      161.228       13.252        0.007      341.178       15.712      861.714
05/26/2014  02:41:00     -154.982       -8.642      -10.112       50.075       29.913       23.723     2507.553      894.760      562.757        1.408        0.198      155.223       22.908        0.022      341.141       15.647      861.709
05/26/2014  02:42:00     -130.138      -25.189      -11.298       36.133       24.383       19.093     1305.627      594.514      364.552        0.998        0.113      132.553       17.925        0.018      341.150       15.664      861.701
05/26/2014  02:43:00     -148.532      -41.532      -10.112       35.602       23.389       16.647     1267.488      547.068      277.114        1.299        0.105      154.229       14.914        0.009      341.175       15.705      861.681
05/26/2014  02:44:00     -110.621      -47.202       -8.385       43.210       31.577       20.500     1867.127      997.089      420.260        0.891        0.164      120.271       12.569        0.011      341.168       15.694      861.671
05/26/2014  02:45:00     -125.285      -43.172       -7.730       36.700       33.540       25.057     1346.857     1124.955      627.857        1.036        0.155      132.515       16.650        0.016      341.116       15.605      861.663
05/26/2014  02:46:00      -51.563       -7.265        6.426       42.795       43.042       24.627     1831.379     1852.577      606.476        0.352        0.215       52.072       22.314        0.184      341.082       15.547      861.643
05/26/2014  02:47:00      -46.432      -28.515        3.990       62.653       29.097       25.722     3925.361      846.623      661.597        0.421        0.272       54.489       33.064        0.368      341.187       15.725      861.636
05/26/2014  02:48:00       -5.162        0.230        0.441       31.040       22.581       25.626      963.492      509.921      656.686        0.108        0.107        5.167       21.293       16.984      341.162       15.684      861.649
05/26/2014  02:49:00     -120.506      -33.606       -4.806       47.202       30.489       23.238     2228.002      929.598      540.006        0.969        0.185      125.104       21.477        0.029      341.162       15.686      861.648
05/26/2014  02:50:00     -107.107      -32.053       -6.676       43.378       44.387       22.712     1881.676     1970.165      515.851        0.845        0.218      111.800       18.838        0.028      341.112       15.599      861.641
05/26/2014  02:51:00     -135.903      -22.918      -10.037       49.122       33.275       24.577     2412.963     1107.245      604.031        1.161        0.206      137.822       14.440        0.011      341.055       15.502      861.644
05/26/2014  02:52:00     -135.516      -36.682       -8.049       31.414       31.260       22.194      986.842      977.161      492.592        1.112        0.123      140.393       14.484        0.011      340.962       15.344      861.658
05/26/2014  02:53:00      -78.863      -14.222      -13.887       33.522       30.372       19.265     1123.718      922.475      371.125        0.452        0.121       80.135       17.145        0.046      340.997       15.404      861.650
05/26/2014  02:54:00      -25.717      -18.038       -1.761       39.965       26.387       24.605     1597.192      696.288      605.419        0.194        0.145       31.412       25.236        0.645      341.015       15.435      861.652
05/26/2014  02:55:00      -31.523        2.146        0.487       22.564       15.977       15.797      509.129      255.257      249.549        0.101        0.051       31.596       14.140        0.200      341.200       15.748      861.654
05/26/2014  02:56:00       63.943       -0.388       -5.313       20.105       30.652       16.224      404.191      939.541      263.217        0.286        0.080       63.944       14.138        0.049      340.891       15.225      861.673
05/26/2014  02:57:00       29.094       14.742        8.602       10.688       10.400       11.253      114.239      108.166      126.624        0.074        0.017       32.615        4.845        0.022      341.174       15.705      861.685
05/26/2014  02:58:00      -28.241       -1.581       -2.235       26.229       12.104        9.938      687.948      146.513       98.771        0.087        0.047       28.285       12.336        0.190      341.093       15.567      861.695
05/26/2014  02:59:00      -65.969      -25.230      -13.917       13.756       12.788        7.627      189.237      163.540       58.176        0.280        0.021       70.629        5.543        0.006      341.169       15.694      861.699
05/26/2014  03:00:00      -92.355      -42.066      -12.185       19.142       18.417       11.712      366.415      339.190      137.173        0.564        0.042      101.484        7.270        0.005      341.032       15.463      861.691
05/26/2014  03:01:00     -119.948      -31.883      -15.417       15.744       19.434       10.964      247.877      377.684      120.208        0.819        0.037      124.113        9.310        0.006      340.910       15.258      861.694
05/26/2014  03:02:00     -136.216      -18.515      -24.940       16.354       21.461       12.600      267.462      460.559      158.768        1.020        0.044      137.468        7.313        0.003      340.911       15.259      861.708
05/26/2014  03:03:00     -122.877      -45.437      -17.503       25.274       27.148       23.604      638.785      737.018      557.165        0.970        0.097      131.008       17.526        0.018      340.853       15.161      861.716
05/26/2014  03:04:00     -100.503      -53.707       -7.886       48.988       39.404       22.979     2399.858     1552.657      528.042        0.876        0.224      113.953       25.867        0.052      340.813       15.092      861.730
05/26/2014  03:05:00     -117.976      -37.177      -12.938       44.345       31.427       25.325     1966.495      987.639      641.351        0.953        0.180      123.695       22.263        0.032      340.781       15.038      861.755
05/26/2014  03:06:00      -58.170      -32.472       -8.208       32.144       24.430       18.550     1033.246      596.832      344.115        0.324        0.099       66.620       11.078        0.028      340.817       15.099      861.752
05/26/2014  03:07:00      -63.680       -1.263       -8.720       22.383       14.699       14.573      501.009      216.067      212.381        0.253        0.046       63.692       12.361        0.038      340.860       15.173      861.747
05/26/2014  03:08:00      -21.397       22.852       -2.457       12.854       13.763       14.325      165.235      189.429      205.200        0.077        0.028       31.306       11.406        0.133      341.471       16.208      861.750
05/26/2014  03:09:00        9.934       34.354        7.264       13.735       18.186       29.019      188.646      330.721      842.131        0.135        0.068       35.762       15.673        0.192      341.658       16.523      861.751
05/26/2014  03:10:00       15.435       27.944       11.458       16.987       26.502       15.405      288.542      702.364      237.315        0.119        0.061       31.923       13.328        0.174      341.659       16.524      861.747
05/26/2014  03:11:00        4.496        5.413       13.715       13.882       12.965       12.047      192.719      168.079      145.124        0.037        0.025        7.037        5.900        0.703      341.273       15.871      861.755
05/26/2014  03:12:00      -77.313      -55.353        0.092       32.925       33.151       18.372     1084.052     1099.000      337.549        0.578        0.126       95.085       16.733        0.031      341.005       15.418      861.764
05/26/2014  03:13:00      -94.962      -41.955       -5.296       15.389       16.405       12.140      236.809      269.126      147.378        0.573        0.033      103.817        9.058        0.008      340.873       15.193      861.768
05/26/2014  03:14:00      -84.146      -32.738       -8.105       18.934       16.908        9.291      358.504      285.883       86.328        0.447        0.037       90.291        4.678        0.003      340.958       15.338      861.768
05/26/2014  03:15:00     -102.682      -35.994      -17.198       10.410        9.314        7.923      108.359       86.760       62.774        0.620        0.013      108.808        4.381        0.002      340.893       15.226      861.776
05/26/2014  03:16:00     -124.669      -21.265      -17.540        9.487       11.382        8.128       90.010      129.552       66.072        0.829        0.014      126.470        4.680        0.001      340.936       15.299      861.774
05/26/2014  03:17:00     -110.799      -23.890      -17.252       12.139       12.118       10.050      147.361      146.836      100.994        0.677        0.020      113.346        5.993        0.003      341.035       15.470      861.772
05/26/2014  03:18:00     -126.927      -15.766      -21.634       12.916       13.263       10.402      166.828      175.896      108.207        0.864        0.023      127.902        3.832        0.001      340.987       15.387      861.778
05/26/2014  03:19:00     -131.491      -30.178      -18.718       32.321       24.026       13.385     1044.672      577.261      179.168        1.018        0.090      134.910        8.228        0.004      340.804       15.077      861.779
05/26/2014  03:20:00     -101.696       24.148       -6.606       62.127       42.077       32.860     3859.707     1770.480     1079.757        0.884        0.335      104.524       34.262        0.107      340.744       14.977      861.773
05/26/2014  03:21:00     -109.044       15.030       -5.907       52.870       49.447       25.390     2795.231     2445.047      644.666        0.902        0.294      110.075       23.126        0.044      340.854       15.162      861.769
05/26/2014  03:22:00      -54.109      -26.166       -7.096       27.867       34.042       21.761      776.560     1158.845      473.545        0.304        0.120       60.104       21.738        0.131      340.785       15.046      861.763
05/26/2014  03:23:00      -87.569      -29.276      -13.818       32.227       24.109       18.593     1038.556      581.256      345.703        0.534        0.098       92.333        9.548        0.011      340.681       14.870      861.743
05/26/2014  03:24:00      -82.344      -26.801      -22.649       19.364       30.470       16.151      374.974      928.401      260.843        0.479        0.078       86.596        8.580        0.010      340.704       14.908      861.741
05/26/2014  03:25:00      -84.671      -31.249      -18.125       22.893       25.490       17.315      524.102      649.755      299.795        0.497        0.074       90.254        5.482        0.004      340.683       14.873      861.736
05/26/2014  03:26:00      -92.201      -15.865      -12.198       17.697       21.083       15.865      313.172      444.510      251.683        0.496        0.050       93.556        9.172        0.010      340.758       15.000      861.730
05/26/2014  03:27:00      -80.106      -19.984       -7.486       22.407       17.800       17.318      502.091      316.839      299.928        0.400        0.056       82.561       10.380        0.016      340.662       14.838      861.726
05/26/2014  03:28:00      -77.936      -30.259       -5.483       17.621       15.190       12.510      310.494      230.724      156.510        0.386        0.035       83.604       10.468        0.016      340.696       14.897      861.743
05/26/2014  03:29:00      -60.879      -38.927        3.692       49.739       34.964       23.089     2473.933     1222.516      533.080        0.473        0.211       72.261       27.328        0.143      340.696       14.895      861.759
05/26/2014  03:30:00      -90.947      -49.697       -0.887       39.384       30.803       22.875     1551.094      948.835      523.272        0.688        0.151      103.640       19.195        0.034      340.834       15.127      861.776
05/26/2014  03:31:00     -104.715      -21.502       -9.313       32.431       23.255       15.748     1051.740      540.802      248.002        0.668        0.092      106.899       14.138        0.017      340.875       15.197      861.787
05/26/2014  03:32:00     -157.510      -54.605      -10.643       23.770       27.970       16.711      565.017      782.303      279.252        1.477        0.081      166.707        7.837        0.002      340.681       14.870      861.814
05/26/2014  03:33:00     -122.163      -83.284        3.421       48.058       41.588       28.506     2309.588     1729.536      812.612        1.336        0.243      147.851       22.940        0.024      340.587       14.710      861.812
05/26/2014  03:34:00     -137.385      -58.663        4.130       55.179       53.036       27.770     3044.703     2812.819      771.172        1.448        0.331      149.385       26.989        0.033      340.565       14.674      861.817
05/26/2014  03:35:00     -142.776      -22.870      -10.291       36.280       41.437       19.109     1316.212     1716.990      365.169        1.221        0.170      144.596       17.294        0.014      340.626       14.777      861.806
05/26/2014  03:36:00     -147.364      -18.020       -4.567       59.010       41.935       31.845     3482.190     1758.527     1014.077        1.416        0.313      148.462       34.476        0.054      340.567       14.676      861.781
05/26/2014  03:37:00     -176.405      -54.355      -12.914       47.607       40.870       25.055     2266.398     1670.353      627.777        1.940        0.228      184.589       22.718        0.015      340.400       14.393      861.763
05/26/2014  03:38:00     -149.260      -55.384       -7.366       41.522       30.749       19.064     1724.070      945.493      363.446        1.422        0.152      159.204       15.090        0.009      340.478       14.525      861.757
05/26/2014  03:39:00     -120.347      -58.077        1.427       36.206       37.713       20.997     1310.864     1422.243      440.858        1.052        0.159      133.628       16.041        0.014      340.459       14.494      861.752
05/26/2014  03:40:00     -119.165      -87.891       -0.946       62.567       44.331       30.016     3914.593     1965.216      900.941        1.435        0.339      148.071       32.210        0.047      340.525       14.604      861.747
05/26/2014  03:41:00     -141.548      -82.830       -4.329       35.236       35.970       21.495     1241.604     1293.826      462.027        1.496        0.150      164.002       16.302        0.010      340.605       14.741      861.756
05/26/2014  03:42:00     -153.519      -28.691      -19.667       14.053       21.703       16.320      197.476      471.007      266.350        1.286        0.047      156.177        7.928        0.003      340.574       14.689      861.737
05/26/2014  03:43:00     -130.389      -27.429      -11.401       33.514       23.019       16.939     1123.210      529.859      286.919        0.991        0.097      133.243       16.855        0.016      340.532       14.616      861.721
05/26/2014  03:44:00     -106.690      -20.643       -3.370       46.036       25.560       17.519     2119.295      653.333      306.925        0.745        0.154      108.668       18.841        0.030      340.516       14.590      861.716
05/26/2014  03:45:00     -115.594      -62.039       -7.635       41.531       28.127       21.774     1724.850      791.109      474.118        1.013        0.150      131.190       14.799        0.013      340.438       14.459      861.721
05/26/2014  03:46:00     -101.419      -77.700        1.325       46.195       44.062       28.281     2133.956     1941.420      799.835        1.060        0.244      127.762       28.216        0.049      340.334       14.283      861.714
05/26/2014  03:47:00     -155.306      -68.978       -9.586       37.725       30.101       28.167     1423.146      906.094      793.352        1.605        0.156      169.936       23.411        0.019      340.270       14.174      861.714
05/26/2014  03:48:00     -126.812      -51.477       -7.742       48.097       32.041       20.000     2313.318     1026.620      400.012        1.126        0.187      136.862       18.732        0.019      340.298       14.222      861.718
05/26/2014  03:49:00     -121.504      -26.784       -2.047       39.118       43.673       23.504     1530.184     1907.321      552.435        0.974        0.199      124.421       21.921        0.031      340.321       14.260      861.712
05/26/2014  03:50:00     -144.484      -14.351      -14.537       24.890       23.581       13.925      619.512      556.069      193.910        1.133        0.068      145.195       10.347        0.005      340.335       14.284      861.719
05/26/2014  03:51:00     -183.996      -20.778      -30.413       26.381       19.841       13.867      695.937      393.661      192.301        1.825        0.064      185.165       14.313        0.006      340.453       14.484      861.723
05/26/2014  03:52:00     -205.457      -12.815      -27.200       54.556       32.057       22.566     2976.399     1027.654      509.244        2.381        0.226      205.856       27.068        0.017      340.518       14.590      861.724
05/26/2014  03:53:00     -255.142       -8.244      -25.298       43.107       41.826       29.480     1858.211     1749.412      869.063        3.514        0.224      255.275       25.121        0.010      340.569       14.675      861.743
05/26/2014  03:54:00     -229.604        1.363      -28.921       35.414       51.568       25.555     1254.151     2659.265      653.068        2.906        0.228      229.608       23.207        0.010      340.580       14.695      861.763
05/26/2014  03:55:00     -145.220      -15.978      -13.080       54.037       45.232       32.209     2920.050     2045.929     1037.451        1.376        0.300      146.096       31.280        0.046      340.558       14.660      861.770
05/26/2014  03:56:00     -219.132        4.587      -28.168       30.594       39.831       23.082      935.964     1586.487      532.759        2.594        0.153      219.180       18.243        0.007      340.588       14.708      861.780
05/26/2014  03:57:00     -195.037      -16.693      -14.373       45.433       36.851       29.567     2064.176     1358.019      874.224        2.141        0.215      195.750       26.506        0.018      340.531       14.613      861.787
05/26/2014  03:58:00     -188.046      -21.286      -14.714       40.361       31.175       24.782     1629.027      971.852      614.133        1.962        0.161      189.247       22.333        0.014      340.509       14.577      861.791
05/26/2014  03:59:00     -162.973      -29.877      -10.927       53.938       36.521       26.384     2909.343     1333.754      696.136        1.625        0.247      165.689       28.472        0.030      340.425       14.436      861.791
05/26/2014  04:00:00     -171.594      -18.278      -11.533       46.807       33.557       26.130     2190.893     1126.087      682.751        1.695        0.200      172.565       24.882        0.021      340.548       14.644      861.789
05/26/2014  04:01:00     -136.914      -17.686      -12.888       52.097       48.945       29.062     2714.143     2395.621      844.604        1.259        0.298      138.052       26.686        0.037      340.547       14.642      861.802
05/26/2014  04:02:00     -167.277       15.422      -16.912       39.499       38.070       26.138     1560.170     1449.322      683.191        1.610        0.185      167.986       22.799        0.018      340.554       14.654      861.789
05/26/2014  04:03:00     -173.046      -11.612       -9.618       55.912       59.186       28.080     3126.172     3502.985      788.500        1.879        0.371      173.435       23.212        0.018      340.408       14.406      861.782
05/26/2014  04:04:00     -182.868       45.358      -17.618       45.734       36.185       20.963     2091.594     1309.369      439.447        1.982        0.192      188.409       16.551        0.008      340.491       14.545      861.776
05/26/2014  04:05:00     -124.041      -12.360       -9.881       40.150       41.747       24.923     1612.030     1742.813      621.152        0.981        0.199      124.655       19.150        0.024      340.439       14.460      861.778
05/26/2014  04:06:00      -80.058      -37.403       -0.898       31.017       32.586       19.904      962.035     1061.862      396.183        0.511        0.121       88.365       12.269        0.019      340.379       14.359      861.774
05/26/2014  04:07:00     -104.000      -40.632        2.512       35.572       39.140       23.244     1265.360     1531.944      540.260        0.790        0.167      111.655       19.219        0.030      340.405       14.402      861.771
05/26/2014  04:08:00      -25.584      -11.621        9.975       39.045       36.126       28.467     1524.516     1305.102      810.359        0.226        0.182       28.100       27.995        0.993      340.404       14.400      861.776
05/26/2014  04:09:00     -117.129      -34.427       -5.685       25.458       26.225       17.699      648.090      687.725      313.272        0.829        0.082      122.084       14.176        0.013      340.521       14.599      861.786
05/26/2014  04:10:00     -135.888        0.666      -12.534       45.921       25.000       23.925     2108.697      625.008      572.429        1.096        0.165      135.890       27.402        0.041      340.560       14.665      861.794
05/26/2014  04:11:00     -154.233      -27.133       -7.053       23.059       23.506       19.478      531.707      552.518      379.373        1.302        0.073      156.602       16.049        0.011      340.564       14.670      861.794
05/26/2014  04:12:00     -122.231      -36.571       -2.224       40.309       31.444       21.188     1624.804      988.728      448.923        0.967        0.153      127.584       22.633        0.031      340.479       14.528      861.787
05/26/2014  04:13:00      -87.327        5.007       -2.492       49.223       32.190       29.532     2422.858     1036.223      872.136        0.599        0.217       87.470       32.067        0.134      340.491       14.548      861.781
05/26/2014  04:14:00      -84.031        5.546       -1.229       42.007       35.133       27.946     1764.588     1234.296      780.990        0.544        0.189       84.214       20.689        0.060      340.550       14.648      861.772
05/26/2014  04:15:00      -91.125       25.613       -9.285       53.268       34.453       25.504     2837.466     1186.978      650.469        0.686        0.234       94.656       23.923        0.064      340.506       14.574      861.767
05/26/2014  04:16:00     -155.139       25.660      -13.553       52.214       30.484       22.791     2726.257      929.248      519.449        1.454        0.209      157.247       22.917        0.021      340.499       14.561      861.769
05/26/2014  04:17:00     -112.224        6.156       -4.410       56.807       52.549       33.947     3227.075     2761.380     1152.410        0.989        0.357      112.393       29.320        0.068      340.440       14.461      861.767
05/26/2014  04:18:00     -110.691       12.726       -3.270       50.314       43.843       29.966     2531.505     1922.187      897.956        0.889        0.268      111.421       25.573        0.053      340.449       14.477      861.768
05/26/2014  04:19:00      -81.105       -3.632       -9.634       53.940       30.332       23.716     2909.520      920.000      562.430        0.554        0.220       81.186       24.924        0.094      340.506       14.573      861.770
05/26/2014  04:20:00     -103.639      -21.508      -10.615       34.961       39.986       25.918     1222.241     1598.853      671.726        0.740        0.175      105.847       21.978        0.043      340.448       14.475      861.770
05/26/2014  04:21:00      -99.538      -20.288       -4.544       39.362       40.367       23.943     1549.378     1629.519      573.245        0.705        0.188      101.584       20.914        0.042      340.353       14.315      861.759
05/26/2014  04:22:00     -114.749      -27.104       -5.839       33.870       39.818       20.054     1147.161     1585.493      402.144        0.853        0.157      117.907       16.468        0.020      340.408       14.408      861.751
05/26/2014  04:23:00      -86.932      -22.486        1.858       49.810       31.398       22.213     2480.992      985.855      493.438        0.601        0.198       89.793       18.035        0.040      340.277       14.187      861.734
05/26/2014  04:24:00      -78.772      -20.470       -3.163       52.628       32.522       17.169     2769.690     1057.649      294.771        0.538        0.206       81.388       24.230        0.089      340.338       14.291      861.725
05/26/2014  04:25:00      -64.511      -42.758       -0.474       34.284       29.898       13.422     1175.365      893.912      180.154        0.412        0.112       77.394       16.692        0.047      340.399       14.393      861.721
05/26/2014  04:26:00      -88.028      -62.329       -7.559       25.012       23.615       16.573      625.608      557.662      274.665        0.657        0.073      107.860       10.340        0.009      340.407       14.406      861.732
05/26/2014  04:27:00     -104.972      -64.150        0.893       37.234       23.344       18.383     1386.338      544.960      337.917        0.870        0.113      123.022       19.710        0.026      340.347       14.305      861.748
05/26/2014  04:28:00     -109.225      -71.907       -4.369       44.039       33.287       25.648     1939.409     1108.053      657.795        1.041        0.185      130.769       15.680        0.014      340.326       14.269      861.772
05/26/2014  04:29:00      -95.965      -77.637        6.693       40.911       40.680       33.755     1673.712     1654.837     1139.395        0.987        0.223      123.438       27.934        0.051      340.252       14.144      861.790
05/26/2014  04:30:00      -95.996      -73.331        2.811       35.200       41.740       23.637     1239.046     1742.203      558.720        0.907        0.177      120.800       20.079        0.028      340.182       14.025      861.792
05/26/2014  04:31:00     -116.553      -46.960       -4.131       19.024       19.171       13.205      361.915      367.520      174.383        0.836        0.045      125.658       10.517        0.007      340.237       14.119      861.772
05/26/2014  04:32:00     -119.447      -43.530       -6.476       16.874       25.291       14.063      284.741      639.615      197.768        0.866        0.056      127.132       14.099        0.012      340.253       14.145      861.744
05/26/2014  04:33:00     -108.106        1.740        0.405       43.746       44.913       23.930     1913.748     2017.196      572.637        0.810        0.225      108.120       18.796        0.030      340.371       14.344      861.725
05/26/2014  04:34:00     -166.035       12.459      -11.612       45.814       37.259       25.566     2098.877     1388.261      653.627        1.600        0.207      166.502       22.620        0.018      340.446       14.472      861.716
05/26/2014  04:35:00     -169.840       22.397      -14.849       27.091       41.187       25.281      733.908     1696.385      639.124        1.632        0.153      171.311       13.440        0.006      340.408       14.407      861.718
05/26/2014  04:36:00     -124.239      -21.338       -4.128       48.913       33.434       21.581     2392.435     1117.805      465.718        0.994        0.199      126.058       22.330        0.031      340.228       14.104      861.722
05/26/2014  04:37:00      -93.242      -28.214       -2.932       28.740       31.199       17.968      826.013      973.364      322.846        0.581        0.106       97.417       16.326        0.028      340.177       14.018      861.733
05/26/2014  04:38:00      -65.015      -47.026       -1.848       24.538       22.053       14.152      602.115      486.335      200.269        0.386        0.064       80.239       12.031        0.022      340.182       14.027      861.745
05/26/2014  04:39:00      -89.101      -47.905       -6.754       42.941       32.015       19.062     1843.895     1024.939      363.358        0.676        0.162      101.162       15.395        0.023      340.215       14.080      861.757
05/26/2014  04:40:00     -111.672      -43.809      -11.004       19.317       17.795       12.549      373.153      316.677      157.480        0.768        0.042      119.957        6.451        0.003      340.198       14.053      861.772
05/26/2014  04:41:00      -80.140      -55.993       -1.540       24.964       16.931       15.809      623.225      286.664      249.915        0.536        0.058       97.763       12.041        0.015      340.225       14.098      861.781
05/26/2014  04:42:00      -52.269      -35.363       -2.531       43.994       22.062       16.216     1935.438      486.751      262.949        0.334        0.134       63.108       15.144        0.058      340.346       14.303      861.788
05/26/2014  04:43:00      -30.027      -34.789        5.163       41.525       34.160       25.134     1724.359     1166.928      631.698        0.283        0.176       45.956       22.585        0.242      340.168       14.002      861.802
05/26/2014  04:44:00      -94.660      -77.235        4.601       63.721       39.913       27.068     4060.318     1593.074      732.691        1.067        0.319      122.171       25.708        0.044      340.217       14.085      861.815
05/26/2014  04:45:00      -84.869      -64.811       -1.835       42.158       37.586       23.205     1777.281     1412.694      538.458        0.757        0.186      106.786       19.918        0.035      340.235       14.114      861.828
05/26/2014  04:46:00      -65.012      -70.130       -1.313       41.234       26.629       20.873     1700.229      709.100      435.700        0.600        0.142       95.628       20.183        0.045      340.213       14.078      861.825
05/26/2014  04:47:00     -104.758      -54.818        3.991       38.235       32.169       21.014     1461.926     1034.840      441.582        0.847        0.147      118.234       18.004        0.023      340.207       14.067      861.827
05/26/2014  04:48:00     -107.341     -108.530       -7.773       74.115       62.064       30.230     5493.056     3851.956      913.871        1.681        0.513      152.646       32.015        0.044      340.153       13.976      861.835
05/26/2014  04:49:00     -122.511     -127.070      -11.735       53.116       60.163       34.817     2821.289     3619.644     1212.221        1.947        0.383      176.510       30.520        0.030      339.999       13.715      861.838
05/26/2014  04:50:00      -68.869      -10.823        1.979       39.038       41.874       35.403     1523.971     1753.400     1253.348        0.470        0.227       69.714       28.628        0.169      339.980       13.684      861.835
05/26/2014  04:51:00      -84.589      -25.358       -8.463       37.615       26.352       20.990     1414.874      694.427      440.560        0.521        0.127       88.308       20.865        0.056      339.992       13.705      861.820
05/26/2014  04:52:00      -87.674      -41.559       -5.138       16.770       24.251       13.578      281.238      588.125      184.352        0.525        0.053       97.026        9.015        0.009      340.004       13.725      861.810
05/26/2014  04:53:00     -106.463      -49.828       -9.752       16.842       23.237       14.629      283.667      539.972      213.999        0.747        0.052      117.547       10.238        0.008      340.087       13.865      861.821
05/26/2014  04:54:00     -120.030      -18.574       -9.688       33.917       29.370       17.479     1150.335      862.572      305.531        0.858        0.116      121.459       16.758        0.019      339.987       13.696      861.833
05/26/2014  04:55:00     -118.329      -42.056       -9.551       16.613       16.981       13.188      275.990      288.338      173.934        0.830        0.037      125.580        6.628        0.003      339.901       13.550      861.850
05/26/2014  04:56:00      -50.961      -37.607        3.899       37.179       30.356       21.776     1382.273      921.487      474.202        0.340        0.139       63.335       20.994        0.110      339.837       13.446      861.863
05/26/2014  04:57:00      -54.994      -84.357        1.511       40.124       50.469       25.957     1609.907     2547.081      673.781        0.749        0.242      100.700       18.065        0.032      339.911       13.570      861.870
05/26/2014  04:58:00      -21.268      -33.710        8.560       42.682       35.141       23.919     1821.734     1234.867      572.106        0.264        0.181       39.858       23.606        0.351      339.864       13.490      861.876
05/26/2014  04:59:00      -39.876      -42.501       11.547       48.692       42.365       26.584     2370.893     1794.833      706.709        0.420        0.244       58.279       17.862        0.094      339.788       13.361      861.874
05/26/2014  05:00:00      -36.800      -69.295        3.846       39.178       56.393       32.949     1534.904     3180.166     1085.661        0.598        0.290       78.461       20.135        0.066      339.682       13.182      861.868
05/26/2014  05:01:00       -0.375      -42.093       10.415       46.679       37.973       28.264     2178.903     1441.932      798.879        0.315        0.221       42.095       28.718        0.465      339.729       13.263      861.880
05/26/2014  05:02:00       -9.090      -36.048       12.485       39.062       31.843       26.605     1525.867     1013.975      707.822        0.239        0.162       37.176       23.693        0.406      339.698       13.211      861.889
05/26/2014  05:03:00      -66.502      -56.137        4.414       48.234       39.380       29.067     2326.550     1550.781      844.863        0.616        0.236       87.028       22.772        0.068      339.633       13.099      861.897
05/26/2014  05:04:00     -126.645     -110.849       -7.844       44.325       36.541       26.033     1964.682     1335.210      677.714        1.618        0.199      168.305       18.216        0.012      339.590       13.027      861.905
05/26/2014  05:05:00      -97.602      -63.299       -6.884       37.826       47.370       21.592     1430.785     2243.938      466.205        0.886        0.207      116.331       22.554        0.038      339.530       12.926      861.921
05/26/2014  05:06:00      -38.787      -63.844        3.175       41.749       29.090       18.023     1742.973      846.221      324.822        0.425        0.146       74.703       20.554        0.076      339.648       13.125      861.912
05/26/2014  05:07:00      -35.288      -65.104       -2.054       24.052       25.133       18.863      578.484      631.682      355.829        0.353        0.078       74.053        9.715        0.017      339.623       13.085      861.907
05/26/2014  05:08:00      -56.680      -63.718       -3.297       17.936       35.239       14.603      321.702     1241.787      213.255        0.453        0.089       85.280        6.165        0.005      339.591       13.030      861.907
05/26/2014  05:09:00     -123.356      -38.480       -6.825       31.323       24.441       17.360      981.153      597.348      301.371        0.931        0.094      129.218       18.168        0.020      339.628       13.090      861.930
05/26/2014  05:10:00      -76.164      -37.157        1.675       52.794       24.241       17.491     2787.207      587.640      305.947        0.543        0.184       84.745       19.966        0.056      339.637       13.107      861.940
05/26/2014  05:11:00        6.168      -38.028       28.306       37.324       26.315       26.383     1393.081      692.490      696.052        0.253        0.139       38.525       23.507        0.372      339.681       13.182      861.955
05/26/2014  05:12:00      -69.647      -87.313      -12.088       22.015       21.065       18.474      484.645      443.752      341.276        0.694        0.063      111.688       15.761        0.020      339.683       13.183      861.961
05/26/2014  05:13:00      -70.043      -47.979       -4.821       33.191       17.296       11.702     1101.644      299.143      136.946        0.438        0.077       84.900        9.626        0.013      339.667       13.157      861.948
05/26/2014  05:14:00      -86.071      -44.031       -6.493       25.856       22.417       10.481      668.556      502.514      109.860        0.533        0.064       96.680        6.862        0.005      339.629       13.094      861.933
05/26/2014  05:15:00      -93.053      -30.900       -5.608       26.149       18.705       14.544      683.779      349.886      211.524        0.544        0.062       98.050        5.345        0.003      339.521       12.912      861.931
05/26/2014  05:16:00      -44.493      -37.605        1.798       41.375       24.409       15.457     1711.905      595.781      238.916        0.297        0.127       58.256       18.040        0.096      339.546       12.953      861.919
05/26/2014  05:17:00      -25.381      -78.466       -9.140       20.694       16.013       10.641      428.222      256.417      113.228        0.384        0.040       82.468        7.334        0.008      339.630       13.096      861.931
05/26/2014  05:18:00      -27.521      -19.159       10.744       30.813       26.203       17.541      949.412      686.571      307.697        0.159        0.097       33.533       17.564        0.274      339.559       12.976      861.944
05/26/2014  05:19:00       -9.415      -41.998        1.888       18.060       28.562       14.781      326.151      815.796      218.483        0.161        0.068       43.041       12.580        0.085      339.738       13.277      861.953
05/26/2014  05:20:00      -32.987      -56.041       -2.477       34.826       31.506       18.196     1212.876      992.645      331.095        0.339        0.127       65.029       15.290        0.055      339.850       13.466      861.959
05/26/2014  05:21:00       -0.664      -34.345       10.491       23.802       21.379       18.388      566.523      457.047      338.122        0.133        0.068       34.352       15.198        0.196      339.754       13.306      861.973
05/26/2014  05:22:00      -47.213      -32.490        8.222       39.308       29.007       21.348     1545.128      841.400      455.726        0.310        0.142       57.312       20.750        0.131      339.661       13.147      861.979
05/26/2014  05:23:00      -63.245      -29.045       -1.264       30.980       22.690       15.387      959.767      514.852      236.745        0.328        0.086       69.596       12.794        0.034      339.522       12.912      861.990
05/26/2014  05:24:00      -60.186      -40.045       -0.136       46.421       22.997       13.443     2154.921      528.858      180.710        0.404        0.143       72.291       17.955        0.062      339.556       12.970      862.013
05/26/2014  05:25:00      -98.964      -28.158        2.123       32.213       29.724       16.879     1037.703      883.520      284.901        0.640        0.110      102.892       13.375        0.017      339.423       12.744      862.028
05/26/2014  05:26:00     -101.230      -21.702       -4.554       38.159       31.349       19.428     1456.112      982.786      377.446        0.678        0.141      103.530       18.450        0.032      339.366       12.650      862.040
05/26/2014  05:27:00     -134.842      -63.578      -15.396       21.737       24.062       20.340      472.505      578.996      413.721        1.196        0.073      149.079       13.566        0.008      339.300       12.539      862.051
05/26/2014  05:28:00     -131.682      -61.517       -7.636       25.896       31.399       16.545      670.601      985.898      273.731        1.156        0.097      145.342       13.604        0.009      339.237       12.432      862.064
05/26/2014  05:29:00     -118.989      -61.582       -6.744       27.833       30.734       22.260      774.648      944.577      495.511        1.011        0.111      133.980       11.186        0.007      339.271       12.491      862.067
05/26/2014  05:30:00      -90.081      -50.607        2.384       42.873       32.969       24.797     1838.071     1086.925      614.900        0.711        0.177      103.323       21.929        0.045      339.207       12.384      862.070
05/26/2014  05:31:00     -102.650      -51.627        8.782       55.964       30.842       23.117     3131.951      951.213      534.395        0.895        0.231      114.901       30.318        0.070      339.210       12.387      862.077
05/26/2014  05:32:00      -92.334      -53.699       -1.927       43.965       30.149       17.908     1932.912      908.943      320.681        0.729        0.158      106.814       20.972        0.039      339.249       12.452      862.083
05/26/2014  05:33:00      -79.908      -67.129        0.639       42.792       34.786       22.518     1831.190     1210.081      507.053        0.722        0.177      104.363       23.090        0.049      339.337       12.602      862.083
05/26/2014  05:34:00      -93.869      -60.827        0.408       31.062       39.610       18.384      964.876     1568.969      337.960        0.769        0.144      111.854       14.372        0.017      339.344       12.613      862.087
05/26/2014  05:35:00     -130.724      -74.618       -4.868       42.613       32.380       20.302     1815.890     1048.486      412.175        1.298        0.164      150.521       13.267        0.008      339.343       12.611      862.098
05/26/2014  05:36:00     -155.186      -65.009      -11.361       30.092       33.289       20.596      905.543     1108.150      424.202        1.544        0.122      168.252       19.166        0.013      339.248       12.453      862.101
05/26/2014  05:37:00     -159.629      -41.330      -21.980       26.150       23.366       18.751      683.821      545.989      351.605        1.463        0.079      164.893       10.319        0.004      339.168       12.315      862.101
05/26/2014  05:38:00     -164.520      -59.046       -7.321       23.508       24.607       16.394      552.645      605.499      268.765        1.602        0.071      174.795       14.329        0.007      339.166       12.313      862.093
05/26/2014  05:39:00     -114.850      -68.779      -11.218       51.684       38.773       27.550     2671.270     1503.361      759.017        1.149        0.247      133.869       26.297        0.039      339.091       12.187      862.103
05/26/2014  05:40:00     -130.582      -60.985      -11.932       61.025       34.141       24.758     3724.077     1165.637      612.955        1.321        0.275      144.121       28.425        0.039      339.010       12.051      862.117
05/26/2014  05:41:00     -159.280      -52.001      -19.219       22.017       35.876       14.899      484.743     1287.104      221.994        1.522        0.100      167.553       11.088        0.004      338.982       12.003      862.118
05/26/2014  05:42:00     -144.459      -10.746      -18.958       44.332       28.712       21.111     1965.304      824.359      445.659        1.229        0.162      144.859       17.481        0.015      338.930       11.918      862.109
05/26/2014  05:43:00     -166.549      -12.751       -9.906       49.005       35.876       28.467     2401.459     1287.115      810.347        1.625        0.225      167.036       28.095        0.028      338.862       11.802      862.128
05/26/2014  05:44:00      -87.811      -21.037       -7.002       65.856       26.006       22.722     4336.969      676.300      516.271        0.686        0.276       90.295       32.183        0.127      338.892       11.853      862.107
05/26/2014  05:45:00      -40.206      -44.581       -1.790       28.679       21.897       16.489      822.460      479.480      271.893        0.259        0.079       60.034       10.560        0.031      338.948       11.946      862.093
05/26/2014  05:46:00      -22.463      -24.509        5.716       24.027       24.143       14.978      577.295      582.885      224.327        0.126        0.069       33.246       15.184        0.209      339.043       12.105      862.099
05/26/2014  05:47:00      -44.019      -36.331        4.922       51.142       18.747       18.038     2615.476      351.444      325.353        0.329        0.165       57.076        9.611        0.028      339.116       12.228      862.115
05/26/2014  05:48:00     -117.570      -44.398       -9.663       39.079       31.083       21.086     1527.159      966.150      444.635        0.941        0.147      125.674       19.821        0.025      339.009       12.049      862.126
05/26/2014  05:49:00      -81.389      -34.447       -5.585       35.473       31.274       18.200     1258.315      978.075      331.254        0.520        0.128       88.379       19.580        0.049      338.907       11.876      862.155
05/26/2014  05:50:00      -94.609      -45.676       -5.482       37.172       25.030       14.203     1381.728      626.520      201.716        0.664        0.110      105.057       11.649        0.012      338.929       11.915      862.179
05/26/2014  05:51:00      -47.829      -38.240        4.968       53.860       31.370       20.691     2900.939      984.088      428.116        0.404        0.216       61.236       26.182        0.183      338.970       11.983      862.174
05/26/2014  05:52:00      -77.651      -48.826      -10.002       31.073       22.879       17.551      965.555      523.454      308.049        0.515        0.090       91.726       10.595        0.013      338.906       11.875      862.175
05/26/2014  05:53:00      -62.399      -41.850       -0.427       25.496       14.693       10.024      650.038      215.889      100.472        0.331        0.048       75.134        7.865        0.011      338.971       11.984      862.188
05/26/2014  05:54:00      -78.906      -52.520       -3.282       24.082       22.581       13.465      579.937      509.906      181.314        0.513        0.064       94.787       11.035        0.014      339.089       12.183      862.193
05/26/2014  05:55:00      -54.107      -58.575        8.188       42.617       25.575       20.105     1816.251      654.076      404.196        0.465        0.144       79.741       18.220        0.052      339.151       12.289      862.204
05/26/2014  05:56:00      -57.956      -74.173       -1.139       48.028       39.586       22.965     2306.669     1567.021      527.402        0.663        0.220       94.130       18.172        0.037      339.094       12.192      862.221
05/26/2014  05:57:00     -102.333      -91.881       -3.266       34.193       41.971       23.063     1169.172     1761.591      531.906        1.119        0.173      137.529       25.186        0.034      339.051       12.121      862.231
05/26/2014  05:58:00      -92.703      -80.596       -2.208       29.255       50.540       22.736      855.835     2554.308      516.944        0.951        0.196      122.840       21.049        0.029      339.160       12.302      862.239
05/26/2014  05:59:00      -93.823     -118.749       -8.169       25.561       37.052       18.488      653.349     1372.846      341.815        1.267        0.118      151.341       12.764        0.007      339.250       12.454      862.243
05/26/2014  06:00:00      -81.207      -56.552      -13.067       30.632       42.588       19.565      938.324     1813.728      382.809        0.655        0.157       98.959       14.251        0.021      339.323       12.577      862.235
05/26/2014  06:01:00      -20.734      -38.854       -6.306       21.773       16.823       14.776      474.045      283.007      218.342        0.148        0.049       44.040       11.590        0.069      339.346       12.616      862.244
05/26/2014  06:02:00      -67.852      -98.012        0.570       45.444       44.053       24.215     2065.167     1940.677      586.377        0.940        0.230      119.207       25.602        0.046      339.360       12.640      862.273
05/26/2014  06:03:00      -80.017      -74.146       13.544       65.706       47.618       32.361     4317.230     2267.498     1047.263        0.986        0.382      109.088       34.144        0.098      339.285       12.512      862.296
05/26/2014  06:04:00     -143.793      -83.532       -5.315       54.934       37.429       32.591     3017.737     1400.950     1062.159        1.658        0.274      166.295       34.469        0.043      339.294       12.527      862.304
05/26/2014  06:05:00     -136.294      -64.678       -1.702       53.938       41.081       25.127     2909.279     1687.639      631.380        1.399        0.261      150.862       22.642        0.023      339.344       12.612      862.304
05/26/2014  06:06:00     -122.682      -63.920        1.207       53.551       28.470       25.309     2867.673      810.540      640.567        1.173        0.216      138.335       22.269        0.026      339.404       12.712      862.297
05/26/2014  06:07:00     -118.689      -69.139       -1.431       51.670       27.907       22.859     2669.794      778.776      522.537        1.142        0.199      137.358       20.459        0.022      339.412       12.729      862.292
05/26/2014  06:08:00      -86.557      -83.300        6.070       59.069       35.286       35.621     3489.144     1245.105     1268.863        1.023        0.300      120.129       32.099        0.071      339.413       12.729      862.288
05/26/2014  06:09:00     -119.542      -94.732       -1.332       54.588       34.925       28.160     2979.902     1219.772      792.991        1.413        0.250      152.527       26.866        0.031      339.445       12.783      862.297
05/26/2014  06:10:00     -132.126      -76.715       -3.239       55.761       40.823       24.549     3109.245     1666.512      602.661        1.436        0.269      152.782       19.393        0.016      339.437       12.769      862.300
05/26/2014  06:11:00     -132.962      -69.616       -7.058       49.225       35.726       28.828     2423.060     1276.379      831.045        1.355        0.227      150.084       27.470        0.033      339.497       12.870      862.302
05/26/2014  06:12:00     -101.439      -27.269       -4.300       42.100       37.280       22.565     1772.448     1389.768      509.197        0.736        0.184      105.040       17.848        0.029      339.492       12.863      862.314
05/26/2014  06:13:00     -143.148      -21.839       -8.097       53.283       37.749       24.613     2839.095     1424.956      605.820        1.295        0.243      144.804       27.413        0.036      339.457       12.804      862.326
05/26/2014  06:14:00     -135.551        6.024       -3.838       51.139       32.151       28.450     2615.234     1033.671      809.418        1.144        0.223      135.685       26.020        0.037      339.322       12.575      862.339
05/26/2014  06:15:00     -146.705       13.964       -6.734       42.861       34.342       23.446     1837.042     1179.375      549.699        1.266        0.178      147.368       20.255        0.019      339.228       12.416      862.344
05/26/2014  06:16:00     -153.638       -1.106      -13.767       28.110       29.147       19.644      790.183      849.529      385.868        1.291        0.101      153.642       15.409        0.010      339.291       12.523      862.355
05/26/2014  06:17:00     -141.000      -48.367       -4.508       40.257       29.535       20.205     1620.616      872.340      408.257        1.257        0.145      149.065       19.121        0.016      339.293       12.526      862.373
05/26/2014  06:18:00     -149.021      -38.611       -9.379       25.314       35.752       16.801      640.783     1278.207      282.288        1.299        0.110      153.942       14.239        0.009      339.346       12.616      862.373
05/26/2014  06:19:00     -116.552      -42.408        5.040       31.854       25.129       20.641     1014.672      631.468      426.041        0.874        0.104      124.027       18.500        0.022      339.375       12.665      862.369
05/26/2014  06:20:00      -93.721      -44.925        2.129       42.612       38.573       22.237     1815.778     1487.886      494.506        0.730        0.190      103.932       25.300        0.059      339.458       12.805      862.379
05/26/2014  06:21:00      -85.748      -41.431        3.519       42.659       22.544       16.462     1819.753      508.253      271.007        0.584        0.130       95.233       17.807        0.035      339.509       12.890      862.377
05/26/2014  06:22:00      -61.380      -44.290        3.145       40.939       21.797       23.525     1676.012      475.123      553.413        0.422        0.135       75.691       24.233        0.103      339.578       13.009      862.382
05/26/2014  06:23:00      -71.900      -55.437        6.977       56.836       31.225       28.990     3230.297      974.992      840.406        0.667        0.252       90.790       28.124        0.096      339.588       13.023      862.386
05/26/2014  06:24:00     -137.493      -87.087       -4.449       43.443       36.641       28.773     1887.280     1342.593      827.886        1.528        0.203      162.753       27.425        0.028      339.602       13.045      862.377
05/26/2014  06:25:00     -107.506      -58.644       -4.768       37.893       34.975       20.632     1435.896     1223.244      425.692        0.905        0.154      122.461       16.400        0.018      339.588       13.024      862.369
05/26/2014  06:26:00     -100.605      -24.967        1.287       46.321       35.592       28.655     2145.643     1266.756      821.125        0.749        0.212      103.657       30.320        0.086      339.598       13.043      862.374
05/26/2014  06:27:00     -108.392      -49.849       -6.554       29.320       25.430       17.763      859.651      646.668      315.523        0.805        0.091      119.305       16.376        0.019      339.611       13.064      862.371
05/26/2014  06:28:00     -103.180      -26.688       -7.980       21.393       23.473       13.916      457.681      550.996      193.658        0.631        0.060      106.576       10.542        0.010      339.664       13.152      862.384
05/26/2014  06:29:00      -45.449      -61.084       -1.293       38.428       28.669       18.756     1476.676      821.926      351.776        0.422        0.133       76.137       22.339        0.086      339.731       13.267      862.375
05/26/2014  06:30:00      -57.482      -53.246        2.150       30.672       26.874       18.302      940.789      722.213      334.949        0.407        0.100       78.354       16.475        0.044      339.731       13.267      862.370
05/26/2014  06:31:00      -28.496      -21.168       12.548       28.229       16.186       12.632      796.856      261.980      159.578        0.132        0.061       35.498        8.765        0.061      339.818       13.413      862.379
05/26/2014  06:32:00       -6.351      -12.053       17.812       18.382       16.516       15.231      337.880      272.763      231.992        0.067        0.042       13.624       12.487        0.840      340.212       14.077      862.381
05/26/2014  06:33:00      -37.404      -18.711        0.420       19.996       18.073       10.774      399.855      326.644      116.072        0.130        0.042       41.823        7.212        0.030      339.827       13.428      862.401
05/26/2014  06:34:00      -62.879      -19.149        1.488       26.128       18.988       12.271      682.681      360.546      150.571        0.276        0.060       65.730        6.606        0.010      339.720       13.248      862.411
05/26/2014  06:35:00      -47.933      -16.905        5.919       21.557       12.658        9.981      464.723      160.229       99.619        0.167        0.036       50.827       11.069        0.047      339.747       13.291      862.440
05/26/2014  06:36:00      -27.089      -21.538        2.114       20.145       17.111       10.923      405.802      292.784      119.304        0.101        0.041       34.608       10.553        0.093      339.956       13.646      862.447
05/26/2014  06:37:00      -46.830      -19.183       -3.958       10.977       16.558        7.141      120.503      274.153       50.995        0.151        0.022       50.606        5.427        0.012      339.914       13.574      862.451
05/26/2014  06:38:00      -45.652       -9.570       -5.277       10.529       12.414        9.432      110.870      154.114       88.959        0.128        0.018       46.644        7.104        0.023      339.906       13.560      862.446
05/26/2014  06:39:00      -34.874      -16.039        1.081       13.685       13.963        7.129      187.291      194.977       50.818        0.095        0.022       38.386        5.277        0.019      339.885       13.524      862.460
05/26/2014  06:40:00      -35.448      -23.979        7.988       26.483       18.800       13.952      701.342      353.457      194.655        0.157        0.062       42.797       14.840        0.120      340.038       13.782      862.473
05/26/2014  06:41:00      -38.436      -24.876        0.763       10.880       16.685       10.191      118.380      278.378      103.858        0.130        0.025       45.783        8.770        0.037      339.953       13.640      862.484
05/26/2014  06:42:00      -41.727      -18.818        1.384       25.734       26.891       14.417      662.253      723.144      207.841        0.184        0.080       45.774       12.881        0.079      340.107       13.900      862.482
05/26/2014  06:43:00      -71.782      -11.329       -4.671       32.675       16.390        9.788     1067.635      268.627       95.811        0.337        0.072       72.670        5.647        0.006      339.929       13.599      862.508
05/26/2014  06:44:00      -85.143        2.652       -1.694       30.584       23.297       15.990      935.393      542.747      255.679        0.450        0.087       85.185       17.522        0.042      339.972       13.673      862.530
05/26/2014  06:45:00      -91.418       -2.460        1.132       30.337       24.039       15.248      920.322      577.883      232.490        0.505        0.087       91.451       14.732        0.026      339.865       13.492      862.545
05/26/2014  06:46:00      -98.188      -31.343       -3.227       30.424       21.197       14.693      925.591      449.328      215.882        0.611        0.080      103.069       10.550        0.010      339.992       13.706      862.550
05/26/2014  06:47:00      -40.149      -37.969        0.134       18.134       16.557       12.879      328.851      274.129      165.866        0.191        0.038       55.259       11.936        0.047      340.054       13.809      862.522
05/26/2014  06:48:00       -8.621      -22.237        0.036       10.655       10.020        8.463      113.534      100.404       71.629        0.043        0.014       23.850        4.145        0.030      340.135       13.945      862.485
05/26/2014  06:49:00      -29.549      -15.940       -0.189        8.052       11.926       10.961       64.838      142.241      120.140        0.073        0.016       33.574        7.246        0.047      340.101       13.888      862.468
05/26/2014  06:50:00      -10.301      -11.598        3.370       11.812        7.725        9.273      139.523       59.670       85.985        0.027        0.014       15.513        4.658        0.090      340.392       14.381      862.460
05/26/2014  06:51:00       -8.044       -2.700       11.476        6.409       10.621       10.101       41.075      112.808      102.027        0.023        0.013        8.485        4.806        0.321      340.759       15.000      862.452
05/26/2014  06:52:00       -6.618      -13.131        9.059        8.790       10.597       14.048       77.272      112.303      197.335        0.034        0.019       14.705       10.198        0.481      340.846       15.149      862.456
05/26/2014  06:53:00      -14.542      -17.953       -3.258        9.555       10.742        7.438       91.298      115.393       55.331        0.040        0.013       23.103        4.029        0.030      340.274       14.182      862.457
05/26/2014  06:54:00      -18.261      -20.056        5.238       13.735       10.499       10.035      188.642      110.231      100.711        0.058        0.020       27.124        5.772        0.045      340.435       14.452      862.463
05/26/2014  06:55:00      -52.398      -26.654       -0.715       17.196       10.517        9.898      295.718      110.602       97.974        0.198        0.025       58.788        9.195        0.024      340.355       14.319      862.471
05/26/2014  06:56:00      -38.237      -14.682        3.315       25.081       18.273       11.634      629.043      333.913      135.345        0.139        0.055       40.959       10.407        0.065      340.395       14.387      862.492
05/26/2014  06:57:00      -13.676       -9.446        2.316       10.665       17.394       11.104      113.747      302.568      123.304        0.041        0.027       16.621        9.312        0.314      340.618       14.765      862.491
05/26/2014  06:58:00       -8.120        0.885       18.126       11.739        8.092       16.132      137.815       65.480      260.237        0.043        0.023        8.168        8.055        0.973      341.204       15.755      862.481
05/26/2014  06:59:00      -30.036        7.904       16.665        9.392        8.076        8.844       88.213       65.214       78.214        0.074        0.012       31.059        4.055        0.017      340.696       14.896      862.484
05/26/2014  07:00:00      -17.854        1.823        8.728        9.104        9.577       11.758       82.888       91.712      138.256        0.036        0.016       17.947        4.451        0.061      340.889       15.223      862.486
05/26/2014  07:01:00      -17.439        4.125        3.353        9.303        7.344       14.480       86.554       53.928      209.679        0.034        0.018       17.920        6.227        0.121      341.008       15.424      862.479
05/26/2014  07:02:00      -21.120       10.200        9.659       11.549        8.464       11.472      133.385       71.640      131.617        0.049        0.017       23.454        7.730        0.109      340.857       15.168      862.468
05/26/2014  07:03:00       12.605        3.848       18.006       12.172        8.610       11.271      148.160       74.139      127.040        0.042        0.017       13.179        6.209        0.222      341.214       15.772      862.466
05/26/2014  07:04:00       -1.863       -0.119       21.958       12.248       11.631        9.540      150.025      135.287       91.007        0.043        0.019        1.867        3.285        3.097      341.695       16.587      862.471
05/26/2014  07:05:00      -11.644        7.240       17.205        9.317       10.196       12.386       86.798      103.966      153.409        0.041        0.017       13.711        6.129        0.200      341.444       16.162      862.476
05/26/2014  07:06:00       -4.091       10.564       16.929       21.746       12.363       13.426      472.888      152.836      180.251        0.061        0.040       11.328       10.308        0.828      341.312       15.938      862.475
05/26/2014  07:07:00       27.898       17.675       11.066       20.434       19.351       15.263      417.538      374.473      232.949        0.112        0.051       33.026       10.614        0.103      341.192       15.735      862.479
05/26/2014  07:08:00       37.035       36.774       -2.457       13.438       14.097       11.898      180.569      198.723      141.571        0.163        0.026       52.191        3.708        0.005      340.901       15.241      862.486
05/26/2014  07:09:00       30.267       32.301        8.295       13.432       18.243       18.586      180.426      332.823      345.446        0.144        0.043       44.266        7.065        0.025      340.924       15.280      862.488
05/26/2014  07:10:00       19.769       19.728       -7.190        8.151       10.300       10.073       66.436      106.099      101.463        0.055        0.014       27.928        5.154        0.034      340.875       15.198      862.492
05/26/2014  07:11:00       18.853        2.169        1.621       21.078       14.536       13.846      444.271      211.301      191.723        0.060        0.042       18.977        4.118        0.047      341.185       15.722      862.489
05/26/2014  07:12:00       -5.608       -9.549       19.428       15.611       14.462       11.886      243.708      209.164      141.288        0.055        0.030       11.074        8.733        0.622      341.641       16.494      862.502
05/26/2014  07:13:00       -2.064      -11.762       26.193       11.059       20.090       13.303      122.298      403.613      176.963        0.077        0.035       11.942        7.202        0.364      341.763       16.700      862.515
05/26/2014  07:14:00       -6.976       12.397       42.501        8.415       16.132        8.740       70.813      260.231       76.389        0.121        0.020       14.225        7.124        0.251      342.153       17.364      862.526
05/26/2014  07:15:00       -6.954       17.512       43.410        6.329       15.991        8.882       40.056      255.726       78.895        0.131        0.019       18.842        5.401        0.082      342.010       17.123      862.533
05/26/2014  07:16:00      -11.323        3.167       33.196       10.543       15.099       10.620      111.148      227.972      112.780        0.085        0.023       11.758        8.651        0.541      342.025       17.147      862.538
05/26/2014  07:17:00      -14.244        6.625       29.496       12.693       14.162       12.355      161.111      200.576      152.658        0.082        0.026       15.709        9.551        0.370      342.269       17.562      862.537
05/26/2014  07:18:00      -12.176       -2.049       17.391       12.435       11.153       13.120      154.636      124.387      172.122        0.045        0.023       12.348        8.136        0.434      341.805       16.774      862.536
05/26/2014  07:19:00      -13.021       -5.479       15.200       14.495       19.298       14.622      210.102      372.432      213.808        0.061        0.040       14.127        9.292        0.433      341.920       16.968      862.543
05/26/2014  07:20:00      -26.324       -1.326       19.829       17.213       12.063       14.207      296.298      145.510      201.830        0.087        0.032       26.357       13.349        0.257      341.668       16.543      862.550
05/26/2014  07:21:00      -22.062       13.871       33.122       12.555       16.039       14.533      157.637      257.255      211.202        0.120        0.031       26.061        9.057        0.121      342.080       17.240      862.556
05/26/2014  07:22:00      -13.671       -0.884       17.312       13.005       11.304       13.476      169.125      127.774      181.592        0.048        0.024       13.700        8.973        0.429      341.890       16.917      862.564
05/26/2014  07:23:00       11.946       42.058       30.704       15.058       22.533       14.450      226.756      507.726      208.795        0.190        0.047       43.722        9.350        0.046      341.538       16.321      862.571
05/26/2014  07:24:00       -6.282        5.618       49.064       11.862       17.235       12.127      140.703      297.053      147.069        0.153        0.029        8.428        8.290        0.967      342.210       17.462      862.582
05/26/2014  07:25:00      -11.794      -35.202       24.088       17.605       21.201       15.415      309.926      449.484      237.624        0.148        0.050       37.125        8.041        0.047      341.750       16.678      862.588
05/26/2014  07:26:00      -18.353       -3.128       21.314       12.269       13.473       16.080      150.517      181.529      258.571        0.070        0.030       18.618       12.800        0.473      342.085       17.251      862.593
05/26/2014  07:27:00       -3.493       24.764       26.898       16.315       16.970       16.796      266.169      287.998      282.103        0.109        0.042       25.010       10.560        0.178      342.031       17.157      862.587
05/26/2014  07:28:00      -16.806        4.347       20.807       15.162       19.139       19.035      229.879      366.316      362.339        0.085        0.048       17.359       15.614        0.809      341.836       16.827      862.584
05/26/2014  07:29:00      -47.053      -18.968        5.698       27.652       20.153       17.813      764.646      406.125      317.294        0.205        0.074       50.732       14.412        0.081      341.547       16.336      862.584
05/26/2014  07:30:00      -54.296        9.479       12.901       41.161       27.691       23.608     1694.217      766.799      557.318        0.311        0.151       55.118       24.841        0.203      341.783       16.739      862.577
05/26/2014  07:31:00      -37.613      -16.526       10.021       21.467       21.151       15.809      460.820      447.348      249.909        0.147        0.058       41.083        9.027        0.048      341.530       16.306      862.567
05/26/2014  07:32:00        0.022        3.665       18.566       14.550       10.355       13.230      211.696      107.233      175.046        0.043        0.025        3.665        7.203        3.862      342.150       17.359      862.552
05/26/2014  07:33:00      -44.225       11.894        6.992       25.218       22.153       19.992      635.955      490.748      399.693        0.184        0.076       45.796       18.129        0.157      341.585       16.399      862.529
05/26/2014  07:34:00      -30.837        8.877        1.494       22.588       22.619       15.057      510.198      511.630      226.726        0.114        0.062       32.089        9.895        0.095      341.666       16.538      862.525
05/26/2014  07:35:00      -20.839        5.424       16.769       14.689       13.036       20.944      215.758      169.942      438.643        0.078        0.041       21.533       13.700        0.405      342.009       17.120      862.533
05/26/2014  07:36:00        1.548       27.576       46.327       16.555       20.751       14.704      274.056      430.619      216.204        0.191        0.046       27.620       12.090        0.192      342.080       17.240      862.530
05/26/2014  07:37:00       38.206       34.395       31.619       15.555       13.296       13.320      241.948      176.773      177.433        0.212        0.030       51.407        6.982        0.018      341.535       16.316      862.528
05/26/2014  07:38:00       45.235       22.342       11.086       14.771       13.767       12.967      218.182      189.541      168.144        0.162        0.029       50.452        8.895        0.031      341.380       16.052      862.535
05/26/2014  07:39:00        6.974       11.240       26.778       20.974       24.297       23.557      439.896      590.363      554.915        0.124        0.079       13.228       14.528        1.206      341.830       16.815      862.545
05/26/2014  07:40:00       -0.183        8.170       36.657       14.532       13.643       14.675      211.177      186.144      215.356        0.101        0.031        8.172       10.415        1.624      342.611       18.144      862.553
05/26/2014  07:41:00       14.834       16.618       18.544       18.584       19.267       19.736      345.376      371.216      389.517        0.097        0.055       22.276       13.913        0.390      341.624       16.466      862.557
05/26/2014  07:42:00        1.174        0.250       23.875       22.181       13.024       16.124      491.985      169.632      259.990        0.075        0.046        1.201       10.038       69.883      342.138       17.338      862.572
05/26/2014  07:43:00       -6.929       16.890       19.632       15.151       16.791       19.199      229.553      281.945      368.616        0.080        0.044       18.256       13.372        0.536      342.461       17.888      862.564
05/26/2014  07:44:00        4.955       15.198       19.443       16.460       19.300       15.844      270.917      372.484      251.032        0.076        0.045       15.985       10.138        0.402      342.483       17.925      862.553
05/26/2014  07:45:00       10.629       -9.044       14.598       24.734       21.256       22.067      611.752      451.822      486.961        0.098        0.078       13.956        6.855        0.241      342.253       17.535      862.544
05/26/2014  07:46:00        1.543       -7.682       31.618       25.842       36.388       18.585      667.818     1324.059      345.398        0.170        0.117        7.836       18.859        5.793      342.276       17.575      862.549
05/26/2014  07:47:00       -2.584       -5.147       40.177       17.754       32.768       17.926      315.194     1073.759      321.352        0.168        0.086        5.759       10.048        3.044      342.579       18.087      862.549
05/26/2014  07:48:00        8.139      -18.147       16.247       20.088       26.985       28.397      403.514      728.188      806.417        0.130        0.097       19.889       19.980        1.009      342.497       17.950      862.551
05/26/2014  07:49:00       20.215       13.420       11.216       26.060       24.293       33.669      679.129      590.129     1133.597        0.156        0.120       24.264       18.774        0.599      342.237       17.508      862.541
05/26/2014  07:50:00        7.091       12.102       -7.144       21.445       24.950       19.978      459.884      622.515      399.108        0.086        0.074       14.026        9.248        0.435      342.095       17.266      862.537
05/26/2014  07:51:00        4.446        9.664        7.984       18.805       19.382       15.449      353.640      375.663      238.686        0.057        0.048       10.638        6.620        0.387      342.226       17.486      862.528
05/26/2014  07:52:00        4.424      -24.759       12.076       30.805       22.586       25.310      948.954      510.122      640.582        0.144        0.105       25.151       18.728        0.554      341.911       16.952      862.519
05/26/2014  07:53:00       32.464      -16.977        7.379       22.993       30.395       26.732      528.693      923.857      714.610        0.178        0.108       36.635       15.968        0.190      342.013       17.126      862.511
05/26/2014  07:54:00       36.117        8.669       16.970       26.864       30.778       22.889      721.664      947.268      523.893        0.193        0.110       37.142       17.386        0.219      342.043       17.176      862.507
05/26/2014  07:55:00       26.314       11.057       38.688       36.084       29.286       20.514     1302.061      857.692      420.835        0.245        0.129       28.542       11.324        0.157      342.174       17.401      862.497
05/26/2014  07:56:00       44.309      -20.805       18.151       47.212       33.934       34.169     2228.966     1151.528     1167.546        0.364        0.227       48.950       20.460        0.175      341.911       16.955      862.492
05/26/2014  07:57:00       46.107      -29.568        7.330       36.231       31.694       31.822     1312.692     1004.537     1012.640        0.319        0.166       54.773       26.249        0.230      341.976       17.064      862.488
05/26/2014  07:58:00       11.001       14.872       37.234       30.900       24.835       22.769      954.781      616.781      518.446        0.191        0.105       18.499       10.857        0.344      342.559       18.055      862.482
05/26/2014  07:59:00        3.353       12.751       36.708       17.339       23.202       16.701      300.642      538.315      278.912        0.132        0.056       13.184        7.974        0.366      342.723       18.333      862.474
05/26/2014  08:00:00       15.004        9.530       17.299       21.856       32.908       19.579      477.706     1082.925      383.321        0.128        0.097       17.775       11.053        0.387      342.428       17.832      862.479
05/26/2014  08:01:00       44.695       10.918       31.186       39.685       28.068       28.455     1574.863      787.831      809.668        0.313        0.159       46.009       20.595        0.200      342.430       17.835      862.484
05/26/2014  08:02:00       36.783      -20.352       29.409       37.293       32.770       26.483     1390.784     1073.851      701.328        0.290        0.158       42.038       23.551        0.314      342.190       17.428      862.480
05/26/2014  08:03:00       43.469       -7.242       21.600       25.344       25.990       27.131      642.297      675.464      736.084        0.223        0.103       44.068       17.349        0.155      342.182       17.412      862.487
05/26/2014  08:04:00       41.856       -7.064       12.705       31.220       17.947       20.526      974.690      322.106      421.329        0.184        0.086       42.448       14.710        0.120      342.299       17.612      862.493
05/26/2014  08:05:00       32.089       21.841       11.521       30.615       24.857       20.058      937.269      617.866      402.310        0.180        0.098       38.816       14.202        0.134      342.181       17.411      862.496
05/26/2014  08:06:00       30.241       -1.565       27.139       36.097       28.568       28.970     1303.012      816.155      839.235        0.231        0.148       30.282       24.846        0.673      342.762       18.400      862.505
05/26/2014  08:07:00        0.504      -29.375        1.992       33.477       26.440       22.397     1120.700      699.100      501.604        0.159        0.116       29.380       16.882        0.330      342.714       18.316      862.510
05/26/2014  08:08:00      -15.020        9.669       37.024       18.671       21.146       18.789      348.613      447.133      353.008        0.142        0.057       17.863       13.485        0.570      343.034       18.862      862.519
05/26/2014  08:09:00       30.050       -0.273        8.441       34.062       29.555       32.597     1160.232      873.506     1062.551        0.203        0.155       30.052       23.433        0.608      342.616       18.152      862.537
05/26/2014  08:10:00      -56.944      -26.679       12.215       57.338       40.297       26.470     3287.609     1623.839      700.642        0.486        0.281       62.884       33.079        0.277      342.726       18.338      862.549
05/26/2014  08:11:00      -37.436      -39.957       14.645       34.688       26.199       20.545     1203.228      686.412      422.103        0.276        0.116       54.754       18.460        0.114      342.600       18.124      862.561
05/26/2014  08:12:00      -35.168      -45.144       -1.671       18.281       34.332       13.082      334.211     1178.707      171.129        0.248        0.084       57.226        9.683        0.029      342.356       17.708      862.563
05/26/2014  08:13:00      -13.719       -3.047        8.625       16.400       13.989       18.622      268.974      195.697      346.791        0.054        0.041       14.053       13.055        0.863      343.002       18.808      862.561
05/26/2014  08:14:00      -20.933       12.775        7.760       14.362       17.399       14.772      206.267      302.742      218.218        0.069        0.036       24.524        7.208        0.086      342.983       18.776      862.557
05/26/2014  08:15:00       -3.982        6.947       21.170       16.011       17.217       16.615      256.339      296.419      276.047        0.067        0.041        8.007        8.296        1.074      343.444       19.561      862.553
05/26/2014  08:16:00        2.411       40.605       15.535       19.694       30.217       27.086      387.842      913.087      733.636        0.196        0.102       40.677       16.787        0.170      343.168       19.091      862.555
05/26/2014  08:17:00       11.459       12.582       14.333       15.394       12.308       17.920      236.968      151.496      321.125        0.060        0.035       17.018       11.382        0.447      343.430       19.536      862.551
05/26/2014  08:18:00        4.118       48.087        6.835       19.991       34.102       23.321      399.656     1162.979      543.865        0.224        0.105       48.263       18.287        0.144      343.294       19.306      862.542
05/26/2014  08:19:00       13.265        4.579       27.695       19.030       14.096       13.619      362.122      198.693      185.490        0.085        0.037       14.033        9.925        0.500      343.780       20.135      862.536
05/26/2014  08:20:00       15.913       15.530       35.002       24.675       27.400       22.894      608.853      750.777      524.116        0.180        0.094       22.235       10.699        0.232      343.389       19.466      862.521
05/26/2014  08:21:00       38.138        7.326       34.093       35.838       27.196       25.679     1284.333      739.619      659.395        0.268        0.134       38.836       18.721        0.232      342.823       18.502      862.515
05/26/2014  08:22:00       23.746       16.327       33.475       30.367       25.588       30.288      922.127      654.770      917.385        0.222        0.125       28.818       18.136        0.396      342.963       18.743      862.519
05/26/2014  08:23:00       46.529       -2.895        9.996       21.361       18.949       25.601      456.281      359.053      655.433        0.187        0.074       46.619       15.748        0.114      342.811       18.485      862.521
05/26/2014  08:24:00       22.994        3.427       26.530       34.474       23.711       23.677     1188.480      562.235      560.592        0.178        0.116       23.248       19.606        0.711      343.327       19.363      862.525
05/26/2014  08:25:00       24.611        0.690       25.019       37.096       22.769       27.949     1376.088      518.440      781.167        0.195        0.134       24.621       17.088        0.482      343.110       18.992      862.527
05/26/2014  08:26:00       57.717       -0.402       14.672       38.604       26.551       27.650     1490.284      704.965      764.530        0.325        0.148       57.719       24.130        0.175      342.802       18.467      862.530
05/26/2014  08:27:00       25.995       22.625       25.567       27.762       28.180       22.701      770.725      794.111      515.337        0.196        0.104       34.462       18.598        0.291      342.859       18.565      862.526
05/26/2014  08:28:00       -2.987        1.580       34.215       26.009       24.678       30.831      676.446      609.019      950.574        0.171        0.112        3.379       20.077       35.306      343.596       19.821      862.530
05/26/2014  08:29:00      -15.057      -19.860        7.740       21.919       21.995       21.796      480.426      483.792      475.069        0.106        0.072       24.923       13.357        0.287      343.227       19.192      862.539
05/26/2014  08:30:00      -29.309      -75.542        8.696       21.767       28.368       15.080      473.806      804.764      227.402        0.407        0.075       81.028       10.974        0.018      342.869       18.580      862.550
05/26/2014  08:31:00      -34.003      -45.030       14.351       35.139       32.230       22.504     1234.770     1038.771      506.414        0.308        0.139       56.426       21.330        0.143      343.133       19.032      862.568
05/26/2014  08:32:00      -22.498      -26.028       12.881       25.590       24.774       18.196      654.839      613.768      331.079        0.147        0.080       34.404       17.618        0.262      343.293       19.303      862.570
05/26/2014  08:33:00      -41.044      -43.421        4.944       24.754       15.748       12.945      612.737      247.986      167.576        0.231        0.051       59.749       12.856        0.046      343.036       18.866      862.579
05/26/2014  08:34:00      -27.803      -57.139        7.563       16.111       14.941       14.864      259.567      223.245      220.925        0.240        0.035       63.545        8.096        0.016      342.922       18.670      862.582
05/26/2014  08:35:00      -24.997      -22.228       -3.704       20.365       20.929       14.355      414.724      438.009      206.058        0.110        0.053       33.450        8.610        0.066      343.173       19.098      862.574
05/26/2014  08:36:00      -42.685      -99.484        6.094       36.581       44.601       23.052     1338.175     1989.284      531.398        0.781        0.193      108.255       14.816        0.019      343.181       19.112      862.569
05/26/2014  08:37:00      -29.345      -94.122       12.904       14.299       31.310       12.164      204.466      980.307      147.962        0.561        0.067       98.590        8.534        0.007      342.935       18.691      862.579
05/26/2014  08:38:00      -41.201      -43.942        6.898       19.429       34.350       15.026      377.498     1179.939      225.777        0.273        0.089       60.237       15.380        0.065      343.086       18.950      862.582
05/26/2014  08:39:00      -33.733      -19.879       17.722       22.602       46.993       29.806      510.837     2208.363      888.401        0.273        0.180       39.154       29.474        0.567      343.487       19.635      862.588
05/26/2014  08:40:00      -45.589      -86.895       -0.894       33.976       38.795       17.613     1154.354     1505.040      310.219        0.630        0.148       98.128       16.319        0.028      343.086       18.951      862.605
05/26/2014  08:41:00      -93.622      -30.507      -14.459       26.384       47.537       25.117      696.127     2259.728      630.886        0.675        0.179       98.468       19.280        0.038      343.052       18.891      862.601
05/26/2014  08:42:00      -29.057       13.371       11.900       23.426       34.901       26.260      548.764     1218.052      689.584        0.181        0.123       31.986       22.258        0.484      343.826       20.213      862.606
05/26/2014  08:43:00       -8.409       16.630       50.111       22.810       27.640       21.849      520.312      763.969      477.376        0.231        0.088       18.636       12.247        0.432      344.351       21.109      862.608
05/26/2014  08:44:00       24.162       28.187       52.332       49.084       34.719       27.135     2409.279     1205.436      736.328        0.423        0.218       37.126       27.254        0.539      343.544       19.731      862.612
05/26/2014  08:45:00        8.616      -29.446       24.968       25.258       42.284       36.100      637.986     1787.943     1303.236        0.265        0.186       30.681       30.893        1.014      343.317       19.343      862.624
05/26/2014  08:46:00      -12.994      -49.934       -4.897       21.841       20.098       25.951      477.027      403.924      673.463        0.212        0.078       51.597        8.597        0.028      342.951       18.722      862.627
05/26/2014  08:47:00       -8.937      -21.164       16.637       22.824       36.723       31.943      520.951     1348.556     1020.377        0.185        0.144       22.974       13.492        0.345      343.645       19.903      862.623
05/26/2014  08:48:00       40.424       16.816       33.958       39.468       31.466       31.532     1557.700      990.092      994.239        0.331        0.177       43.782       19.305        0.194      343.765       20.107      862.632
05/26/2014  08:49:00       11.956      -21.435       36.485       34.375       55.479       36.608     1181.635     3077.902     1340.150        0.377        0.280       24.544       31.268        1.623      343.561       19.760      862.632
05/26/2014  08:50:00       43.157      -32.381       26.503       46.334       54.837       38.656     2146.858     3007.079     1494.300        0.513        0.332       53.954       41.401        0.589      343.751       20.084      862.632
05/26/2014  08:51:00       50.296       46.368       63.907       57.268       34.858       39.659     3279.606     1215.112     1572.828        0.741        0.303       68.408       37.365        0.298      343.454       19.577      862.636
05/26/2014  08:52:00       46.089       19.757       51.530       47.403       33.653       29.416     2247.027     1132.519      865.303        0.471        0.212       50.145       28.004        0.312      343.625       19.869      862.631
05/26/2014  08:53:00       -8.454        6.239       10.912       23.442       28.085       29.737      549.537      788.755      884.287        0.123        0.111       10.507       19.649        3.497      344.029       20.559      862.627
05/26/2014  08:54:00       23.878       10.225       -8.415       32.437       23.955       23.202     1052.137      573.828      538.323        0.145        0.108       25.975       14.057        0.293      343.246       19.223      862.622
05/26/2014  08:55:00      -10.699       20.517        8.203       24.543       20.721       21.569      602.367      429.356      465.232        0.105        0.075       23.139       12.270        0.281      344.105       20.688      862.603
05/26/2014  08:56:00        3.998        7.021      -10.452       18.412       18.110       14.557      338.995      327.972      211.920        0.053        0.044        8.079       11.978        2.198      343.872       20.290      862.603
05/26/2014  08:57:00       14.439       13.370       22.956       20.402       17.064       27.480      416.246      291.194      755.168        0.119        0.073       19.678       15.805        0.645      344.178       20.813      862.605
05/26/2014  08:58:00       32.670       22.336        8.127       21.327       25.496       32.621      454.858      650.057     1064.129        0.190        0.108       39.575       23.215        0.344      343.390       19.468      862.610
05/26/2014  08:59:00        8.510       14.984       24.900       26.419       19.766       19.628      697.990      390.681      385.263        0.120        0.074       17.232       13.918        0.652      344.323       21.062      862.605
05/26/2014  09:00:00      -14.041       -2.821       23.517       19.152       18.863       21.454      366.797      355.820      460.284        0.097        0.059       14.322       11.391        0.633      344.484       21.337      862.590
05/26/2014  09:01:00       -8.244       -5.486       13.449       30.942       24.869       27.235      957.390      618.451      741.728        0.130        0.116        9.903       14.981        2.289      343.972       20.463      862.585
05/26/2014  09:02:00      -21.056      -31.122        0.089       23.333       20.475       19.401      544.442      419.222      376.405        0.138        0.067       37.575       11.820        0.099      343.828       20.215      862.583
05/26/2014  09:03:00      -55.737      -31.830       -5.292       28.544       26.337       24.276      814.755      693.653      589.341        0.312        0.105       64.185       22.929        0.128      343.815       20.193      862.582
05/26/2014  09:04:00      -29.589      -29.946       -6.289       32.955       20.532       26.438     1086.003      421.571      698.969        0.201        0.110       42.098       13.305        0.100      343.788       20.147      862.590
05/26/2014  09:05:00      -15.562      -23.603        4.888       22.525       23.773       18.446      507.354      565.145      340.254        0.112        0.071       28.272        4.963        0.031      344.020       20.544      862.586
05/26/2014  09:06:00      -10.930      -12.196        1.573       26.455       19.029       23.026      699.892      362.118      530.193        0.093        0.080       16.377       13.208        0.650      344.078       20.643      862.586
05/26/2014  09:07:00       31.045      -20.786        7.978       35.170       44.307       33.508     1236.915     1963.101     1122.798        0.289        0.216       37.361       37.260        0.995      344.081       20.648      862.578
05/26/2014  09:08:00        1.882      -39.134       -3.313       21.808       25.986       20.750      475.609      675.291      430.560        0.156        0.079       39.180        9.100        0.054      343.944       20.412      862.569
05/26/2014  09:09:00       44.386      -29.019       -0.793       48.211       29.344       28.399     2324.305      861.050      806.502        0.340        0.200       53.030       14.101        0.071      343.694       19.987      862.566
05/26/2014  09:10:00       51.784      -41.901       24.069       46.305       56.170       33.910     2144.112     3155.098     1149.901        0.573        0.322       66.613       31.411        0.222      343.860       20.272      862.562
05/26/2014  09:11:00       59.802      -51.771       11.111       32.965       48.296       27.577     1086.715     2332.498      760.492        0.528        0.209       79.098       24.256        0.094      343.842       20.239      862.563
05/26/2014  09:12:00       43.318       -4.298       33.820       40.721       34.658       26.431     1658.240     1201.161      698.582        0.330        0.178       43.531       30.658        0.496      344.185       20.825      862.575
05/26/2014  09:13:00       18.645       14.408       39.064       40.942       31.203       23.817     1676.238      973.604      567.228        0.265        0.161       23.564       20.351        0.746      344.234       20.911      862.579
05/26/2014  09:14:00       24.659       13.847       30.299       30.087       30.417       27.704      905.235      925.177      767.495        0.216        0.130       28.281       26.734        0.894      344.263       20.960      862.584
05/26/2014  09:15:00       19.878       15.299       27.752       25.450       32.049       24.981      647.719     1027.108      624.049        0.185        0.115       25.083       14.314        0.326      344.337       21.085      862.587
05/26/2014  09:16:00       80.352       52.666       22.776       54.846       31.989       33.217     3008.052     1023.288     1103.365        0.744        0.257       96.074       18.275        0.036      344.403       21.196      862.578
05/26/2014  09:17:00       30.908       68.754       18.652       44.678       57.626       40.343     1996.086     3320.728     1627.548        0.649        0.347       75.382       35.284        0.219      344.985       22.195      862.576
05/26/2014  09:18:00       30.991      116.323      -10.993       30.775       40.235       36.116      947.083     1618.846     1304.341        0.924        0.194      120.381       25.465        0.045      344.494       21.353      862.569
05/26/2014  09:19:00       32.433       22.931        0.452       24.713       44.159       29.476      610.711     1950.029      868.810        0.250        0.171       39.721       20.729        0.272      344.298       21.019      862.567
05/26/2014  09:20:00      129.825       99.948       60.954       57.206       32.638       42.112     3272.541     1065.225     1773.385        1.833        0.306      163.842       20.645        0.016      344.074       20.634      862.560
05/26/2014  09:21:00       96.172       77.471        2.093       36.648       36.548       37.736     1343.070     1335.747     1423.977        0.968        0.205      123.494       22.653        0.034      343.945       20.415      862.551
05/26/2014  09:22:00       42.630       16.797       18.203       41.899       47.421       33.639     1755.516     2248.744     1131.587        0.378        0.257       45.820       26.647        0.338      344.339       21.088      862.546
05/26/2014  09:23:00       25.847        7.700       37.687       42.076       56.876       37.473     1770.370     3234.909     1404.237        0.428        0.320       26.969       34.226        1.610      344.372       21.144      862.548
05/26/2014  09:24:00       33.901       49.293       31.713       63.275       47.162       29.196     4003.705     2224.219      852.410        0.583        0.354       59.825       21.432        0.128      344.067       20.621      862.539
05/26/2014  09:25:00       -3.866        4.801       22.777       25.905       21.865       24.420      671.094      478.072      596.340        0.115        0.087        6.164       12.173        3.900      344.749       21.789      862.539
05/26/2014  09:26:00       20.288      -17.197       31.124       35.943       51.769       33.431     1291.867     2680.037     1117.665        0.338        0.254       26.596       29.441        1.225      344.740       21.773      862.523
05/26/2014  09:27:00        3.113      -17.029       28.085       38.994       48.547       37.779     1520.501     2356.851     1427.222        0.320        0.265       17.312       36.134        4.357      344.576       21.494      862.504
05/26/2014  09:28:00       31.384       12.328       54.477       41.988       55.718       38.249     1762.989     3104.497     1462.964        0.522        0.317       33.719       39.228        1.353      344.955       22.143      862.486
05/26/2014  09:29:00      105.862       83.401       18.093       45.224       35.016       33.979     2045.211     1226.116     1154.587        1.146        0.221      134.768       20.548        0.023      344.315       21.045      862.475
05/26/2014  09:30:00       67.724       31.999        6.041       31.661       42.393       28.462     1002.391     1797.125      810.107        0.463        0.180       74.903       12.308        0.027      344.608       21.548      862.455
05/26/2014  09:31:00       38.470       13.631       18.741       27.294       19.463       23.517      744.977      378.792      553.030        0.185        0.084       40.814        7.379        0.033      345.213       22.584      862.436
05/26/2014  09:32:00       10.562       -5.854       31.726       35.010       47.027       23.398     1225.671     2211.577      547.466        0.257        0.199       12.075       22.231        3.389      344.938       22.113      862.425
05/26/2014  09:33:00      100.362       90.263       44.030       65.226       50.410       37.976     4254.417     2541.193     1442.199        1.420        0.412      134.981       26.029        0.037      344.749       21.789      862.409
05/26/2014  09:34:00       98.347       87.386       29.538       38.160       34.753       39.105     1456.154     1207.795     1529.182        1.119        0.210      131.561       17.848        0.018      344.548       21.445      862.421
05/26/2014  09:35:00       50.142       31.953       10.460       46.839       71.278       28.293     2193.861     5080.553      800.489        0.586        0.404       59.457       24.229        0.166      344.749       21.790      862.413
05/26/2014  09:36:00        8.654      -34.894       25.382       24.831       51.264       30.756      616.569     2627.996      945.938        0.306        0.210       35.951       28.139        0.613      344.640       21.602      862.410
05/26/2014  09:37:00       26.106      -17.274        7.909       37.946       64.250       35.503     1439.865     4128.016     1260.447        0.393        0.341       31.304       27.823        0.790      344.494       21.353      862.406
05/26/2014  09:38:00       23.623      -26.542       15.093       30.032       53.322       27.466      901.906     2843.285      754.362        0.299        0.225       35.532       25.263        0.506      344.126       20.725      862.388
05/26/2014  09:39:00       56.724       65.259       40.961       44.046       35.069       39.570     1940.031     1229.846     1565.793        0.694        0.237       86.466       15.476        0.032      344.634       21.592      862.350
05/26/2014  09:40:00       31.169       56.293       57.235       41.690       50.626       32.597     1738.052     2563.031     1062.559        0.639        0.268       64.346       25.405        0.156      344.874       22.003      862.328
05/26/2014  09:41:00       62.456       24.040       46.856       47.028       71.899       50.462     2211.651     5169.411     2546.410        0.830        0.496       66.923       20.920        0.098      344.905       22.056      862.310
05/26/2014  09:42:00        8.397       23.253       51.171       37.979       73.596       38.655     1442.427     5416.343     1494.206        0.579        0.418       24.723       39.012        2.490      345.178       22.523      862.299
05/26/2014  09:43:00       53.042        1.589       28.576       53.530       62.735       36.037     2865.478     3935.726     1298.674        0.586        0.405       53.066       22.848        0.185      344.903       22.052      862.287
05/26/2014  09:44:00      136.895       87.042       23.360       41.914       45.445       36.958     1756.760     2065.286     1365.904        1.602        0.259      162.224       25.756        0.025      344.892       22.031      862.275
05/26/2014  09:45:00       68.249       50.419       21.510       31.397       36.152       27.657      985.794     1306.995      764.918        0.536        0.153       84.854       17.713        0.044      344.784       21.849      862.270
05/26/2014  09:46:00       60.205       38.765        8.428       49.136       37.941       30.748     2414.309     1439.522      945.460        0.500        0.240       71.605       28.715        0.161      345.111       22.409      862.251
05/26/2014  09:47:00       56.536       75.606       67.329       67.947       53.701       43.309     4616.845     2883.834     1875.673        1.141        0.469       94.406       35.834        0.144      345.299       22.731      862.252
05/26/2014  09:48:00       94.274       77.588       10.136       64.064       42.853       35.365     4104.258     1836.371     1250.682        1.110        0.360      122.096       20.422        0.028      344.817       21.903      862.250
05/26/2014  09:49:00      126.037       98.605       27.809       58.249       52.085       40.913     3392.985     2712.852     1673.903        1.708        0.389      160.026       34.008        0.045      344.740       21.773      862.258
05/26/2014  09:50:00       63.417       81.731       66.268       41.679       45.894       41.735     1737.113     2106.249     1741.823        1.034        0.279      103.449       29.314        0.080      344.755       21.798      862.262
05/26/2014  09:51:00       74.308       67.694       46.790       51.414       37.841       38.856     2643.375     1431.958     1509.763        0.894        0.279      100.519       20.357        0.041      344.799       21.874      862.269
05/26/2014  09:52:00       25.533       17.008       30.636       33.940       37.963       23.904     1151.915     1441.159      571.401        0.252        0.158       30.679       15.189        0.245      345.424       22.946      862.275
05/26/2014  09:53:00       65.041       55.140       53.389       38.583       35.105       36.318     1488.610     1232.337     1318.986        0.708        0.202       85.269       19.770        0.054      345.347       22.813      862.275
05/26/2014  09:54:00        9.342       34.709       35.473       33.768       57.112       39.000     1140.277     3261.759     1520.991        0.424        0.296       35.944       28.739        0.639      345.806       23.600      862.276
05/26/2014  09:55:00       29.629      -13.179       36.199       49.712       36.619       34.074     2471.252     1340.931     1161.049        0.367        0.249       32.428       24.214        0.558      345.903       23.767      862.285
05/26/2014  09:56:00       42.156      -66.950        5.334       27.329       41.242       39.176      746.863     1700.880     1534.783        0.513        0.199       79.117       27.391        0.120      345.558       23.176      862.293
05/26/2014  09:57:00       16.625      -89.182      -12.458       39.405       60.573       42.412     1552.743     3669.101     1798.745        0.770        0.351       90.718       41.558        0.210      345.568       23.192      862.291
05/26/2014  09:58:00       25.303      -69.898      -10.971       33.510       42.046       30.540     1122.949     1767.851      932.696        0.473        0.191       74.337       23.490        0.100      345.439       22.972      862.305
05/26/2014  09:59:00       28.364      -41.708      -13.639       53.036       50.702       25.038     2812.812     2570.715      626.888        0.437        0.301       50.439       25.422        0.254      345.221       22.596      862.308
05/26/2014  10:00:00       42.515      -78.065        0.227       43.983       80.477       45.081     1934.474     6476.490     2032.270        0.917        0.522       88.891       41.855        0.222      345.513       23.096      862.312
05/26/2014  10:01:00       -6.201      -32.512       11.237       48.414       35.179       26.882     2343.942     1237.543      722.617        0.276        0.215       33.098       21.920        0.439      345.675       23.374      862.306
05/26/2014  10:02:00       11.561        2.087       39.575       29.851       63.687       47.327      891.082     4056.059     2239.799        0.444        0.359       11.748       46.822       15.884      346.151       24.193      862.298
05/26/2014  10:03:00       15.524       32.804       69.169       44.290       62.960       46.360     1961.607     3964.018     2149.266        0.709        0.404       36.292       40.872        1.268      346.097       24.098      862.272
05/26/2014  10:04:00       31.069      -29.396       46.955       41.759       76.072       39.440     1743.818     5787.018     1555.484        0.656        0.454       42.771       39.391        0.848      346.279       24.411      862.255
05/26/2014  10:05:00       98.976       82.217       40.136       97.018       50.441       51.353     9412.533     2544.308     2637.102        1.638        0.730      128.670       49.678        0.149      345.755       23.510      862.245
05/26/2014  10:06:00       21.154      -29.197       19.703       47.880       96.035       47.050     2292.521     9222.692     2213.658        0.771        0.686       36.055       42.039        1.359      345.975       23.891      862.232
05/26/2014  10:07:00       17.331     -119.685        3.802       41.402       83.074       45.869     1714.147     6901.360     2103.960        1.268        0.536      120.933       42.005        0.121      345.826       23.633      862.228
05/26/2014  10:08:00       47.008     -100.439        6.364       58.956       49.267       42.756     3475.842     2427.214     1828.034        1.003        0.387      110.896       39.485        0.127      345.711       23.436      862.220
05/26/2014  10:09:00       19.588      -59.231       16.487       39.298       50.639       42.205     1544.305     2564.322     1781.257        0.503        0.294       62.386       37.318        0.358      345.902       23.764      862.225
05/26/2014  10:10:00       20.019       30.124       58.652       37.390       42.205       36.957     1398.006     1781.254     1365.792        0.465        0.227       36.169       28.260        0.610      346.095       24.096      862.226
05/26/2014  10:11:00       72.460       57.642       39.227       76.835       67.126       55.168     5903.565     4505.861     3043.517        1.178        0.673       92.590       48.052        0.269      345.762       23.524      862.223
05/26/2014  10:12:00        9.796      -28.468       64.863       56.410       72.153       52.547     3182.050     5206.092     2761.192        0.813        0.557       30.106       34.813        1.337      346.127       24.151      862.221
05/26/2014  10:13:00       62.604       21.514       83.615       78.679       90.666       52.824     6190.441     8220.391     2790.421        1.428        0.860       66.198       66.123        0.998      345.922       23.800      862.231
05/26/2014  10:14:00       60.502       14.510       65.413       59.098       75.095       43.231     3492.578     5639.326     1868.960        0.957        0.550       62.218       39.878        0.411      346.226       24.322      862.215
05/26/2014  10:15:00       75.501       63.351       37.074       41.257       38.219       28.459     1702.165     1460.721      809.923        0.753        0.199       98.558       18.501        0.035      345.684       23.390      862.207
05/26/2014  10:16:00       25.397        0.330       39.354       59.226       55.738       42.229     3507.695     3106.755     1783.292        0.529        0.420       25.399       33.211        1.710      346.284       24.421      862.202
05/26/2014  10:17:00       49.614        7.707       67.457       58.119       60.105       50.985     3377.805     3612.576     2599.516        0.833        0.479       50.209       47.692        0.902      346.218       24.309      862.203
05/26/2014  10:18:00       53.946      -31.819       13.268       41.340       60.964       35.373     1708.997     3716.582     1251.282        0.539        0.334       62.631       40.906        0.427      346.026       23.979      862.225
05/26/2014  10:19:00        2.683        5.736       32.911       18.375       20.165       21.027      337.654      406.628      442.115        0.115        0.059        6.332       12.249        3.742      346.486       24.767      862.226
05/26/2014  10:20:00      -33.234        9.037       19.229       22.088       11.750       22.629      487.862      138.068      512.086        0.135        0.057       34.441       15.497        0.202      345.933       23.819      862.216
05/26/2014  10:21:00       -8.878       17.664       17.666       34.915       21.313       23.384     1219.030      454.257      546.821        0.146        0.111       19.770       10.990        0.309      346.453       24.712      862.223
05/26/2014  10:22:00       37.982       34.157       29.915       73.872       38.569       33.621     5457.060     1487.560     1130.357        0.579        0.404       51.082       19.416        0.144      346.355       24.543      862.208
05/26/2014  10:23:00       85.865       72.406       26.248       54.567       41.819       33.511     2977.603     1748.828     1122.999        0.958        0.292      112.318       15.861        0.020      346.014       23.956      862.195
05/26/2014  10:24:00       -7.607      -46.136       -7.870       36.715      104.886       32.094     1347.989    11000.994     1030.006        0.781        0.669       46.759       38.959        0.694      346.169       24.223      862.204
05/26/2014  10:25:00       35.790       22.201       69.100       54.145       54.618       53.990     2931.658     2983.163     2914.882        0.769        0.441       42.116       44.636        1.123      346.435       24.680      862.216
05/26/2014  10:26:00       64.709       63.567       70.079       57.293       45.774       38.694     3282.543     2095.286     1497.249        1.001        0.344       90.708       17.600        0.038      346.180       24.242      862.208
05/26/2014  10:27:00       60.291       19.117       29.798       51.408       60.217       48.321     2642.764     3626.040     2334.904        0.674        0.430       63.250       29.498        0.217      346.179       24.241      862.186
05/26/2014  10:28:00       29.657       57.566      112.507       45.512       74.816       49.207     2071.298     5597.452     2421.344        1.347        0.505       64.756       41.261        0.406      346.555       24.887      862.199
05/26/2014  10:29:00       26.639       59.791       25.148       46.821       44.462       47.788     2192.242     1976.834     2283.709        0.568        0.323       65.457       30.065        0.211      346.369       24.569      862.207
05/26/2014  10:30:00       -8.774       14.861       52.451       34.440       47.641       43.151     1186.142     2269.665     1862.004        0.418        0.266       17.257       30.363        3.096      346.927       25.527      862.197
05/26/2014  10:31:00       64.401       69.013       65.662       48.053       43.140       39.026     2309.065     1861.094     1523.038        0.946        0.285       94.394       28.380        0.090      346.365       24.560      862.199
05/26/2014  10:32:00       88.138       81.585       39.087       76.443       45.158       58.790     5843.554     2039.220     3456.249        1.364        0.567      120.102       49.051        0.167      346.436       24.681      862.142
05/26/2014  10:33:00       69.439      139.787       -9.406       48.348       95.921       43.704     2337.500     9200.798     1910.004        1.895        0.672      156.084       37.271        0.057      346.161       24.207      862.132
05/26/2014  10:34:00      -16.089       56.994       -7.215       34.380       47.701       21.103     1181.997     2275.353      445.344        0.373        0.195       59.221       21.357        0.130      346.031       23.987      862.162
05/26/2014  10:35:00      -48.571       26.352       -4.284       27.605       24.794       24.365      762.026      614.736      593.636        0.252        0.099       55.259       18.564        0.113      346.331       24.502      862.181
05/26/2014  10:36:00        5.986       16.474        3.639       33.054       44.397       23.765     1092.555     1971.110      564.758        0.197        0.181       17.527       24.215        1.909      346.359       24.549      862.165
05/26/2014  10:37:00       60.228       68.364       17.733       52.804       50.067       32.422     2788.237     2506.700     1051.161        0.748        0.317       91.110       25.215        0.077      346.788       25.288      862.103
05/26/2014  10:38:00       66.464      -63.166       -0.370       64.487       93.415       44.553     4158.634     8726.355     1984.982        1.164        0.743       91.692       53.657        0.342      346.688       25.115      862.070
05/26/2014  10:39:00       70.347      -34.999       24.246       63.195      103.616       80.222     3993.605    10736.365     6435.628        1.396        1.058       78.572       81.949        1.088      346.749       25.221      862.037
05/26/2014  10:40:00      127.019      -61.334       11.829      109.291      137.365       93.610    11944.543    18869.273     8762.851        2.980        1.979      141.052      106.186        0.567      346.641       25.033      862.004
05/26/2014  10:41:00       41.415       33.821      117.401       74.548      123.024       72.073     5557.463    15134.806     5194.528        2.126        1.294       53.470       73.143        1.871      346.891       25.465      861.954
05/26/2014  10:42:00        0.373     -107.563        1.524       79.100       78.406       61.961     6256.739     6147.493     3839.117        1.390        0.812      107.564       38.973        0.131      346.610       24.981      861.949
05/26/2014  10:43:00        5.021        6.129       19.515       54.668       68.318       29.154     2988.543     4667.357      849.965        0.447        0.425        7.923       27.542       12.084      346.665       25.076      861.985
05/26/2014  10:44:00      -72.934       47.246        3.507       50.637       37.286       40.815     2564.121     1390.271     1665.824        0.659        0.281       86.899       39.068        0.202      346.498       24.790      861.999
05/26/2014  10:45:00      -27.071       27.331       12.381       35.701       50.554       28.962     1274.582     2555.717      838.772        0.315        0.233       38.469       23.708        0.380      346.732       25.191      861.993
05/26/2014  10:46:00      -14.439       25.118       15.897       32.038       32.373       27.440     1026.448     1048.007      752.929        0.196        0.141       28.973       23.591        0.663      347.149       25.909      861.979
05/26/2014  10:47:00      -13.435      -14.691       15.525       24.219       24.265       18.121      586.565      588.798      328.389        0.107        0.075       19.908       13.399        0.453      347.167       25.940      861.969
05/26/2014  10:48:00      -29.905      -88.008       -9.231       56.146       77.784       42.549     3152.420     6050.281     1810.443        0.987        0.551       92.950       16.338        0.031      346.413       24.643      861.944
05/26/2014  10:49:00      -68.042        0.371       -2.134       47.006       47.348       25.082     2209.544     2241.847      629.108        0.486        0.254       68.043       23.156        0.116      346.611       24.984      861.926
05/26/2014  10:50:00      -80.357      -47.226       21.793       96.169       53.704       38.223     9248.521     2884.161     1461.029        1.138        0.680       93.206       35.804        0.148      346.939       25.549      861.902
05/26/2014  10:51:00        5.513        9.847       24.978       37.442       37.061       25.389     1401.928     1373.525      644.598        0.208        0.171       11.286        7.216        0.409      347.842       27.104      861.873
05/26/2014  10:52:00       10.767      -37.277       25.495       29.279       35.620       22.901      857.283     1268.812      524.471        0.240        0.133       38.801       12.935        0.111      347.311       26.189      861.867
05/26/2014  10:53:00       25.449      -20.886       48.495       40.592       80.298       37.494     1647.703     6447.811     1405.783        0.647        0.475       32.923       39.456        1.436      347.234       26.056      861.827
05/26/2014  10:54:00       38.582      -30.139       47.792       36.460       44.307       31.456     1329.329     1963.143      989.484        0.448        0.214       48.959       27.592        0.318      347.593       26.674      861.828
05/26/2014  10:55:00       22.479       51.551       48.052       27.164       26.516       27.227      737.879      703.073      741.317        0.383        0.109       56.239       21.369        0.144      347.611       26.706      861.826
05/26/2014  10:56:00       18.558       21.938       62.950       54.982       80.099       51.178     3022.988     6415.914     2619.154        0.842        0.603       28.735       42.740        2.212      347.721       26.895      861.815
05/26/2014  10:57:00        2.649       -1.675       84.476       58.123      113.024       73.044     3378.328    12774.493     5335.394        1.431        1.074        3.134       81.519      676.537      347.503       26.520      861.801
05/26/2014  10:58:00      -37.872      -95.076       -3.526       75.181       39.613       31.674     5652.123     1569.191     1003.224        0.935        0.411      102.342       36.936        0.130      347.185       25.972      861.806
05/26/2014  10:59:00      -28.505      -44.205        2.694       76.906       60.451       41.115     5914.470     3654.374     1690.435        0.701        0.563       52.599       24.628        0.219      347.233       26.053      861.803
05/26/2014  11:00:00       30.936       29.510       94.765       89.507      134.044      100.540     8011.464    17967.691    10108.272        2.344        1.804       42.754      113.946        7.103      347.173       25.949      861.751
05/26/2014  11:01:00       76.343     -120.480       -4.188      134.281       82.091       48.632    18031.487     6738.916     2365.105        2.374        1.357      142.632       57.121        0.160      346.971       25.601      861.735
05/26/2014  11:02:00      -29.571     -185.868      -15.107       92.976       70.351       40.903     8644.469     4949.302     1673.026        2.546        0.763      188.205       35.823        0.036      346.885       25.452      861.740
05/26/2014  11:03:00      -82.542     -145.297      -13.665       71.763       63.976       47.817     5149.893     4092.891     2286.453        1.982        0.576      167.106       29.944        0.032      346.914       25.504      861.747
05/26/2014  11:04:00       22.721     -103.819       -3.287       60.971       72.605       41.775     3717.487     5271.477     1745.181        1.102        0.537      106.276       28.516        0.072      347.113       25.849      861.741
05/26/2014  11:05:00      -30.841      -78.083        7.717       70.534       97.333       36.191     4974.982     9473.625     1309.813        1.143        0.788       83.954       43.835        0.273      347.286       26.145      861.733
05/26/2014  11:06:00      -47.362     -151.578       11.257       87.814       82.572       57.939     7711.229     6818.150     3356.937        2.161        0.894      158.805       51.038        0.103      347.009       25.666      861.731
05/26/2014  11:07:00        2.226       12.542       76.984       31.750       64.951       48.358     1008.053     4218.586     2338.452        0.683        0.378       12.738       49.341       15.005      347.494       26.505      861.722
05/26/2014  11:08:00      -28.165      -10.181       36.764       53.197       71.596       56.922     2829.886     5126.046     3240.059        0.672        0.560       29.949       56.521        3.562      347.585       26.661      861.719
05/26/2014  11:09:00      -69.377     -133.067        1.897       65.047       81.956       34.380     4231.149     6716.772     1181.962        1.732        0.606      150.067       24.311        0.026      347.164       25.934      861.737
05/26/2014  11:10:00      -29.215      -85.837        5.669       50.216       73.178       45.824     2521.646     5355.043     2099.853        0.911        0.499       90.672       25.183        0.077      347.422       26.380      861.718
05/26/2014  11:11:00       37.716     -217.104       -3.458      137.525      121.056       86.455    18913.194    14654.447     7474.544        4.480        2.052      220.356       64.922        0.087      347.171       25.945      861.674
05/26/2014  11:12:00      -80.519     -126.364       -4.425      112.354      149.132       70.207    12623.329    22240.353     4928.960        3.112        1.990      149.837       60.366        0.162      347.152       25.912      861.706
05/26/2014  11:13:00      -95.947      -51.847        2.036       65.485       52.034       34.233     4288.264     2707.578     1171.916        1.003        0.408      109.059       24.666        0.051      347.277       26.129      861.762
05/26/2014  11:14:00      -19.062      -41.060        6.819       83.890       52.496       42.192     7037.521     2755.828     1780.183        0.683        0.579       45.269       56.377        1.551      347.352       26.259      861.759
05/26/2014  11:15:00      -70.983      -16.200       -0.576       39.234       59.158       31.080     1539.344     3499.684      965.946        0.565        0.300       72.808       12.458        0.029      346.895       25.472      861.759
05/26/2014  11:16:00      -22.167      -28.574      -23.142       45.117       70.577       37.549     2035.523     4981.068     1409.915        0.513        0.421       36.164       25.911        0.513      346.758       25.235      861.742
05/26/2014  11:17:00       47.328        5.077       26.758       46.534      108.016       41.398     2165.384    11667.386     1713.772        0.926        0.777       47.599       26.804        0.317      347.110       25.840      861.686
05/26/2014  11:18:00       58.520     -159.408      -17.671       62.538       55.025       33.330     3911.030     3027.751     1110.915        1.860        0.402      169.810       26.172        0.024      346.831       25.359      861.643
05/26/2014  11:19:00      -84.730     -116.172       -5.230       62.011       50.619       34.026     3845.369     2562.307     1157.773        1.413        0.378      143.788       29.793        0.043      346.918       25.512      861.672
05/26/2014  11:20:00     -121.388      -57.511       13.938       93.103       60.790       43.555     8668.234     3695.385     1897.014        1.625        0.713      134.323       32.390        0.058      347.048       25.734      861.715
05/26/2014  11:21:00      -92.446      -63.259      -10.618       58.384       43.719       30.159     3408.649     1911.312      909.580        0.944        0.311      112.018       28.060        0.063      346.953       25.571      861.698
05/26/2014  11:22:00      -99.043      -43.390       -3.292       94.211       51.502       36.542     8875.654     2652.413     1335.336        1.228        0.643      108.131       39.557        0.134      347.268       26.113      861.700
05/26/2014  11:23:00      -59.745       18.637       34.817       98.585       87.570       51.771     9718.946     7668.425     2680.215        1.259        1.003       62.585       57.546        0.845      347.694       26.849      861.627
05/26/2014  11:24:00      -68.888       79.864       26.613      102.924       95.320       65.741    10593.331     9085.890     4321.870        1.791        1.200      105.469       56.877        0.291      347.705       26.867      861.518
05/26/2014  11:25:00     -259.027      -80.430      -13.592      138.740      122.784       58.099    19248.866    15075.866     3375.471        5.572        1.885      271.227       61.862        0.052      347.444       26.414      861.503
05/26/2014  11:26:00      -52.225       -2.935        1.576      135.307       87.087       56.213    18307.945     7584.185     3159.955        1.589        1.453       52.307       47.413        0.822      347.572       26.637      861.426
05/26/2014  11:27:00      -26.903     -247.037        7.669       68.970       98.287       50.061     4756.918     9660.296     2506.110        3.936        0.846      248.497       31.162        0.016      347.376       26.295      861.361
05/26/2014  11:28:00     -116.870     -324.262      -26.367      124.441      136.097       60.559    15485.667    18522.432     3667.368        7.858        1.884      344.680       43.686        0.016      347.266       26.106      861.437
05/26/2014  11:29:00      -69.953      -28.910        2.553       63.599      100.235       39.530     4044.826    10047.080     1562.654        1.069        0.783       75.692       47.548        0.395      347.321       26.206      861.490
05/26/2014  11:30:00      -20.315       48.559       93.489       24.691       52.492       40.393      609.624     2755.404     1631.574        0.825        0.250       52.637       37.349        0.503      347.835       27.094      861.505
05/26/2014  11:31:00      -97.299       -7.489       24.449       96.592       52.493       39.990     9329.985     2755.557     1599.177        1.190        0.684       97.587       52.263        0.287      347.983       27.347      861.519
05/26/2014  11:32:00     -112.182     -108.849        1.688       93.533       86.779       54.716     8748.514     7530.662     2993.857        2.185        0.964      156.310       48.305        0.096      347.562       26.619      861.540
05/26/2014  11:33:00     -187.137     -169.282        9.177      124.713      125.146       58.205    15553.301    15661.558     3387.849        4.917        1.730      252.342       72.270        0.082      347.704       26.863      861.584
05/26/2014  11:34:00     -183.788     -100.126       10.878      102.453       84.385       44.727    10496.595     7120.839     2000.477        3.177        0.981      209.293       33.533        0.026      347.628       26.732      861.645
05/26/2014  11:35:00     -316.287      -92.202       -4.116      146.277      128.401       63.406    21397.084    16486.793     4020.293        7.522        2.095      329.452       74.743        0.051      347.501       26.513      861.672
05/26/2014  11:36:00     -181.231      -43.957       -6.640      190.436      111.964       50.111    36265.835    12535.993     2511.093        4.306        2.566      186.486       76.462        0.168      347.377       26.300      861.650
05/26/2014  11:37:00        5.182       24.185       16.340       92.542      113.451       43.814     8563.972    12871.214     1919.624        1.211        1.168       24.734       51.667        4.364      347.896       27.198      861.601
05/26/2014  11:38:00     -102.446       25.189       19.998      123.748       71.565       59.990    15313.650     5121.577     3598.818        1.778        1.202      105.497       58.765        0.310      348.001       27.378      861.546
05/26/2014  11:39:00     -349.843     -177.357       -2.205      310.494      184.758       95.227    96406.716    34135.566     9068.236       14.670        6.981      392.231      116.903        0.089      347.741       26.928      861.530
05/26/2014  11:40:00     -247.041     -191.547      -20.144      188.398      139.056       80.159    35493.858    19336.650     6425.455        7.968        3.063      312.601       93.647        0.090      347.650       26.769      861.494
05/26/2014  11:41:00     -334.740     -205.274       -4.375      236.922      215.490      104.128    56132.141    46435.775    10842.672       13.379        5.671      392.668      121.181        0.095      347.819       27.061      861.467
05/26/2014  11:42:00     -375.452     -159.688        1.191      282.416      202.365      114.755    79758.629    40951.768    13168.684       15.015        6.694      408.001      136.787        0.112      347.715       26.881      861.499
05/26/2014  11:43:00     -258.823     -168.154       14.924      263.515      229.498      118.760    69440.408    52669.531    14103.995       11.582        6.811      308.650      145.017        0.221      347.876       27.160      861.461
05/26/2014  11:44:00     -563.955     -340.841      -36.145      218.113      203.369      102.535    47573.420    41358.903    10513.493       26.746        4.972      658.952      116.630        0.031      347.536       26.573      861.496
05/26/2014  11:45:00     -284.516     -141.742       17.416      194.575      131.645       95.028    37859.464    17330.358     9030.266        8.277        3.211      317.869      103.317        0.106      347.719       26.889      861.474
05/26/2014  11:46:00     -272.957     -233.755       10.156      208.357      143.716       93.487    43412.651    20654.330     8739.743       10.101        3.640      359.370      100.256        0.078      347.570       26.631      861.426
05/26/2014  11:47:00     -417.535     -348.583       -6.211      279.678      228.759       99.920    78219.719    52330.829     9983.922       21.818        7.027      543.917      103.809        0.036      347.513       26.532      861.370
05/26/2014  11:48:00     -356.007     -306.349      -24.587      220.128      166.188       98.417    48456.529    27618.552     9685.924       15.346        4.288      469.671      104.818        0.050      347.598       26.679      861.373
05/26/2014  11:49:00     -324.840     -274.314        0.067      224.323      210.847      118.874    50320.877    44456.481    14131.011       14.482        5.445      425.170      106.820        0.063      347.660       26.786      861.350
05/26/2014  11:50:00     -423.808     -205.535       -0.967      289.899      187.625      120.462    84041.387    35203.117    14510.999       17.778        6.688      471.018      129.848        0.076      347.682       26.824      861.332
05/26/2014  11:51:00     -350.242     -143.888       13.014      244.615      201.099      105.411    59836.265    40440.913    11111.394       12.744        5.569      378.646      121.507        0.103      347.791       27.013      861.320
05/26/2014  11:52:00     -545.426     -304.630      -17.724      245.540      187.106       96.391    60289.992    35008.622     9291.307       24.758        5.229      624.731       94.140        0.023      347.651       26.770      861.301
05/26/2014  11:53:00     -357.946     -174.715        4.531      253.473      255.289      117.866    64248.441    65172.714    13892.316       15.096        7.166      398.310      142.221        0.127      347.820       27.064      861.308
05/26/2014  11:54:00     -287.706     -180.213        1.267      197.890      173.742       91.705    39160.422    30186.353     8409.729        9.649        3.888      339.487       98.441        0.084      347.897       27.196      861.330
05/26/2014  11:55:00     -334.940     -170.799       -3.948      182.715      163.713       86.416    33384.811    26801.838     7467.795       10.450        3.383      375.974       86.309        0.053      347.851       27.116      861.349
05/26/2014  11:56:00     -425.576     -111.611        1.722      222.634      190.324       91.925    49565.708    36223.379     8450.135       14.389        4.712      439.968      106.092        0.058      347.915       27.226      861.347
05/26/2014  11:57:00     -311.806     -274.279        3.655      160.079      165.836       98.077    25625.143    27501.498     9619.182       11.759        3.137      415.273       99.041        0.057      347.785       27.001      861.352
05/26/2014  11:58:00     -493.575     -250.202      -25.877      236.453      197.228      102.830    55910.146    38898.888    10573.981       20.611        5.269      553.369      122.571        0.049      347.646       26.763      861.348
05/26/2014  11:59:00     -553.097     -245.643      -27.954      301.386      219.711      100.578    90833.242    48272.937    10115.873       25.810        7.461      605.191      121.419        0.040      347.624       26.725      861.361
05/26/2014  12:00:00     -573.629     -187.753      -21.774      236.953      189.663      115.692    56146.771    35971.937    13384.560       23.512        5.275      603.574      121.015        0.040      347.581       26.650      861.327
05/26/2014  12:01:00     -576.583     -155.395      -43.766      210.337      287.655      112.555    44241.607    82745.563    12668.727       24.905        6.983      597.156      108.388        0.033      347.619       26.715      861.330
05/26/2014  12:02:00     -257.560     -204.789        5.484      239.048      284.406       93.962    57144.083    80886.633     8828.870       12.755        7.343      329.053      124.360        0.143      347.906       27.212      861.313
05/26/2014  12:03:00     -421.519     -231.275       -1.206      220.045      177.076       92.397    48419.609    31355.982     8537.144       15.972        4.416      480.797      113.874        0.056      347.687       26.832      861.288
05/26/2014  12:04:00     -395.970     -252.938      -17.898      203.294      199.951       83.690    41328.342    39980.450     7004.029       15.468        4.416      469.861       93.092        0.039      347.740       26.923      861.264
05/26/2014  12:05:00     -365.285     -329.162       16.202      226.218      183.541      107.231    51174.534    33687.296    11498.534       16.918        4.818      491.712      111.173        0.051      347.652       26.772      861.232
05/26/2014  12:06:00     -335.776      -58.013      -26.756      227.735      154.248       79.711    51863.202    23792.535     6353.911        9.940        4.100      340.751       99.211        0.085      347.968       27.319      861.204
05/26/2014  12:07:00     -336.626     -138.283        7.401      214.271      227.023       91.397    45911.901    51539.576     8353.438       11.913        5.290      363.922      112.630        0.096      347.930       27.252      861.182
05/26/2014  12:08:00     -514.008     -268.542      -25.344      299.976      181.297      108.203    89985.472    32868.450    11707.846       23.573        6.728      579.930      119.525        0.042      347.747       26.936      861.176
05/26/2014  12:09:00     -599.831     -336.710       -3.117      282.565      249.101      124.961    79842.815    62051.365    15615.294       31.531        7.875      687.874      145.508        0.045      347.625       26.725      861.156
05/26/2014  12:10:00     -404.064     -222.157      -20.641      225.216      154.979      100.025    50722.419    24018.473    10004.942       14.888        4.237      461.109       90.733        0.039      347.684       26.829      861.177
05/26/2014  12:11:00     -130.002     -111.087       17.029      168.830      149.030       75.755    28503.436    22209.963     5738.771        4.298        2.823      171.000       74.646        0.191      348.165       27.660      861.188
05/26/2014  12:12:00     -277.942     -133.254       -5.505      132.626      107.018       65.527    17589.730    11452.914     4293.813        6.418        1.667      308.234       66.743        0.047      347.813       27.050      861.187
05/26/2014  12:13:00     -209.187     -190.727       -0.687      145.491      147.275       76.932    21167.626    21689.849     5918.496        6.445        2.439      283.083       81.386        0.083      347.881       27.169      861.182
05/26/2014  12:14:00     -314.944     -291.076        4.123      208.501      182.812       93.707    43472.747    33420.246     8781.036       13.479        4.284      428.853      102.854        0.058      347.834       27.087      861.153
05/26/2014  12:15:00     -311.290     -234.428       -3.545      190.502      149.842       95.503    36291.084    22452.740     9120.790       10.985        3.393      389.689       98.966        0.064      348.069       27.493      861.171
05/26/2014  12:16:00     -429.286     -293.260       -0.807      282.571      233.429      121.568    79846.314    54488.962    14778.676       20.967        7.456      519.893      156.338        0.090      347.865       27.140      861.156
05/26/2014  12:17:00     -419.939     -292.869        5.632      247.737      209.229      105.845    61373.533    43776.634    11203.124       18.923        5.818      511.978       92.835        0.033      347.681       26.823      861.136
05/26/2014  12:18:00     -207.183     -114.311       12.281      137.443      143.867       78.537    18890.458    20697.818     6168.100        5.094        2.288      236.626       66.180        0.078      348.068       27.492      861.132
05/26/2014  12:19:00     -321.705     -153.345        7.136      273.722      153.723       99.502    74923.896    23630.710     9900.608       11.774        5.423      356.383      120.730        0.115      348.051       27.461      861.143
05/26/2014  12:20:00     -438.034     -289.341        3.576      246.055      221.606      112.465    60543.152    49109.231    12648.403       19.893        6.115      524.969      131.017        0.062      347.889       27.183      861.129
05/26/2014  12:21:00     -351.590     -207.280       -6.740      244.367      168.063       80.786    59715.461    28245.163     6526.330       13.054        4.724      408.143       94.115        0.053      347.881       27.168      861.148
05/26/2014  12:22:00     -541.777     -254.308      -18.724      252.755      194.637       99.615    63884.897    37883.478     9923.206       23.510        5.585      598.494      102.756        0.029      347.783       27.000      861.187
05/26/2014  12:23:00     -305.754     -136.650       -6.662      208.293      155.371       61.049    43386.168    24140.302     3727.014        9.171        3.563      334.901       75.053        0.050      347.617       26.713      861.155
05/26/2014  12:24:00     -237.439     -203.132       -9.622      188.823      157.491       66.319    35654.188    24803.458     4398.159        8.128        3.243      312.474       59.512        0.036      347.994       27.364      861.141
05/26/2014  12:25:00     -218.548     -166.168       24.017      172.320      164.655       93.735    29694.098    27111.106     8786.188        7.076        3.280      274.545       96.115        0.123      348.136       27.609      861.150
05/26/2014  12:26:00     -311.490     -131.766        5.743      198.061      195.847       79.606    39228.076    38356.210     6337.059        9.915        4.196      338.213       92.580        0.075      348.090       27.529      861.143
05/26/2014  12:27:00     -296.071     -193.305       -3.390      179.837      177.848       87.220    32341.370    31629.825     7607.247        9.829        3.579      353.589       75.582        0.046      347.978       27.336      861.104
05/26/2014  12:28:00     -201.872     -158.330       13.384      200.746      147.834       73.352    40298.793    21854.993     5380.471        6.675        3.377      256.555       89.280        0.121      348.140       27.617      861.071
05/26/2014  12:29:00     -453.961      -95.996      -13.521      275.450      196.501      104.792    75872.606    38612.537    10981.435       17.045        6.273      464.000      117.271        0.064      348.065       27.487      861.073
05/26/2014  12:30:00     -254.818     -134.165       -0.019      152.948      122.373       73.107    23393.042    14975.191     5344.635        6.331        2.186      287.980       76.515        0.071      348.363       28.000      861.088
05/26/2014  12:31:00     -353.337     -117.911       -1.455      174.240      141.158       94.192    30359.670    19925.576     8872.219        9.894        2.958      372.492       87.322        0.055      348.230       27.770      861.111
05/26/2014  12:32:00     -364.661     -187.763      -19.404      253.152      197.559       87.852    64086.179    39029.363     7717.904       13.970        5.542      410.162       94.868        0.053      348.084       27.517      861.119
05/26/2014  12:33:00     -594.248     -197.852      -25.901      264.857      228.765      102.795    70148.975    52333.327    10566.792       26.297        6.652      626.320      112.160        0.032      348.054       27.466      861.113
05/26/2014  12:34:00     -659.853     -193.197      -37.037      293.551      255.687      132.522    86172.267    65376.027    17562.063       32.157        8.456      687.554      160.758        0.055      347.832       27.084      861.113
05/26/2014  12:35:00     -511.563     -254.255      -18.444      196.118      149.233      101.266    38462.336    22270.530    10254.871       19.882        3.549      571.264      105.496        0.034      347.838       27.093      861.187
05/26/2014  12:36:00     -326.979     -310.573       -8.464      154.204      141.569       90.650    23779.008    20041.922     8217.449       12.773        2.602      450.967       82.653        0.034      347.592       26.669      861.171
05/26/2014  12:37:00     -441.777     -276.692      -22.791      207.738      146.057       89.232    43155.006    21332.776     7962.359       17.233        3.623      521.273       97.022        0.035      347.770       26.976      861.104
05/26/2014  12:38:00     -350.824     -317.594      -22.243      215.323      171.354      101.099    46363.902    29362.272    10221.108       15.518        4.297      473.227      114.211        0.058      348.022       27.412      861.096
05/26/2014  12:39:00     -233.719     -155.725       17.089      175.353      128.032       65.463    30748.511    16392.232     4285.426        6.529        2.571      280.846       81.219        0.084      348.174       27.674      861.102
05/26/2014  12:40:00     -301.334      -77.435        3.598      167.856      124.416       74.672    28175.770    15479.275     5575.890        7.301        2.462      311.124       80.959        0.068      348.056       27.471      861.087
05/26/2014  12:41:00     -347.691     -311.281       -2.507      206.366      190.899       92.467    42586.870    36442.490     8550.056       15.267        4.379      466.674      108.126        0.054      348.085       27.520      861.086
05/26/2014  12:42:00     -439.619     -134.789        2.795      241.412      227.394      110.667    58279.961    51707.962    12247.244       16.681        6.112      459.818      124.303        0.073      348.166       27.661      861.052
05/26/2014  12:43:00     -363.776     -201.692       14.733      237.163      183.677      102.975    56246.360    33737.133    10603.749       13.689        5.029      415.948      119.808        0.083      348.322       27.930      861.086
05/26/2014  12:44:00     -520.081     -288.903      -12.201      284.427      201.926      106.584    80898.442    40774.297    11360.238       24.354        6.652      594.936      135.650        0.052      348.096       27.538      861.091
05/26/2014  12:45:00     -480.423      -89.529      -14.318      213.793      180.024       92.357    45707.597    32408.790     8529.846       16.282        4.332      488.694       93.497        0.037      347.905       27.210      861.134
05/26/2014  12:46:00     -403.805      -73.389       -2.401      185.703      158.452       72.151    34485.710    25107.071     5205.726       11.661        3.240      410.420       72.115        0.031      348.025       27.416      861.089
05/26/2014  12:47:00     -370.555     -113.063       -1.479      183.393      152.271       77.934    33633.003    23186.368     6073.694       10.648        3.145      387.419       82.870        0.046      348.079       27.511      861.090
05/26/2014  12:48:00     -328.272      -44.271        6.262      159.631      164.539       86.111    25482.046    27073.082     7415.161        8.485        2.999      331.244       85.916        0.067      348.330       27.944      861.095
05/26/2014  12:49:00     -280.341      -48.599        1.008      260.466      195.772       88.305    67842.545    38326.553     7797.811        9.744        5.698      284.522      108.621        0.146      348.469       28.185      861.084
05/26/2014  12:50:00     -456.920     -373.478      -12.345      272.789      170.847      103.163    74413.671    29188.750    10642.685       23.131        5.712      590.137       83.862        0.020      347.971       27.324      861.093
05/26/2014  12:51:00     -482.625     -257.084      -24.514      240.371      215.333       97.373    57778.059    46368.180     9481.591       20.660        5.681      546.826      109.893        0.040      347.887       27.179      861.095
05/26/2014  12:52:00     -287.471     -203.737       12.864      183.991      129.417       87.766    33852.675    16748.680     7702.820        9.130        2.915      352.347       99.404        0.080      348.107       27.558      861.089
05/26/2014  12:53:00     -391.552     -291.535       -2.358      213.865      182.871      100.217    45738.116    33441.854    10043.543       16.375        4.461      488.166      114.773        0.055      348.104       27.552      861.075
05/26/2014  12:54:00     -348.182     -258.196      -12.116      151.191      183.569       87.859    22858.782    33697.407     7719.125       12.615        3.214      433.469       84.374        0.038      348.279       27.855      861.085
05/26/2014  12:55:00     -517.804     -255.572      -21.940      254.089      198.127       96.992    64561.156    39254.238     9407.532       22.355        5.661      577.441      100.162        0.030      348.328       27.939      861.126
05/26/2014  12:56:00     -416.487     -317.048       -8.020      246.041      204.737       99.580    60535.999    41917.233     9916.164       19.318        5.618      523.432      116.354        0.049      348.107       27.558      861.133
05/26/2014  12:57:00     -521.643     -242.578      -27.972      161.935      215.907       91.535    26223.091    46615.704     8378.692       20.646        4.061      575.287       95.915        0.028      347.940       27.269      861.110
05/26/2014  12:58:00     -338.444     -159.049       -0.638      182.478      166.846       92.554    33298.199    27837.656     8566.228       10.476        3.485      373.953       86.929        0.054      348.184       27.691      861.113
05/26/2014  12:59:00     -375.645       17.831        2.263      210.609      180.811      108.662    44356.299    32692.567    11807.323       11.513        4.443      376.068      116.945        0.097      348.220       27.752      861.079
05/26/2014  13:00:00     -489.318     -280.704       -6.332      229.014      210.252      110.655    52447.240    44205.801    12244.467       21.356        5.445      564.116      129.321        0.053      348.230       27.772      861.090
05/26/2014  13:01:00     -474.035     -215.167       -4.146      283.289      185.459      101.259    80252.559    34395.142    10253.433       19.794        6.245      520.583      122.157        0.055      348.147       27.627      861.121
05/26/2014  13:02:00     -451.847     -387.183       -9.492      257.517      211.230      105.742    66315.119    44618.014    11181.442       23.812        6.106      595.043      118.445        0.040      348.099       27.544      861.120
05/26/2014  13:03:00     -323.066     -315.359        3.064      218.280      253.505      100.196    47646.334    64264.722    10039.305       16.287        6.098      451.468      110.230        0.060      348.140       27.615      861.174
05/26/2014  13:04:00     -301.952     -190.852       10.587      223.827      157.584       96.004    50098.744    24832.723     9216.827       10.591        4.207      357.211      116.634        0.107      348.178       27.681      861.175
05/26/2014  13:05:00     -285.618     -257.544      -16.478      177.779      135.290       77.961    31605.212    18303.362     6077.917       10.207        2.799      384.586       69.940        0.033      348.070       27.495      861.152
05/26/2014  13:06:00     -161.312     -171.930       20.862      241.828      152.087       83.503    58480.740    23130.312     6972.818        7.228        4.429      235.757       95.075        0.163      348.459       28.169      861.170
05/26/2014  13:07:00     -250.686     -213.239       -0.091      196.523      144.910       70.439    38621.407    20999.036     4961.644        8.644        3.229      329.112       80.209        0.059      347.998       27.370      861.152
05/26/2014  13:08:00     -128.345     -281.378       -0.370      124.973      163.098       70.330    15618.280    26600.965     4946.348        7.140        2.358      309.267       68.295        0.049      348.240       27.788      861.148
05/26/2014  13:09:00     -248.380      -89.393       15.749      162.955      146.132       80.188    26554.425    21354.704     6430.087        6.212        2.717      263.977       94.270        0.128      348.402       28.067      861.115
05/26/2014  13:10:00     -254.838      -74.393       -4.248      117.376      133.395       60.643    13777.134    17794.097     3677.543        5.286        1.762      265.475       62.322        0.055      347.952       27.291      861.061
05/26/2014  13:11:00     -360.189     -182.886       -0.235      191.813      164.914       75.153    36792.192    27196.708     5647.943       11.640        3.482      403.960       77.915        0.037      348.118       27.577      861.032
05/26/2014  13:12:00     -273.275     -268.598      -33.755      219.788      170.322       89.870    48306.549    29009.518     8076.543       11.666        4.270      383.176       83.533        0.048      348.045       27.452      861.042
05/26/2014  13:13:00     -219.683     -266.861      -12.819      228.566      162.367       97.957    52242.434    26363.008     9595.532       10.390        4.410      345.652       76.735        0.049      348.376       28.024      861.003
05/26/2014  13:14:00     -419.360     -217.828       21.110      226.760      188.891       96.334    51420.149    35679.987     9280.308       16.005        4.819      472.559       96.459        0.042      348.447       28.146      861.026
05/26/2014  13:15:00     -255.585     -220.971        1.245      188.372      198.204       89.047    35483.964    39284.898     7929.431        9.841        4.135      337.864       89.643        0.070      348.284       27.864      861.028
05/26/2014  13:16:00     -119.608     -312.893       14.497      144.626      230.855       81.206    20916.687    53294.122     6594.438        9.660        4.040      334.975       79.451        0.056      348.295       27.883      861.046
05/26/2014  13:17:00     -225.151      -84.871       10.982      166.256      145.808       80.713    27641.008    21260.079     6514.641        5.671        2.771      240.616       72.696        0.091      348.441       28.136      861.050
05/26/2014  13:18:00     -381.664     -128.882       -5.984      152.005      141.089       71.100    23105.412    19906.100     5055.222       10.518        2.403      402.837       76.416        0.036      348.383       28.035      861.049
05/26/2014  13:19:00      -97.878      -96.361        4.327      131.617      103.707       62.362    17323.115    10755.136     3889.033        2.542        1.598      137.352       42.052        0.094      348.675       28.541      861.057
05/26/2014  13:20:00      -91.587     -111.497        4.001      110.500      105.997       56.013    12210.273    11235.374     3137.424        2.370        1.329      144.290       53.132        0.136      348.688       28.565      861.027
05/26/2014  13:21:00     -330.889      -61.920       -2.824      172.595      119.363       71.498    29789.175    14247.588     5111.984        8.123        2.457      336.633       82.158        0.060      348.821       28.793      860.985
05/26/2014  13:22:00     -542.853     -329.867      -25.366      278.621      208.527      113.079    77629.774    43483.317    12786.894       26.900        6.695      635.218      131.702        0.043      348.135       27.608      861.003
05/26/2014  13:23:00     -465.247     -266.524      -13.539      296.145      198.945      112.327    87701.782    39579.115    12617.344       21.376        6.995      536.181      149.578        0.078      348.004       27.380      860.979
05/26/2014  13:24:00     -346.953      -70.880       18.610      248.797      176.810      102.719    61900.134    31261.661    10551.173       11.471        5.186      354.119      129.040        0.133      348.276       27.851      860.975
05/26/2014  13:25:00     -364.328     -316.217      -23.732      168.202      195.242       82.673    28291.745    38119.413     6834.833       15.325        3.662      482.419       84.781        0.031      348.337       27.958      860.980
05/26/2014  13:26:00     -174.017     -243.669        0.885      141.846      136.894       72.797    20120.350    18739.938     5299.331        6.690        2.208      299.427       77.506        0.067      348.417       28.094      860.950
05/26/2014  13:27:00     -203.993     -236.905        3.014      157.756      146.945       77.996    24886.873    21592.784     6083.314        7.514        2.628      312.629       76.406        0.060      348.422       28.103      860.929
05/26/2014  13:28:00     -288.863     -292.021        0.066      198.801      183.608       78.020    39521.820    33711.890     6087.173       12.400        3.966      410.753       81.761        0.040      348.534       28.296      860.939
05/26/2014  13:29:00     -411.864     -331.580       -1.997      261.900      197.087      106.252    68591.778    38843.118    11289.505       19.913        5.936      528.751      125.867        0.057      348.150       27.633      860.907
05/26/2014  13:30:00     -476.088     -298.397        2.931      289.948      230.746      134.359    84069.762    53243.668    18052.435       23.551        7.768      561.873      140.160        0.062      348.165       27.658      860.909
05/26/2014  13:31:00     -565.662     -393.333       -8.840      268.861      212.563      112.077    72286.055    45183.061    12561.317       30.237        6.502      688.973      113.211        0.027      347.992       27.360      860.872
05/26/2014  13:32:00     -412.460     -294.627       -0.353      266.904      215.953      133.948    71237.975    46635.889    17941.944       19.634        6.791      506.881      145.197        0.082      348.115       27.573      860.886
05/26/2014  13:33:00     -482.217     -343.133       -0.323      249.859      176.004      106.410    62429.415    30977.517    11323.127       22.748        5.237      591.839      123.757        0.044      347.981       27.340      860.884
05/26/2014  13:34:00     -279.659     -153.883       13.924      243.548      143.772       86.055    59315.680    20670.409     7405.385        9.472        4.370      319.201      109.024        0.117      348.227       27.767      860.831
05/26/2014  13:35:00     -465.150     -178.341        7.576      275.966      224.407      122.028    76157.142    50358.461    14890.894       19.479        7.070      498.167      143.702        0.083      348.145       27.624      860.806
05/26/2014  13:36:00     -334.274     -199.151       -7.282      278.010      234.316      100.788    77289.754    54903.843    10158.294       14.687        7.118      389.101      128.698        0.109      348.406       28.076      860.853
05/26/2014  13:37:00     -338.217     -186.157       -2.367      217.047      131.775       90.074    47109.231    17364.722     8113.290       11.080        3.629      386.064      102.516        0.071      348.617       28.441      860.827
05/26/2014  13:38:00     -495.527     -218.417       -3.831      298.064      193.884       97.438    88842.139    37590.835     9494.208       21.457        6.796      541.528      119.217        0.048      348.376       28.024      860.842
05/26/2014  13:39:00     -492.316     -290.378        4.155      260.071      209.702      108.134    67636.751    43974.839    11692.958       22.498        6.165      571.572      132.041        0.053      347.913       27.225      860.775
05/26/2014  13:40:00     -276.851     -510.763      -14.951      280.685      268.298      107.024    78783.792    71983.654    11454.240       24.995        8.111      580.969      122.494        0.044      348.148       27.630      860.816
05/26/2014  13:41:00     -423.891     -309.980      -30.239      266.627      237.694       95.911    71089.775    56498.575     9198.835       20.671        6.839      525.140       99.803        0.036      348.281       27.858      860.846
05/26/2014  13:42:00     -466.814     -293.990       -6.549      272.729      177.620      102.509    74381.029    31549.014    10508.102       21.039        5.822      551.676      116.281        0.044      348.144       27.621      860.863
05/26/2014  13:43:00     -298.804     -222.140       15.132      215.748      222.020      101.710    46547.308    49292.955    10344.986       12.250        5.309      372.331      121.382        0.106      348.182       27.687      860.905
05/26/2014  13:44:00     -413.370     -301.671       -7.036      193.485      166.852       85.823    37436.349    27839.702     7365.546       16.727        3.632      511.742       96.345        0.035      348.095       27.537      860.891
05/26/2014  13:45:00     -395.015     -195.741      -16.199      204.447      164.093       87.491    41798.697    26926.613     7654.733       13.548        3.819      440.853       97.158        0.049      348.181       27.687      860.915
05/26/2014  13:46:00     -415.100     -289.340      -21.301      232.377      163.951       91.005    53999.084    26880.060     8281.857       17.280        4.458      505.990      102.767        0.041      348.023       27.413      860.881
05/26/2014  13:47:00     -438.124     -263.612      -14.694      176.159      153.121       93.237    31032.142    23446.062     8693.199       16.240        3.159      511.315       92.291        0.033      348.227       27.766      860.875
05/26/2014  13:48:00     -539.558     -331.454      -27.626      312.564      178.500      117.639    97696.329    31862.304    13839.015       27.254        7.170      633.233      142.868        0.051      347.846       27.106      860.870
05/26/2014  13:49:00     -289.697     -168.699        4.676      167.360      133.930       82.337    28009.331    17937.123     6779.349        8.256        2.636      335.237       73.608        0.048      348.003       27.378      860.849
05/26/2014  13:50:00     -289.529     -146.280       -7.316      111.827      126.145       71.239    12505.339    15912.437     5074.929        6.938        1.675      324.384       69.786        0.046      348.134       27.605      860.808
05/26/2014  13:51:00     -326.699     -183.229        5.247      217.225      207.226       83.956    47186.522    42942.576     7048.550       11.874        4.859      374.573      103.255        0.076      348.444       28.142      860.839
05/26/2014  13:52:00     -627.049     -300.100      -36.526      304.405      254.627      130.091    92662.307    64834.833    16923.640       32.947        8.721      695.162      153.950        0.049      348.213       27.740      860.804
05/26/2014  13:53:00     -448.734     -289.625       -6.782      264.630      255.904      123.847    70028.851    65486.630    15338.087       21.804        7.543      534.083      140.896        0.070      347.976       27.331      860.864
05/26/2014  13:54:00     -508.576     -230.780      -17.582      258.766      193.784       99.572    66959.805    37552.344     9914.549       21.330        5.721      558.487      107.273        0.037      347.922       27.240      860.831
05/26/2014  13:55:00     -456.674     -251.232      -12.326      231.004      203.176      108.751    53362.624    41280.430    11826.830       18.912        5.323      521.219      123.926        0.057      348.076       27.504      860.794
05/26/2014  13:56:00     -124.742     -202.565        9.264      249.713      218.531       97.174    62356.746    47755.751     9442.813        8.809        5.978      237.893      104.879        0.194      348.268       27.838      860.751
05/26/2014  13:57:00     -301.961     -232.774        1.412      234.527      191.922      106.610    55002.854    36833.934    11365.623       12.426        5.160      381.267       99.635        0.068      348.583       28.381      860.718
05/26/2014  13:58:00     -478.178      -90.986       13.725      232.137      199.675      106.179    53887.781    39870.128    11273.945       17.106        5.252      486.757      106.396        0.048      348.439       28.133      860.778
05/26/2014  13:59:00     -421.011     -266.404        5.290      244.325      189.862      108.691    59694.945    36047.721    11813.821       17.788        5.378      498.218      117.819        0.056      348.286       27.866      860.805
05/26/2014  14:00:00     -481.264     -273.515       -8.129      282.081      226.287      109.324    79569.551    51206.003    11951.635       22.458        7.136      553.557      137.315        0.062      348.249       27.804      860.797
05/26/2014  14:01:00     -328.942     -261.229      -10.466      204.777      182.232      103.193    41933.780    33208.542    10648.784       13.115        4.290      420.052      115.180        0.075      348.293       27.879      860.824
05/26/2014  14:02:00     -367.257     -189.892       -3.829      218.022      154.650       83.333    47533.706    23916.565     6944.464       12.466        3.920      413.445       92.580        0.050      348.209       27.734      860.774
05/26/2014  14:03:00     -240.773      -93.356       21.892      143.156      123.484       77.698    20493.719    15248.232     6036.990        5.446        2.089      258.238       59.641        0.053      348.425       28.108      860.770
05/26/2014  14:04:00     -207.598     -326.477       14.172      203.298      249.871       97.095    41330.218    62435.535     9427.481       13.152        5.660      386.890      121.070        0.098      348.355       27.987      860.788
05/26/2014  14:05:00     -302.135     -236.714       -3.595      210.762      168.672       85.719    44420.747    28450.097     7347.679       11.376        4.011      383.821       88.070        0.053      348.349       27.977      860.737
05/26/2014  14:06:00     -122.372     -119.358       13.754      118.957      157.769       59.606    14150.845    24890.945     3552.929        3.599        2.130      170.942       52.147        0.093      348.494       28.229      860.756
05/26/2014  14:07:00     -383.158     -208.630        1.932      194.494      264.327      108.204    37827.731    69868.653    11708.191       15.485        5.970      436.276      111.061        0.065      348.497       28.232      860.786
05/26/2014  14:08:00     -450.624     -293.793        4.087      270.505      180.752      117.843    73172.741    32671.256    13886.864       20.454        5.987      537.937      125.342        0.054      348.252       27.808      860.799
05/26/2014  14:09:00     -506.776     -308.408      -23.838      238.278      192.243      100.479    56776.373    36957.299    10095.991       22.815        5.191      593.243      104.724        0.031      348.245       27.797      860.810
05/26/2014  14:10:00     -608.481     -327.116      -42.180      251.745      222.633      116.629    63375.472    49565.451    13602.307       30.276        6.327      690.836      119.482        0.030      348.148       27.627      860.832
05/26/2014  14:11:00     -509.778     -351.485      -12.371      268.853      169.232      104.919    72281.796    28639.312    11008.006       24.773        5.596      619.205       98.814        0.025      347.936       27.261      860.781
05/26/2014  14:12:00     -516.874     -252.368       -1.132      289.010      195.453      113.088    83526.707    38201.735    12788.910       23.266        6.726      575.194      132.523        0.053      348.116       27.573      860.768
05/26/2014  14:13:00     -431.300     -111.327      -32.650      204.649      166.939       93.775    41881.346    27868.535     8793.792       13.900        3.927      445.436       97.906        0.048      348.377       28.026      860.805
05/26/2014  14:14:00     -618.094     -155.147      -48.158      202.548      189.476       95.208    41025.702    35901.236     9064.609       24.719        4.300      637.268      103.518        0.026      348.143       27.621      860.785
05/26/2014  14:15:00     -695.309     -158.030      -20.658      282.187      188.482      112.618    79629.762    35525.429    12682.805       31.832        6.392      713.041      126.022        0.031      348.037       27.438      860.785
05/26/2014  14:16:00     -385.714     -238.309      -23.671      186.551      183.489       90.952    34801.251    33668.050     8272.181       14.142        3.837      453.395       90.564        0.040      347.992       27.359      860.831
05/26/2014  14:17:00     -248.201     -275.255        2.250      199.714      152.552       83.471    39885.678    23272.012     6967.411       10.374        3.506      370.634       87.550        0.056      348.000       27.372      860.794
05/26/2014  14:18:00     -350.459     -237.653        8.885      249.173      151.013       79.981    62087.094    22804.886     6396.941       13.532        4.564      423.439       96.020        0.051      348.115       27.573      860.742
05/26/2014  14:19:00     -262.612      -75.217        7.585      174.675      156.504       71.839    30511.202    24493.408     5160.809        6.741        3.008      273.172       73.280        0.072      348.466       28.179      860.737
05/26/2014  14:20:00     -205.555      -69.980        3.704      122.759      126.857       68.096    15069.869    16092.634     4637.073        4.147        1.790      217.141       69.131        0.101      348.643       28.485      860.739
05/26/2014  14:21:00     -437.528      -85.534      -22.531      230.758      216.827      102.694    53249.145    47014.125    10546.098       15.501        5.540      445.810      113.045        0.064      348.372       28.017      860.727
05/26/2014  14:22:00     -396.077     -231.271      -14.549      308.952      190.999       92.040    95451.460    36480.438     8471.290       17.546        7.020      458.654       95.397        0.043      348.243       27.794      860.711
05/26/2014  14:23:00     -264.075     -363.624      -12.448      211.222      176.969       98.812    44614.778    31318.152     9763.901       14.389        4.285      449.398      104.964        0.055      348.235       27.778      860.757
05/26/2014  14:24:00     -386.840     -202.556      -13.002      246.136      141.429       79.031    60582.890    20002.068     6245.913       13.882        4.342      436.662       86.547        0.039      348.274       27.846      860.736
05/26/2014  14:25:00     -418.885     -149.366       -6.163      193.330      163.003       93.070    37376.410    26569.815     8662.040       13.520        3.630      444.719       86.311        0.038      348.343       27.966      860.756
05/26/2014  14:26:00     -242.970     -253.464       10.000      216.396      186.249       90.417    46827.320    34688.532     8175.322       10.652        4.485      351.110      107.279        0.093      348.392       28.051      860.745
05/26/2014  14:27:00     -338.657     -308.991        0.960      295.930      231.863      108.709    87574.648    53760.449    11817.708       18.163        7.658      458.437      115.301        0.063      348.254       27.812      860.722
05/26/2014  14:28:00     -370.061     -286.266        7.223      240.382      224.881      100.615    57783.668    50571.278    10123.410       16.869        5.924      467.860      118.731        0.064      348.165       27.659      860.771
05/26/2014  14:29:00     -424.477     -294.276       -1.870      219.097      145.838      100.918    48003.360    21268.736    10184.342       17.310        3.973      516.506      107.465        0.043      348.024       27.415      860.751
05/26/2014  14:30:00     -413.498     -173.934      -14.054      204.684      145.746       81.997    41895.580    21241.803     6723.502       13.563        3.493      448.591       86.583        0.037      347.940       27.270      860.706
05/26/2014  14:31:00     -239.860     -221.217       -7.698      177.710      178.719       79.233    31580.941    31940.417     6277.806        8.815        3.490      326.297       71.489        0.048      348.363       28.001      860.684
05/26/2014  14:32:00     -430.354     -182.343      -17.646      194.797      178.755       94.921    37945.707    31953.342     9009.953       14.882        3.945      467.390       92.094        0.039      348.427       28.111      860.692
05/26/2014  14:33:00     -334.857     -212.055       -4.296      195.163      155.607       88.125    38088.619    24213.686     7766.002       11.358        3.503      396.354       90.736        0.052      348.313       27.914      860.732
05/26/2014  14:34:00     -495.199     -363.470        3.195      270.319      219.353      114.657    73072.365    48115.742    13146.333       25.581        6.717      614.274      126.897        0.043      348.067       27.488      860.673
05/26/2014  14:35:00     -612.069     -296.927      -19.618      222.373      194.390      104.565    49449.902    37787.410    10933.878       28.066        4.909      680.290      113.465        0.028      348.153       27.637      860.653
05/26/2014  14:36:00     -455.699     -387.653      -20.731      208.153      232.120       93.318    43327.647    53879.585     8708.252       23.212        5.296      598.277      102.626        0.029      348.219       27.752      860.677
05/26/2014  14:37:00     -485.922     -476.027      -11.933      251.828      243.532      114.113    63417.135    59307.898    13021.837       29.928        6.787      680.236      126.961        0.035      348.176       27.677      860.671
05/26/2014  14:38:00     -426.269     -287.989        1.944      285.299      197.400      109.809    81395.422    38966.603    12057.992       19.851        6.621      514.434      127.780        0.062      348.147       27.627      860.658
05/26/2014  14:39:00     -343.932     -274.048       15.967      233.401      206.950      107.256    54475.815    42828.483    11503.935       15.121        5.440      439.763      125.602        0.082      348.291       27.878      860.647
05/26/2014  14:40:00     -569.894      -84.813      -27.778      285.682      219.245      107.166    81613.935    48068.198    11484.645       23.693        7.058      576.171      130.674        0.051      348.342       27.966      860.619
05/26/2014  14:41:00     -591.123     -180.019      -22.007      219.490      191.643       91.494    48175.884    36727.221     8371.106       23.778        4.664      617.926      102.293        0.027      348.223       27.759      860.620
05/26/2014  14:42:00     -402.728     -159.298        4.128      262.275      145.986       99.746    68788.140    21311.824     9949.319       14.380        5.002      433.089      125.866        0.084      348.327       27.939      860.677
05/26/2014  14:43:00     -397.709     -187.239       -0.182      254.752      153.592       91.824    64898.400    23590.481     8431.738       14.506        4.846      439.580       96.988        0.049      348.317       27.923      860.660
05/26/2014  14:44:00     -187.950     -213.033        5.988      208.016      152.529       84.872    43270.470    23265.025     7203.233        7.723        3.687      284.092       90.824        0.102      348.561       28.342      860.683
05/26/2014  14:45:00     -377.169     -184.890      -11.792      254.507      154.047       77.869    64774.040    23730.407     6063.551       13.555        4.728      420.049       92.001        0.048      348.498       28.235      860.712
05/26/2014  14:46:00     -501.211     -299.226       -0.695      273.900      205.353      106.300    75021.109    42169.913    11299.762       23.459        6.425      583.736      119.543        0.042      348.177       27.678      860.704
05/26/2014  14:47:00     -513.868     -283.640        7.417      289.781      201.793      106.119    83972.785    40720.389    11261.208       24.023        6.798      586.952      117.679        0.040      347.998       27.369      860.678
05/26/2014  14:48:00     -471.800     -331.585      -11.300      201.632      200.496       99.058    40655.514    40198.455     9812.569       21.165        4.533      576.666      106.673        0.034      348.163       27.654      860.658
05/26/2014  14:49:00     -259.438     -333.254       10.155      208.776      253.027       88.770    43587.499    64022.905     7880.197       14.696        5.775      422.334       92.549        0.048      348.283       27.861      860.677
05/26/2014  14:50:00     -372.207     -226.487      -13.730      178.299      160.820       81.243    31790.687    25862.925     6600.362       12.713        3.213      435.700       85.165        0.038      348.444       28.142      860.665
05/26/2014  14:51:00     -277.695     -237.720       15.162      200.362      167.564       79.490    40145.099    28077.664     6318.727       10.418        3.727      365.548       77.995        0.046      348.488       28.217      860.660
05/26/2014  14:52:00     -236.300     -330.992       -3.628      171.032      247.939       84.591    29252.024    61473.640     7155.606       13.162        4.894      406.685       86.202        0.045      348.492       28.225      860.657
05/26/2014  14:53:00     -334.604     -350.690       12.756      275.364      154.604      101.759    75825.341    23902.300    10354.959       17.257        5.504      484.710      101.385        0.044      348.168       27.664      860.657
05/26/2014  14:54:00     -359.848     -140.600      -10.767      169.800      132.568       79.501    28831.877    17574.337     6320.455       10.104        2.636      386.341       70.266        0.033      348.340       27.961      860.640
05/26/2014  14:55:00     -100.926     -112.542       32.572      171.052      111.934       85.327    29258.639    12529.126     7280.762        3.648        2.453      151.168       94.874        0.394      348.606       28.423      860.630
05/26/2014  14:56:00     -251.150     -197.753       -0.312      159.860      153.633       74.247    25555.135    23602.964     5512.677        7.842        2.734      319.660       63.616        0.040      348.593       28.400      860.631
05/26/2014  14:57:00     -232.858     -193.297       -8.727      187.666      236.967      101.741    35218.601    56153.586    10351.180        9.667        5.086      302.633      103.380        0.117      348.422       28.103      860.564
05/26/2014  14:58:00     -274.451     -412.744        0.353      226.896      209.147      105.187    51481.591    43742.598    11064.341       17.596        5.314      495.662      113.152        0.052      348.260       27.823      860.594
05/26/2014  14:59:00     -347.066     -263.778       13.396      225.407      161.212       98.482    50808.490    25989.287     9698.693       13.834        4.325      435.928      102.367        0.055      348.521       28.274      860.638
05/26/2014  15:00:00     -501.959     -293.470       -8.897      214.830      153.978      103.009    46152.105    23709.163    10610.853       20.930        4.024      581.453      105.056        0.033      348.237       27.782      860.630
05/26/2014  15:01:00     -283.701      -79.148        5.472      198.247      151.566       87.447    39301.998    22972.243     7647.026        7.834        3.496      294.534      102.557        0.121      348.467       28.180      860.640
05/26/2014  15:02:00     -247.912     -180.881       25.687      239.569      175.544      107.151    57393.513    30815.622    11481.432        9.724        4.985      306.885      132.547        0.187      348.504       28.245      860.590
05/26/2014  15:03:00     -156.969     -166.388       25.347      176.668      153.649       81.502    31211.682    23608.007     6642.522        5.720        3.073      228.745       67.029        0.086      348.797       28.752      860.595
05/26/2014  15:04:00     -287.860     -413.778        2.633      217.715      278.154      102.165    47399.730    77369.835    10437.755       19.462        6.760      504.060      117.379        0.054      348.343       27.967      860.558
05/26/2014  15:05:00     -223.699     -398.670        9.673      252.407      207.342      101.451    63709.454    42990.581    10292.407       16.301        5.850      457.142       96.197        0.044      348.320       27.927      860.540
05/26/2014  15:06:00     -206.979     -239.889       -0.977      173.140      158.923       84.878    29977.594    25256.655     7204.286        8.140        3.122      316.839       88.735        0.078      348.498       28.234      860.607
05/26/2014  15:07:00     -204.822      -69.388        9.881      139.601      108.268       62.376    19488.468    11721.889     3890.767        4.098        1.755      216.256       61.423        0.081      348.543       28.311      860.575
05/26/2014  15:08:00     -230.205     -163.753       -7.252      153.497      130.200       66.694    23561.278    16952.087     4448.029        6.240        2.248      282.506       71.228        0.064      348.449       28.148      860.537
05/26/2014  15:09:00     -215.172     -442.177       -0.930      162.256      173.303       87.795    26327.038    30033.806     7707.995       15.293        3.203      491.752       67.053        0.019      348.404       28.071      860.507
05/26/2014  15:10:00     -157.032     -182.374        0.669      165.558      114.790       77.584    27409.566    13176.764     6019.297        5.225        2.330      240.664       78.587        0.107      348.551       28.327      860.549
05/26/2014  15:11:00     -203.640     -163.047      -10.515      121.800      127.225       72.033    14835.185    16186.282     5188.711        5.218        1.811      260.871       63.568        0.059      348.593       28.399      860.549
05/26/2014  15:12:00     -376.154     -203.265        2.443      215.438      206.448       87.554    46413.491    42620.679     7665.748       13.974        4.835      427.561      104.875        0.060      348.499       28.235      860.548
05/26/2014  15:13:00     -438.674     -200.936       -9.205      186.798      176.329       84.435    34893.314    31091.826     7129.305       15.299        3.656      482.504       92.751        0.037      348.416       28.091      860.499
05/26/2014  15:14:00     -416.621     -261.831       -2.004      258.441      257.223      127.387    66791.875    66163.766    16227.446       19.563        7.459      492.065      139.873        0.081      348.623       28.451      860.573
05/26/2014  15:15:00     -627.630     -437.613       -6.569      317.516      297.941      154.867   100816.706    88768.574    23983.850       39.948       10.678      765.130      177.585        0.054      348.013       27.395      860.551
05/26/2014  15:16:00     -627.716     -385.829      -19.107      304.690      207.871      124.537    92836.130    43210.507    15509.585       34.738        7.578      736.811      145.386        0.039      347.960       27.304      860.563
05/26/2014  15:17:00     -281.955     -189.991      -11.533      198.135      232.251       89.914    39257.564    53940.501     8084.576       10.848        5.064      339.993       94.526        0.077      348.186       27.695      860.595
05/26/2014  15:18:00     -274.792     -379.106       -6.983      244.132      197.145      102.144    59600.395    38866.107    10433.398       16.407        5.445      468.222      106.504        0.052      348.089       27.528      860.589
05/26/2014  15:19:00     -428.921     -275.420       -0.330      284.506      224.399      107.500    80943.557    50355.029    11556.280       20.131        7.143      509.734      124.987        0.060      348.036       27.436      860.499
05/26/2014  15:20:00     -462.607     -362.807       24.243      312.064      238.060      128.434    97383.770    56672.540    16495.350       25.835        8.528      587.906      138.802        0.056      347.880       27.166      860.523
05/26/2014  15:21:00     -382.650     -193.583       -9.595      210.567      151.530       99.673    44338.582    22961.291     9934.684       13.060        3.862      428.830       94.838        0.049      348.045       27.452      860.543
05/26/2014  15:22:00     -543.736     -361.258        4.335      260.445      223.105      115.260    67831.510    49775.779    13284.915       27.851        6.545      652.806      137.096        0.044      347.778       26.991      860.539
05/26/2014  15:23:00     -391.971     -249.139        5.310      202.372      144.569       90.792    40954.234    20900.263     8243.171       14.290        3.505      464.447      105.071        0.051      347.695       26.847      860.523
05/26/2014  15:24:00     -464.280     -228.743      -14.292      213.443      125.694       91.825    45557.883    15799.027     8431.805       16.892        3.489      517.570      112.603        0.047      347.892       27.189      860.498
05/26/2014  15:25:00     -230.060     -144.593       -3.194      118.569      108.854       57.797    14058.610    11849.287     3340.456        5.154        1.462      271.725       61.478        0.051      348.212       27.739      860.509
05/26/2014  15:26:00     -238.338     -272.646        2.068      194.103      208.831       74.238    37676.119    43610.252     5511.326       10.895        4.340      362.134       84.600        0.055      348.339       27.960      860.513
05/26/2014  15:27:00     -303.281     -593.056      -24.692      180.913      269.562       93.451    32729.620    72663.851     8733.146       27.919        5.706      666.104       57.783        0.008      347.900       27.201      860.468
05/26/2014  15:28:00     -184.468     -208.545        7.689      175.989      157.890       86.836    30972.051    24929.157     7540.412        7.050        3.172      278.423       88.241        0.100      348.298       27.889      860.453
05/26/2014  15:29:00     -340.257     -399.631       -7.024      203.811      215.657      107.200    41538.995    46507.901    11491.741       18.751        4.977      524.861       97.080        0.034      348.084       27.519      860.469
05/26/2014  15:30:00     -393.204     -378.108      -19.273      203.325      208.871       91.324    41341.257    43627.245     8340.110       19.561        4.665      545.505       97.785        0.032      347.958       27.300      860.442
05/26/2014  15:31:00     -183.983     -191.444       10.396      224.692      149.842      101.165    50486.619    22452.719    10234.389        7.687        4.159      265.520      117.513        0.196      348.196       27.714      860.411
05/26/2014  15:32:00     -218.205     -167.196       28.885      211.515      149.684       80.938    44738.471    22405.295     6550.915        7.503        3.685      274.897       94.675        0.119      348.418       28.096      860.451
05/26/2014  15:33:00     -278.990     -218.115       -3.975      189.604      185.079       78.398    35949.743    34254.097     6146.211       10.087        3.818      354.132       87.726        0.061      348.392       28.051      860.499
05/26/2014  15:34:00     -511.335     -351.252        2.604      314.024      213.598      133.661    98611.139    45623.892    17865.177       27.344        8.105      620.356      156.912        0.064      348.191       27.702      860.469
05/26/2014  15:35:00     -320.950     -217.451       10.646      250.576      196.213       95.393    62788.559    38499.548     9099.781       13.038        5.519      387.678       98.827        0.065      348.233       27.776      860.528
05/26/2014  15:36:00     -356.707     -280.805       -4.452      210.682      190.165      104.947    44386.956    36162.752    11013.863       14.882        4.578      453.973      102.013        0.050      348.180       27.686      860.548
05/26/2014  15:37:00     -453.799     -267.659        0.156      258.596      216.326      100.902    66871.887    46797.012    10181.258       20.069        6.193      526.854      120.435        0.052      347.988       27.355      860.540
05/26/2014  15:38:00     -306.269     -350.727       -7.713      223.827      160.985       89.779    50098.310    25916.143     8060.232       15.045        4.204      465.628      102.358        0.048      347.952       27.292      860.550
05/26/2014  15:39:00     -284.742     -172.202       -0.985      192.941      124.840       95.410    37226.085    15585.036     9102.979        8.631        3.096      332.764       99.990        0.090      348.156       27.643      860.509
05/26/2014  15:40:00     -459.211     -198.173      -19.162      213.104      178.100       95.190    45413.303    31719.575     9061.186       16.834        4.310      500.147       88.390        0.031      348.157       27.645      860.490
05/26/2014  15:41:00     -329.343     -382.924      -15.508      225.529      199.117       81.992    50863.193    39647.515     6722.739       17.627        4.862      505.072       64.181        0.016      348.030       27.423      860.507
05/26/2014  15:42:00     -383.009     -322.268      -19.766      235.764      197.735      114.962    55584.749    39098.993    13216.306       17.940        5.395      500.552      114.688        0.052      348.230       27.770      860.468
05/26/2014  15:43:00     -402.454     -261.211        4.274      249.730      188.968      115.743    62365.133    35708.982    13396.361       17.082        5.574      479.792      120.579        0.063      348.280       27.856      860.483
05/26/2014  15:44:00     -406.242     -321.416      -10.552      242.869      215.925      103.296    58985.531    46623.592    10669.961       19.234        5.814      518.016      104.022        0.040      347.770       26.976      860.535
05/26/2014  15:45:00     -506.227     -297.604       -7.457      253.286      194.647      100.655    64153.911    37887.396    10131.394       22.851        5.609      587.225      103.192        0.031      347.892       27.187      860.474
05/26/2014  15:46:00     -606.044     -305.901      -18.457      224.972      202.734      115.761    50612.618    41100.998    13400.722       28.314        5.256      678.870      121.649        0.032      347.933       27.258      860.483
05/26/2014  15:47:00     -305.226     -262.850      -16.833      219.327      176.908       89.250    48104.272    31296.603     7965.537       12.493        4.368      402.807       94.997        0.056      347.893       27.187      860.527
05/26/2014  15:48:00     -187.932     -363.655       -6.388      139.814      156.904       80.004    19547.994    24618.894     6400.618       10.908        2.528      409.345       71.548        0.031      347.973       27.326      860.496
05/26/2014  15:49:00     -328.158     -186.267        0.061      180.574      137.393       81.564    32606.828    18876.778     6652.708       10.025        2.907      377.337       72.634        0.037      348.158       27.646      860.492
05/26/2014  15:50:00     -223.406     -252.039        5.850      158.302      199.093       72.734    25059.601    39637.849     5290.235        9.171        3.499      336.799       76.776        0.052      348.085       27.521      860.466
05/26/2014  15:51:00     -286.284     -249.822       -6.652      185.930      173.281       82.945    34569.963    30026.399     6879.930       10.793        3.574      379.960       99.393        0.068      348.261       27.826      860.471
05/26/2014  15:52:00     -367.396     -180.043       -4.690      264.621      153.528       91.738    70024.238    23570.715     8415.815       13.469        5.101      409.140      118.981        0.085      348.366       28.005      860.476
05/26/2014  15:53:00     -246.863     -107.907        3.409      138.964      118.888       63.237    19310.948    14134.366     3998.890        5.501        1.872      269.417       62.313        0.053      348.430       28.117      860.493
05/26/2014  15:54:00     -346.846     -174.973       -1.715      264.211      166.534       88.376    69807.386    27733.560     7810.297       12.811        5.268      388.481      113.524        0.085      348.407       28.077      860.481
05/26/2014  15:55:00     -373.099     -298.329      -12.486      149.636      127.355       83.084    22390.900    16219.229     6902.931       13.693        2.276      477.706       68.696        0.021      348.045       27.451      860.501
05/26/2014  15:56:00     -399.813     -303.418      -14.016      214.780      158.473       99.150    46130.362    25113.719     9830.767       16.658        4.054      501.910       96.638        0.037      348.188       27.699      860.566
05/26/2014  15:57:00     -469.189     -121.632      -26.120      157.118      191.697       75.252    24686.061    36747.755     5662.927       15.134        3.355      484.699       82.564        0.029      348.126       27.591      860.551
05/26/2014  15:58:00     -574.586     -322.450      -22.818      323.670      290.241      120.253   104762.392    84239.634    14460.880       31.901       10.173      658.880      121.047        0.034      347.954       27.293      860.522
05/26/2014  15:59:00     -616.627     -326.749       -3.346      356.053      279.479      129.823   126774.024    78108.660    16853.979       35.433       11.087      697.849      159.959        0.053      347.938       27.267      860.438
05/26/2014  16:00:00     -300.492     -229.349        0.718      240.839      178.887      113.787    58003.323    32000.679    12947.432       12.290        5.148      378.017      132.099        0.122      348.121       27.583      860.472
05/26/2014  16:01:00     -525.456     -185.193      -13.110      311.033      210.642      126.654    96741.742    44370.096    16041.244       23.383        7.858      557.136      167.624        0.091      348.095       27.536      860.469
05/26/2014  16:02:00     -582.502     -299.273       -7.420      303.287      245.436      108.313    91982.708    60238.930    11731.646       29.641        8.198      654.884      107.813        0.027      348.004       27.379      860.482
05/26/2014  16:03:00     -699.467     -291.620      -33.582      288.832      219.880      114.689    83423.897    48347.047    13153.536       36.015        7.246      757.824      123.968        0.027      347.809       27.044      860.491
05/26/2014  16:04:00     -615.201     -375.062      -47.631      263.956      232.727      115.766    69672.904    54162.073    13401.791       32.930        6.862      720.516      126.675        0.031      347.756       26.952      860.458
05/26/2014  16:05:00     -575.024     -318.168      -24.736      228.362      207.689      113.496    52149.060    43134.747    12881.441       27.031        5.408      657.179      117.878        0.032      347.888       27.180      860.491
05/26/2014  16:06:00     -471.362     -266.279      -14.363      225.248      189.569       95.191    50736.593    35936.394     9061.337       19.449        4.787      541.374       91.824        0.029      347.789       27.009      860.516
05/26/2014  16:07:00     -338.127     -171.986      -30.017      177.965      189.096       83.880    31671.475    35757.449     7035.876       10.962        3.723      379.354       88.014        0.054      348.095       27.537      860.517
05/26/2014  16:08:00     -468.279     -104.343      -13.682      165.214      199.334       91.586    27295.697    39733.894     8387.943       15.287        3.771      479.763       89.206        0.035      348.126       27.591      860.508
05/26/2014  16:09:00     -448.941      -84.296       -9.215      239.866      189.639      107.360    57535.483    35962.794    11526.242       15.686        5.251      456.787      128.935        0.080      348.140       27.615      860.493
05/26/2014  16:10:00     -408.792     -275.429       -0.502      265.161      222.318      123.688    70310.382    49425.373    15298.710       18.898        6.752      492.922      137.770        0.078      348.024       27.416      860.487
05/26/2014  16:11:00     -450.717     -161.990        2.381      257.573      205.007      116.678    66343.960    42027.848    13613.658       17.566        6.099      478.943      114.768        0.057      348.041       27.444      860.479
05/26/2014  16:12:00     -277.028      -42.723      -17.158      208.034      166.194       84.625    43278.331    27620.369     7161.396        7.845        3.903      280.303       82.617        0.087      348.190       27.702      860.505
05/26/2014  16:13:00     -413.071      -36.328        7.856      254.538      198.802      105.282    64789.375    39522.264    11084.336       14.368        5.770      414.666      122.282        0.087      348.131       27.600      860.502
05/26/2014  16:14:00     -365.782     -127.090        0.427      230.820      217.800      109.266    53278.040    47436.717    11939.035       13.128        5.633      387.232      119.549        0.095      348.181       27.688      860.497
05/26/2014  16:15:00     -360.793     -176.031       15.156      279.923      206.071      121.017    78356.761    42465.418    14645.211       14.840        6.773      401.445      145.679        0.132      348.128       27.595      860.546
05/26/2014  16:16:00     -543.383     -229.398      -24.748      265.709      202.521      103.867    70601.269    41014.755    10788.314       23.543        6.120      589.820      127.301        0.047      347.917       27.230      860.520
05/26/2014  16:17:00     -309.617     -102.649      -23.841      196.962      150.513       99.195    38794.065    22654.079     9839.606        8.911        3.564      326.189       84.803        0.068      348.146       27.627      860.507
05/26/2014  16:18:00     -309.474     -129.404      -10.320      287.473      163.093       88.825    82640.510    26599.228     7889.832       11.485        5.856      335.439       61.824        0.034      348.207       27.731      860.479
05/26/2014  16:19:00     -317.937     -254.890       -9.899      245.619      215.565      125.984    60328.622    46468.469    15871.958       14.439        6.133      407.496      123.760        0.092      347.984       27.348      860.466
05/26/2014  16:20:00     -336.688     -168.280       15.399      332.169      209.728      113.163   110336.464    43985.751    12805.977       15.449        8.356      376.400      140.975        0.140      348.122       27.586      860.501
05/26/2014  16:21:00     -436.987     -255.058      -14.078      225.763      225.415       99.014    50968.839    50811.861     9803.743       18.388        5.579      505.977      100.876        0.040      347.997       27.369      860.534
05/26/2014  16:22:00     -557.365     -393.364      -16.431      226.648      178.509      106.670    51369.390    31865.600    11378.506       28.012        4.731      682.196      112.018        0.027      347.887       27.177      860.550
05/26/2014  16:23:00     -356.563     -221.967      -13.237      142.484      134.364       75.456    20301.824    18053.645     5693.673       11.031        2.202      420.008       74.337        0.031      347.996       27.367      860.542
05/26/2014  16:24:00     -408.424     -204.859      -13.249      218.713      194.744       85.020    47835.286    37925.053     7228.456       15.095        4.649      456.922       97.450        0.045      348.045       27.452      860.504
05/26/2014  16:25:00     -297.294      -16.540       11.910      193.691      133.979       93.953    37516.218    17950.294     8827.202        7.653        3.215      297.754       93.354        0.098      348.312       27.913      860.509
05/26/2014  16:26:00     -441.263     -266.573       -8.047      260.460      156.590       88.637    67839.648    24520.344     7856.606       18.301        5.011      515.533      109.035        0.045      348.168       27.664      860.558
05/26/2014  16:27:00     -475.351     -212.398       12.782      292.052      231.130      132.371    85294.104    53421.278    17522.023       21.371        7.812      520.645      158.745        0.093      347.968       27.318      860.507
05/26/2014  16:28:00     -386.762     -409.816       -9.097      261.399      176.719      110.023    68329.457    31229.478    12105.068       21.462        5.583      563.502      118.876        0.045      347.777       26.988      860.474
05/26/2014  16:29:00     -373.187     -185.646       -1.276      193.346      174.264       97.410    37382.524    30368.103     9488.767       12.547        3.862      416.813       96.632        0.054      347.837       27.092      860.500
05/26/2014  16:30:00     -429.505     -319.830        9.580      298.497      239.127      127.946    89100.546    57181.771    16370.116       22.472        8.133      535.505      154.848        0.084      347.818       27.059      860.485
05/26/2014  16:31:00     -432.718     -263.840       19.332      247.593      228.902      123.108    61302.388    52396.328    15155.551       19.302        6.443      506.810      123.125        0.059      347.902       27.204      860.490
05/26/2014  16:32:00     -380.414     -150.142       20.832      277.371      206.266      109.316    76934.888    42545.752    11950.091       14.953        6.572      408.971      145.311        0.126      348.133       27.601      860.489
05/26/2014  16:33:00     -381.146     -126.190        4.999      248.143      199.836      113.126    61574.789    39934.257    12797.525       13.774        5.715      401.493      130.193        0.105      348.019       27.406      860.523
05/26/2014  16:34:00     -528.910     -316.556      -23.170      298.553      201.643      113.304    89133.766    40659.945    12837.905       26.153        7.132      616.403      125.946        0.042      347.791       27.012      860.449
05/26/2014  16:35:00     -258.952     -252.734      -29.443      233.221      233.009       97.635    54392.076    54293.424     9532.651       12.498        5.911      361.843      114.244        0.100      347.942       27.275      860.524
05/26/2014  16:36:00     -544.439     -287.183       -3.026      298.360      268.000      117.715    89018.523    71824.208    13856.887       27.676        8.735      615.539      147.429        0.057      347.795       27.018      860.514
05/26/2014  16:37:00     -659.370     -415.644      -27.895      312.686      250.097      115.078    97772.367    62548.614    13242.935       39.090        8.678      779.442      110.503        0.020      347.619       26.715      860.509
05/26/2014  16:38:00     -543.456     -288.433      -15.281      239.343      263.054      118.347    57285.170    69197.548    14006.011       25.960        7.024      615.255      129.237        0.044      347.781       26.995      860.510
05/26/2014  16:39:00     -492.735     -354.946       11.312      299.721      245.481      137.811    89832.567    60260.986    18991.825       26.896        8.454      607.268      156.586        0.066      347.761       26.962      860.505
05/26/2014  16:40:00     -670.019     -471.688       11.459      354.533      274.383      142.432   125693.954    75286.012    20286.937       44.636       11.063      819.399      170.706        0.043      347.630       26.735      860.478
05/26/2014  16:41:00     -472.008     -182.911       14.565      296.893      199.149      117.902    88145.602    39660.182    13900.810       19.906        7.085      506.210      138.081        0.074      347.817       27.058      860.529
05/26/2014  16:42:00     -412.831     -243.891       -7.653      236.750      163.877       98.112    56050.731    26855.628     9625.922       16.123        4.627      479.492      109.413        0.052      347.813       27.050      860.546
05/26/2014  16:43:00     -381.358     -306.807      -25.892      226.897      172.797       98.910    51482.145    29858.976     9783.249       16.566        4.556      489.453      114.034        0.054      347.684       26.827      860.499
05/26/2014  16:44:00     -489.207     -131.483      -12.861      196.756      165.981       79.275    38713.035    27549.629     6284.572       16.465        3.627      506.568       94.483        0.035      347.876       27.158      860.507
05/26/2014  16:45:00     -410.789     -160.322        3.348      238.692      195.084      101.381    56973.975    38057.654    10278.137       14.986        5.265      440.966      104.454        0.056      347.935       27.262      860.508
05/26/2014  16:46:00     -445.356     -236.953        6.255      248.790      237.003       95.789    61896.698    56170.387     9175.601       19.086        6.362      504.469      116.609        0.053      347.915       27.228      860.479
05/26/2014  16:47:00     -576.226     -380.009       -5.082      302.664      266.432      116.504    91605.484    70985.934    13573.069       32.628        8.808      690.249      146.171        0.045      347.704       26.861      860.488
05/26/2014  16:48:00     -429.305     -147.404       24.473      217.561      173.746      106.398    47332.664    30187.620    11320.619       14.772        4.442      453.907      114.684        0.064      347.693       26.844      860.537
05/26/2014  16:49:00     -439.643     -197.153        9.267      225.395      153.521      103.816    50802.803    23568.581    10777.709       15.868        4.257      481.825      116.396        0.058      347.714       26.880      860.548
05/26/2014  16:50:00     -461.471     -242.241       -9.143      241.931      163.738       90.609    58530.568    26809.983     8209.968       18.262        4.678      521.187      100.236        0.037      347.614       26.707      860.507
05/26/2014  16:51:00     -386.881     -206.342        7.418      231.211      171.311      109.660    53458.393    29347.371    12025.299       14.355        4.742      438.468      117.430        0.072      347.786       27.005      860.520
05/26/2014  16:52:00     -516.528     -203.345      -17.484      269.428      221.046      125.848    72591.211    48861.168    15837.656       22.285        6.865      555.113      138.141        0.062      347.625       26.727      860.508
05/26/2014  16:53:00     -433.032     -111.493      -28.173      288.153      161.967      108.020    83032.160    26233.254    11668.236       16.081        6.047      447.155      140.141        0.098      347.714       26.880      860.508
05/26/2014  16:54:00     -562.337     -204.883      -34.972      291.769      211.127      111.320    85129.199    44574.622    12392.196       25.073        7.105      598.498      118.181        0.039      347.642       26.755      860.476
05/26/2014  16:55:00     -434.169        9.095      -17.786      329.504      123.838       96.408   108572.980    15335.802     9294.532       16.103        6.660      434.264      126.623        0.085      347.771       26.978      860.448
05/26/2014  16:56:00     -206.879      -69.025        3.733      203.681      107.159       79.093    41485.902    11483.039     6255.694        5.339        2.961      218.090      109.893        0.254      348.058       27.474      860.455
05/26/2014  16:57:00     -265.407     -159.846        4.161      139.109       89.839       57.240    19351.375     8071.044     3276.462        6.335        1.535      309.825       56.763        0.034      348.074       27.501      860.468
05/26/2014  16:58:00     -368.958     -235.751      -10.579      246.701      171.187       98.995    60861.351    29304.868     9800.074       14.587        4.998      437.845      124.239        0.081      348.108       27.559      860.478
05/26/2014  16:59:00     -320.814     -270.306        5.561      220.510      181.377      108.217    48624.587    32897.766    11710.963       13.461        4.662      419.508      101.507        0.059      347.859       27.131      860.500
05/26/2014  17:00:00     -226.325     -279.897       -3.700      193.450      229.699       99.733    37422.901    52761.540     9946.672       11.484        5.007      359.952      100.778        0.078      347.908       27.215      860.484
05/26/2014  17:01:00     -389.908     -352.155      -11.273      306.760      179.324      105.954    94101.896    32157.113    11226.169       20.680        6.874      525.396      118.028        0.050      347.674       26.810      860.461
05/26/2014  17:02:00     -399.974     -336.046      -19.349      284.183      230.645      107.385    80759.880    53197.343    11531.456       20.936        7.274      522.404      128.570        0.061      347.652       26.772      860.450
05/26/2014  17:03:00     -315.648     -303.660       -6.109      176.986      150.335       86.506    31324.032    22600.490     7483.218       12.663        3.070      438.000       83.616        0.036      347.658       26.783      860.446
05/26/2014  17:04:00     -288.359     -539.365      -22.303      212.503      297.762      107.493    45157.342    88662.306    11554.783       25.994        7.269      611.609      102.669        0.028      347.617       26.713      860.434
05/26/2014  17:05:00     -457.607     -393.750      -16.877      239.953      283.901      120.075    57577.533    80599.531    14417.948       25.863        7.630      603.692      122.195        0.041      347.596       26.676      860.420
05/26/2014  17:06:00     -484.249     -287.509       -0.296      271.572      223.659      109.800    73751.331    50023.488    12056.020       22.647        6.792      563.168      118.498        0.044      347.639       26.750      860.385
05/26/2014  17:07:00     -352.694     -352.903       11.522      310.569      213.579      114.235    96453.062    45615.929    13049.732       20.206        7.756      498.932      126.411        0.064      347.589       26.664      860.411
05/26/2014  17:08:00     -485.653     -460.757       -5.062      266.027      215.000      116.981    70770.264    46224.811    13684.558       28.940        6.534      669.445      120.374        0.032      347.565       26.622      860.402
05/26/2014  17:09:00     -248.095     -216.654       14.406      216.259      187.025      104.816    46767.787    34978.447    10986.338       10.070        4.637      329.378      119.036        0.131      347.716       26.883      860.409
05/26/2014  17:10:00     -237.304     -188.966       -2.277      164.132      161.532       84.751    26939.421    26092.453     7182.771        7.611        3.011      303.350       80.647        0.071      347.831       27.082      860.424
05/26/2014  17:11:00     -403.654     -309.146       -1.325      216.175      265.938      101.060    46731.785    70722.814    10213.138       19.306        6.383      508.436      116.189        0.052      347.757       26.956      860.439
05/26/2014  17:12:00     -335.127     -165.063       18.614      233.912      186.287       95.654    54714.615    34702.700     9149.673       11.921        4.928      373.572      118.390        0.100      347.748       26.939      860.469
05/26/2014  17:13:00     -589.590     -394.094      -23.954      257.022      191.117      102.752    66060.316    36525.728    10558.043       30.830        5.657      709.173       99.028        0.019      347.386       26.314      860.458
05/26/2014  17:14:00     -296.614     -241.779        2.728      204.317      133.910       72.068    41745.600    17931.989     5193.788       10.564        3.244      382.671       70.082        0.034      347.539       26.579      860.449
05/26/2014  17:15:00     -584.609     -346.965      -27.283      309.711      164.822       98.383    95920.688    27166.298     9679.227       29.780        6.638      679.818      112.667        0.027      347.485       26.484      860.451
05/26/2014  17:16:00     -375.654     -178.766       -4.419      268.431      203.440       98.788    72055.154    41387.945     9759.011       14.812        6.160      416.020      112.369        0.073      347.600       26.684      860.468
05/26/2014  17:17:00     -460.920     -279.265      -27.138      214.736      220.759      105.184    46111.551    48734.329    11063.625       19.852        5.295      538.921      105.811        0.039      347.499       26.509      860.404
05/26/2014  17:18:00     -452.152     -326.604      -22.721      325.858      151.723       97.725   106183.379    23019.977     9550.136       22.516        6.938      557.774      134.726        0.058      347.551       26.599      860.414
05/26/2014  17:19:00     -424.428     -306.343        1.620      247.722      207.800      116.853    61366.024    43181.013    13654.517       19.607        5.910      523.436      130.939        0.063      347.469       26.457      860.436
05/26/2014  17:20:00     -454.883     -456.213       -3.008      283.258      238.757      112.244    80234.813    57004.720    12598.740       28.242        7.492      644.243      110.868        0.030      347.398       26.335      860.379
05/26/2014  17:21:00     -463.546     -278.184        3.670      232.712      178.539      102.416    54154.989    31876.084    10488.994       19.438        4.826      540.612      116.719        0.047      347.628       26.731      860.366
05/26/2014  17:22:00     -342.580     -306.132       29.008      218.001      205.928      121.523    47524.463    42406.158    14767.752       15.829        5.235      459.432      110.129        0.057      347.573       26.638      860.396
05/26/2014  17:23:00     -415.299     -255.264      -10.861      270.007      218.128      101.776    72903.601    47579.943    10358.375       18.427        6.542      487.477      111.567        0.052      347.648       26.765      860.383
05/26/2014  17:24:00     -417.334     -176.334       -7.339      315.134      248.045      108.461    99309.514    61526.521    11763.838       18.892        8.630      453.057      121.902        0.072      347.585       26.657      860.396
05/26/2014  17:25:00     -453.689     -333.154      -18.021      287.287      193.941      128.890    82533.835    37613.035    16612.682       22.693        6.838      562.873      148.732        0.070      347.511       26.529      860.382
05/26/2014  17:26:00     -469.012     -277.267       -4.740      271.218      217.789      115.040    73559.048    47432.111    13234.203       21.552        6.711      544.839      132.353        0.059      347.495       26.502      860.395
05/26/2014  17:27:00     -475.795     -293.981       -6.438      266.914      248.951      114.726    71242.855    61976.715    13162.137       22.958        7.319      559.290      141.716        0.064      347.512       26.532      860.398
05/26/2014  17:28:00     -452.802     -249.000      -20.339      259.799      213.558      118.300    67495.484    45607.008    13994.882       19.725        6.355      516.750      127.858        0.061      347.382       26.307      860.409
05/26/2014  17:29:00     -376.370     -240.551       -7.564      247.008      191.472      105.545    61012.807    36661.575    11139.774       15.417        5.441      446.675      106.976        0.057      347.500       26.509      860.388
05/26/2014  17:30:00     -507.721     -339.658      -10.085      247.863      173.928      100.500    61435.856    30250.917    10100.162       23.750        5.089      610.859      101.567        0.028      347.458       26.439      860.420
05/26/2014  17:31:00     -521.917     -288.004      -18.244      307.717      189.648      121.804    94689.480    35966.496    14836.118       25.056        7.275      596.108      129.461        0.047      347.457       26.435      860.428
05/26/2014  17:32:00     -526.932     -245.023      -23.277      247.045      211.225      101.284    61031.268    44615.872    10258.525       22.705        5.795      581.114      118.405        0.042      347.359       26.268      860.416
05/26/2014  17:33:00     -489.680     -376.933      -29.709      287.984      214.045      126.828    82934.960    45815.107    16085.432       26.376        7.242      617.952      122.231        0.039      347.406       26.349      860.401
05/26/2014  17:34:00     -467.170     -251.780      -14.996      195.639      169.948       95.430    38274.744    28882.311     9106.864       17.905        3.813      530.699       96.761        0.033      347.419       26.371      860.414
05/26/2014  17:35:00     -603.162     -396.591      -21.508      251.729      221.016      113.353    63367.686    48848.184    12849.008       32.328        6.253      721.865      120.748        0.028      347.275       26.123      860.408
05/26/2014  17:36:00     -457.326     -302.763      -15.643      237.965      225.134      100.493    56627.439    50685.261    10098.771       20.921        5.871      548.464      111.228        0.041      347.317       26.195      860.441
05/26/2014  17:37:00     -380.227     -252.406       -3.809      259.280      174.653       97.913    67226.196    30503.843     9586.981       15.778        5.366      456.378      107.329        0.055      347.317       26.196      860.379
05/26/2014  17:38:00     -385.705     -259.017      -13.842      182.578      123.272       85.329    33334.571    15196.073     7280.982       13.592        2.791      464.605       87.471        0.035      347.413       26.361      860.392
05/26/2014  17:39:00     -452.454     -214.705       -9.231      243.868      166.781      104.003    59471.471    27816.065    10816.557       17.448        4.905      500.812      108.136        0.047      347.453       26.428      860.396
05/26/2014  17:40:00     -214.148     -245.976       -0.219      229.619      137.183       72.081    52724.944    18819.154     5195.663        9.154        3.837      326.134       68.822        0.045      347.485       26.484      860.403
05/26/2014  17:41:00     -345.522     -227.223        2.557      229.524      185.156       97.341    52681.357    34282.588     9475.194       13.371        4.822      413.540      107.574        0.068      347.497       26.505      860.410
05/26/2014  17:42:00     -430.121     -133.517       -3.865      276.737      196.082       99.282    76583.278    38447.964     9856.903       16.384        6.244      450.368      124.529        0.076      347.366       26.280      860.375
05/26/2014  17:43:00     -294.627     -175.650       14.030      206.512      203.773      104.998    42647.175    41523.253    11024.505       10.651        4.760      343.013      129.164        0.142      347.494       26.500      860.383
05/26/2014  17:44:00     -284.706     -137.025        0.404      209.535      150.769       89.298    43904.885    22731.169     7974.133        8.721        3.731      315.965       88.254        0.078      347.535       26.571      860.375
05/26/2014  17:45:00     -438.189     -191.881      -12.618      257.770      184.476       92.628    66445.251    34031.238     8579.889       16.900        5.453      478.359       94.475        0.039      347.528       26.559      860.405
05/26/2014  17:46:00     -547.852     -196.687       -6.883      238.900      205.441      112.356    57073.394    42206.071    12623.898       22.537        5.595      582.089      123.125        0.045      347.420       26.372      860.414
05/26/2014  17:47:00     -321.785     -217.169      -14.925      204.325      149.258       94.235    41748.774    22278.021     8880.201       11.190        3.645      388.211      108.491        0.078      347.397       26.332      860.427
05/26/2014  17:48:00     -340.942     -256.966       -8.623      173.737      141.861       80.295    30184.447    20124.496     6447.219       11.954        2.838      426.934       79.718        0.035      347.418       26.369      860.425
05/26/2014  17:49:00     -282.003     -198.566      -12.252      178.211      139.643       84.932    31759.174    19500.091     7213.394        8.878        2.924      344.897       73.731        0.046      347.481       26.478      860.434
05/26/2014  17:50:00     -365.604     -208.275      -17.004      123.252      102.997       71.109    15190.983    10608.418     5056.531       10.409        1.543      420.766       68.181        0.026      347.591       26.669      860.462
05/26/2014  17:51:00     -488.661     -355.971      -11.970      224.187      206.484      119.152    50259.803    42635.760    14197.095       23.635        5.355      604.570      131.797        0.048      347.266       26.105      860.436
05/26/2014  17:52:00     -390.709     -250.582      -10.307      177.894      217.573       87.945    31646.317    47337.990     7734.251       15.112        4.336      464.160       95.548        0.042      347.272       26.117      860.394
05/26/2014  17:53:00     -389.811     -330.211       -5.877      230.147      271.446      112.652    52967.698    73682.906    12690.557       20.016        6.967      510.874      131.539        0.066      347.308       26.179      860.372
05/26/2014  17:54:00     -688.228     -358.977      -33.172      278.658      200.992      106.681    77650.455    40397.662    11380.823       36.650        6.471      776.223       98.703        0.016      347.223       26.033      860.392
05/26/2014  17:55:00     -702.373     -376.463      -39.132      237.224      194.759      110.878    56275.086    37930.906    12293.911       37.152        5.325      796.902       98.231        0.015      347.126       25.865      860.415
05/26/2014  17:56:00     -453.872     -249.075      -15.536      296.846      215.131      109.202    88117.317    46281.160    11925.029       20.727        7.316      517.724      128.042        0.061      347.188       25.973      860.412
05/26/2014  17:57:00     -532.458     -365.203       10.655      252.232      222.259      121.374    63620.731    49399.160    14731.619       27.235        6.388      645.666      121.365        0.035      347.135       25.882      860.378
05/26/2014  17:58:00     -517.622     -366.017       -9.920      270.513      253.068      115.711    73177.202    64043.261    13389.083       27.627        7.530      633.956      127.991        0.041      347.117       25.850      860.371
05/26/2014  17:59:00     -501.371     -256.531       -7.912      306.329      211.234      101.875    93837.173    44619.787    10378.606       23.301        7.442      563.189      124.001        0.048      347.239       26.061      860.389
05/26/2014  18:00:00     -524.596     -323.093      -13.158      283.069      233.744      134.553    80128.101    54636.286    18104.495       26.628        7.643      616.108      160.576        0.068      347.132       25.878      860.355
05/26/2014  18:01:00     -509.647     -212.186      -19.744      224.758      203.606       89.935    50516.163    41455.408     8088.261       20.259        5.003      552.053      105.465        0.036      347.301       26.168      860.371
05/26/2014  18:02:00     -549.350     -290.832      -27.277      258.584      184.529      102.759    66865.922    34051.051    10559.419       24.927        5.574      621.585      116.094        0.035      347.148       25.903      860.370
05/26/2014  18:03:00     -474.442     -329.467        1.763      308.912      188.657      130.237    95426.704    35591.404    16961.762       24.078        7.399      577.619      149.075        0.067      347.166       25.934      860.343
05/26/2014  18:04:00     -514.088     -316.804        3.942      237.180      223.234      121.833    56254.146    49833.514    14843.216       24.277        6.047      603.864      129.048        0.046      347.137       25.885      860.353
05/26/2014  18:05:00     -476.200     -268.004       -1.303      272.286      174.521      108.033    74139.827    30457.577    11671.112       20.741        5.813      546.436      110.951        0.041      347.193       25.981      860.364
05/26/2014  18:06:00     -426.490     -278.747       13.708      283.480      196.352      108.513    80360.970    38554.043    11775.175       19.521        6.535      509.504      135.722        0.071      347.166       25.935      860.326
05/26/2014  18:07:00     -409.508      -83.369      -19.265      269.710      199.639       87.728    72743.526    39855.601     7696.144       14.763        6.015      417.909       95.411        0.052      347.309       26.182      860.376
05/26/2014  18:08:00     -368.933     -179.324       -3.058      218.262      132.574       82.747    47638.472    17575.778     6847.058       12.016        3.603      410.206       98.005        0.057      347.366       26.279      860.396
05/26/2014  18:09:00     -301.086     -155.210       -6.213      198.019      128.343       75.377    39211.574    16471.942     5681.685        8.806        3.068      338.737       83.602        0.061      347.295       26.157      860.401
05/26/2014  18:10:00     -203.509      -61.841       21.150      235.793      187.305       99.533    55598.383    35083.282     9906.882        7.312        5.029      212.697      105.783        0.247      347.376       26.298      860.380
05/26/2014  18:11:00     -403.850     -286.664       -1.710      316.343      281.020      131.110   100073.029    78972.061    17189.704       22.071        9.812      495.248      164.970        0.111      347.231       26.046      860.411
05/26/2014  18:12:00     -508.910     -376.909       -6.376      263.754      244.016      129.245    69566.226    59543.731    16704.223       27.342        7.291      633.285      146.421        0.053      347.007       25.661      860.402
05/26/2014  18:13:00     -475.727     -257.341      -15.870      228.148      240.154      106.017    52051.467    57673.907    11239.611       20.685        6.048      540.870      129.161        0.057      347.065       25.761      860.412
05/26/2014  18:14:00     -526.662     -250.859        0.364      226.178      183.634       94.243    51156.414    33721.339     8881.743       21.701        4.688      583.355      103.959        0.032      347.082       25.790      860.410
05/26/2014  18:15:00     -555.315     -298.525      -24.130      279.231      183.993      123.463    77969.694    33853.293    15243.194       26.255        6.353      630.470      126.234        0.040      347.045       25.726      860.424
05/26/2014  18:16:00     -430.975     -117.925        4.929      293.624      207.799       97.109    86215.066    43180.244     9430.070       16.922        6.941      446.817      124.838        0.078      347.138       25.887      860.425
05/26/2014  18:17:00     -506.799     -303.053       -5.872      275.538      235.481      124.886    75921.148    55451.526    15596.618       24.782        7.348      590.496      164.745        0.078      347.047       25.729      860.450
05/26/2014  18:18:00     -340.540     -327.408        0.807      264.504      243.755      118.062    69962.229    59416.524    13938.627       18.321        7.166      472.402      150.419        0.101      347.135       25.882      860.439
05/26/2014  18:19:00     -498.587     -275.099       -5.516      249.890      215.317      120.482    62444.842    46361.509    14515.949       22.379        6.166      569.445      119.951        0.044      347.009       25.663      860.451
05/26/2014  18:20:00     -431.453     -236.657       -6.256      226.267      183.783       85.573    51196.626    33776.116     7322.787       16.723        4.615      492.095       89.422        0.033      347.056       25.744      860.480
05/26/2014  18:21:00     -314.370     -149.138       18.829      249.579      174.761      106.406    62289.428    30541.257    11322.156       11.277        5.208      347.952      118.671        0.116      347.135       25.882      860.473
05/26/2014  18:22:00     -386.800     -151.863      -18.684      172.183      153.681       82.201    29646.850    23617.785     6756.964       11.651        3.001      415.544       58.716        0.020      347.025       25.691      860.437
05/26/2014  18:23:00     -264.383     -163.630        8.114      206.272      184.246       83.768    42548.226    33946.707     7017.081        9.011        4.176      310.923       91.899        0.087      347.188       25.974      860.457
05/26/2014  18:24:00     -516.795     -339.816        5.284      268.194      232.817      122.036    71928.253    54203.832    14892.785       26.177        7.051      618.508      135.033        0.048      346.983       25.621      860.446
05/26/2014  18:25:00     -586.658     -289.086       -2.343      277.020      221.721      117.402    76739.818    49160.160    13783.310       28.369        6.984      654.017      134.486        0.042      346.976       25.607      860.426
05/26/2014  18:26:00     -610.828     -428.548       -3.216      379.506      238.140      145.893   144024.674    56710.654    21284.773       38.935       11.101      746.166      176.959        0.056      346.915       25.502      860.424
05/26/2014  18:27:00     -569.333     -347.959      -27.549      318.568      240.079      115.157   101485.864    57637.901    13261.082       30.915        8.619      667.245      145.339        0.047      346.883       25.447      860.440
05/26/2014  18:28:00     -627.767     -312.005      -37.826      232.995      226.511      118.464    54286.692    51307.088    14033.717       30.622        5.981      701.027      106.866        0.023      346.920       25.511      860.440
05/26/2014  18:29:00     -367.732     -282.357       -5.282      197.721      178.890       94.887    39093.409    32001.509     9003.617       14.752        4.005      463.629      103.943        0.050      347.001       25.652      860.483
05/26/2014  18:30:00     -368.454     -143.148       -5.847      240.929      149.774       90.760    58046.954    22432.235     8237.341       12.248        4.436      395.284      116.571        0.087      347.060       25.752      860.502
05/26/2014  18:31:00     -431.039     -288.067       -7.765      284.673      214.672      130.963    81038.949    46084.247    17151.344       20.653        7.214      518.437      148.312        0.082      346.947       25.558      860.477
05/26/2014  18:32:00     -394.819     -177.465      -12.565      333.719      216.166      111.362   111368.039    46727.598    12401.475       17.898        8.525      432.870      141.983        0.108      346.950       25.564      860.496
05/26/2014  18:33:00     -488.849     -232.715       -4.764      386.936      238.481      124.595   149719.672    56873.089    15523.865       25.759       11.106      541.415      163.724        0.091      346.928       25.525      860.531
05/26/2014  18:34:00     -437.811     -377.504       -9.933      332.227      235.665      142.580   110374.720    55537.930    20329.171       26.023        9.312      578.089      177.142        0.094      346.817       25.333      860.461
05/26/2014  18:35:00     -598.414     -382.537      -22.600      346.996      274.544      130.725   120406.102    75374.139    17088.964       35.886       10.643      710.235      160.560        0.051      346.745       25.211      860.495
05/26/2014  18:36:00     -590.272     -244.755      -10.765      261.328      203.326      103.405    68292.401    41341.510    10692.660       26.436        6.016      639.004       93.017        0.021      346.789       25.287      860.504
05/26/2014  18:37:00     -457.169     -211.849       11.106      249.230      224.225      103.252    62115.581    50276.863    10661.070       18.851        6.153      503.869      132.865        0.070      346.807       25.316      860.531
05/26/2014  18:38:00     -530.253     -203.371      -14.753      284.538      184.530      113.322    80961.604    34051.189    12841.806       22.527        6.393      567.915      104.067        0.034      346.752       25.222      860.513
05/26/2014  18:39:00     -354.839     -175.180       -8.956      217.755      181.050       88.958    47417.280    32779.151     7913.570       12.238        4.406      395.726      104.744        0.070      346.847       25.387      860.545
05/26/2014  18:40:00     -380.379     -226.538       -6.113      237.956      163.955       93.527    56623.183    26881.090     8747.277       14.413        4.613      442.728      102.163        0.053      346.862       25.412      860.561
05/26/2014  18:41:00     -428.671     -221.089       -3.322      247.978      173.059      119.269    61493.250    29949.345    14225.038       16.914        5.283      482.327      135.515        0.079      346.793       25.292      860.577
05/26/2014  18:42:00     -418.017     -244.210      -23.971      247.230      216.453      100.771    61122.756    46851.705    10154.838       17.652        5.906      484.125      115.892        0.057      346.768       25.249      860.555
05/26/2014  18:43:00     -485.947     -260.911      -26.531      247.492      194.360       93.952    61252.205    37775.693     8826.903       20.637        5.393      551.561      117.155        0.045      346.744       25.208      860.555
05/26/2014  18:44:00     -401.169     -132.497        9.332      199.117      199.476       93.816    39647.458    39790.746     8801.505       13.339        4.412      422.483      100.167        0.056      346.804       25.311      860.578
05/26/2014  18:45:00     -439.591     -343.700        8.891      284.869      164.069      122.286    81150.161    26918.779    14953.856       21.721        6.151      558.005      136.542        0.060      346.772       25.254      860.535
05/26/2014  18:46:00     -467.171     -433.637      -17.625      238.888      186.365      111.648    57067.685    34731.893    12465.219       25.541        5.213      637.409      112.001        0.031      346.665       25.074      860.547
05/26/2014  18:47:00     -488.510     -302.422      -17.261      266.548      207.420       93.075    71047.745    43023.024     8662.983       22.654        6.137      574.545      102.693        0.032      346.685       25.107      860.561
05/26/2014  18:48:00     -494.915     -180.647      -16.550      202.440      197.309       96.708    40981.827    38930.951     9352.521       18.354        4.463      526.853      114.154        0.047      346.716       25.160      860.558
05/26/2014  18:49:00     -283.325     -141.303       19.043      208.134      160.133       92.976    43319.648    25642.467     8644.604        8.909        3.880      316.606      106.136        0.112      346.749       25.218      860.565
05/26/2014  18:50:00     -559.394     -174.328      -13.106      235.699      242.437       97.835    55554.141    58775.928     9571.773       23.367        6.195      585.928       89.566        0.023      346.713       25.155      860.589
05/26/2014  18:51:00     -528.359     -260.712      -13.723      236.515      172.021      102.067    55939.242    29591.134    10417.769       22.162        4.797      589.181      111.315        0.036      346.653       25.052      860.620
05/26/2014  18:52:00     -509.314     -295.693       -3.625      227.037      192.863      102.668    51545.715    37195.972    10540.665       22.305        4.964      588.927      108.765        0.034      346.599       24.958      860.602
05/26/2014  18:53:00     -494.493     -109.321       -5.780      252.262      217.090      103.572    63636.164    47128.196    10727.082       18.898        6.075      506.433      115.943        0.052      346.648       25.043      860.610
05/26/2014  18:54:00     -443.134     -260.477       -6.853      291.591      171.359      105.093    85025.203    29363.889    11044.524       19.482        6.272      514.020      125.897        0.060      346.607       24.973      860.586
05/26/2014  18:55:00     -502.492     -301.711      -14.133      299.633      191.162      108.677    89779.976    36542.878    11810.664       24.090        6.907      586.113      143.091        0.060      346.601       24.962      860.608
05/26/2014  18:56:00     -490.614     -246.731      -12.234      224.099      184.264       98.315    50220.285    33953.292     9665.934       19.776        4.692      549.162      111.237        0.041      346.618       24.991      860.638
05/26/2014  18:57:00     -429.167     -220.129      -16.608      221.803      184.995       89.351    49196.677    34223.062     7983.661       16.214        4.570      482.328      106.168        0.048      346.648       25.044      860.654
05/26/2014  18:58:00     -327.929     -265.696        8.515      221.833      204.656      111.523    49209.695    41884.101    12437.411       14.085        5.177      422.057      126.855        0.090      346.564       24.898      860.641
05/26/2014  18:59:00     -560.439     -298.168       -8.103      387.473      245.094      115.899   150135.353    60070.917    13432.599       31.331       11.182      634.820      162.961        0.066      346.528       24.836      860.644
05/26/2014  19:00:00     -562.577     -246.199      -30.498      293.569      244.965      119.746    86182.766    60008.077    14339.074       26.925        8.026      614.090      140.487        0.052      346.491       24.774      860.645
05/26/2014  19:01:00     -345.394     -154.401        5.180      242.722      183.226       98.411    58914.152    33571.893     9684.681       12.265        5.109      378.334      122.653        0.105      346.550       24.875      860.662
05/26/2014  19:02:00     -562.280     -206.660      -18.806      246.198      193.055      115.536    60613.381    37270.370    13348.615       23.520        5.562      599.055      113.464        0.036      346.481       24.757      860.660
05/26/2014  19:03:00     -343.494     -223.030        2.698      229.952      236.051      111.086    52877.776    55720.020    12339.996       14.431        6.047      409.549      131.170        0.103      346.526       24.834      860.682
05/26/2014  19:04:00     -606.907     -442.469      -24.368      338.751      266.247      150.582   114752.150    70887.684    22674.948       38.647       10.416      751.075      190.229        0.064      346.410       24.634      860.646
05/26/2014  19:05:00     -403.026     -220.783        1.658      212.843      174.458       96.961    45302.138    30435.443     9401.512       14.814        4.257      459.538       99.452        0.047      346.466       24.731      860.673
05/26/2014  19:06:00     -571.413     -274.998      -17.715      228.922      168.166       96.067    52405.469    28279.734     9228.809       24.616        4.496      634.143      103.785        0.027      346.410       24.632      860.684
05/26/2014  19:07:00     -516.142     -288.389      -28.168      242.197      192.566      106.002    58659.155    37081.814    11236.395       22.865        5.349      591.245      115.696        0.038      346.417       24.645      860.686
05/26/2014  19:08:00     -382.312      -99.666        3.730      232.784      170.824      102.893    54188.249    29180.790    10586.899       12.501        4.698      395.090      100.030        0.064      346.471       24.737      860.684
05/26/2014  19:09:00     -407.261     -232.824      -13.215      173.233      232.380       83.232    30009.628    54000.651     6927.560       15.557        4.547      469.115       80.715        0.030      346.413       24.639      860.723
05/26/2014  19:10:00     -424.795     -216.186      -18.834      199.120      219.463      102.124    39648.958    48164.008    10429.232       16.287        4.912      476.641      106.573        0.050      346.408       24.631      860.685
05/26/2014  19:11:00     -390.431     -218.698        4.536      223.594      176.291       98.146    49994.465    31078.553     9632.628       14.548        4.535      447.509       94.821        0.045      346.416       24.645      860.705
05/26/2014  19:12:00     -503.447     -324.915      -11.890      351.072      240.802      122.829   123251.285    57985.491    15086.866       27.771        9.816      599.190      135.512        0.051      346.337       24.510      860.699
05/26/2014  19:13:00     -420.976     -187.377       -4.449      256.830      177.272      109.082    65961.537    31425.340    11898.926       16.080        5.464      460.794      133.878        0.084      346.370       24.565      860.702
05/26/2014  19:14:00     -413.505     -252.568      -11.774      209.579      192.450       97.128    43923.434    37037.170     9433.871       16.264        4.520      484.538       96.740        0.040      346.372       24.570      860.716
05/26/2014  19:15:00     -561.035     -236.806       -4.323      286.363      154.692       96.848    82003.783    23929.703     9379.501       24.306        5.766      608.964      121.361        0.040      346.354       24.536      860.750
05/26/2014  19:16:00     -519.306     -251.944      -12.338      264.312      230.175      109.814    69861.039    52980.319    12059.029       23.408        6.745      577.195      126.172        0.048      346.324       24.487      860.747
05/26/2014  19:17:00     -395.818     -188.212        3.385      222.707      182.768      100.223    49598.550    33404.181    10044.580       14.256        4.652      438.287      112.736        0.066      346.341       24.516      860.789
05/26/2014  19:18:00     -392.289     -278.344       -3.722      245.480      190.635      116.795    60260.670    36341.868    13640.986       17.079        5.512      481.006      143.891        0.089      346.312       24.465      860.765
05/26/2014  19:19:00     -529.463     -210.868      -18.465      207.714      198.615      101.013    43145.165    39447.804    10203.655       20.895        4.640      569.909      103.714        0.033      346.281       24.412      860.765
05/26/2014  19:20:00     -395.505     -128.982      -17.466      202.506      155.598       79.422    41008.878    24210.710     6307.854       12.243        3.576      416.006       78.766        0.036      346.302       24.450      860.798
05/26/2014  19:21:00     -510.369     -239.648       -4.831      289.974      183.337       97.381    84085.115    33612.395     9482.996       22.253        6.359      563.833      118.947        0.045      346.257       24.371      860.776
05/26/2014  19:22:00     -492.905     -147.765      -17.962      226.878      247.492      103.188    51473.426    61252.251    10647.784       19.422        6.169      514.577      103.093        0.040      346.247       24.352      860.771
05/26/2014  19:23:00     -532.230     -283.402      -24.256      278.866      221.341      104.036    77766.436    48992.033    10823.451       25.085        6.879      602.980      114.995        0.036      346.227       24.318      860.763
05/26/2014  19:24:00     -323.946     -231.851       -5.782      218.975      169.250      110.546    47950.053    28645.514    12220.418       12.375        4.441      398.366      111.411        0.078      346.236       24.335      860.788
05/26/2014  19:25:00     -440.470     -259.771       -6.102      220.672      204.707       97.328    48696.192    41904.900     9472.709       18.078        5.004      511.366      115.935        0.051      346.211       24.291      860.793
05/26/2014  19:26:00     -334.362     -185.703       -1.989      171.059      177.536       86.271    29261.116    31518.976     7442.769       10.724        3.411      382.470       91.769        0.058      346.197       24.267      860.791
05/26/2014  19:27:00     -369.391     -117.204      -11.968      211.720      153.313       87.166    44825.486    23504.789     7597.876       11.311        3.796      387.539       85.935        0.049      346.205       24.281      860.808
05/26/2014  19:28:00     -253.944     -148.480       23.040      198.894      213.581       94.845    39558.823    45616.986     8995.602        9.060        4.709      294.166      101.714        0.120      346.192       24.259      860.794
05/26/2014  19:29:00     -480.012     -221.156      -21.980      242.676      185.090      106.775    58891.592    34258.385    11400.994       19.216        5.228      528.509      110.895        0.044      346.139       24.168      860.816
05/26/2014  19:30:00     -543.888     -269.528      -24.151      304.494      223.056      116.451    92716.299    49754.025    13560.907       26.250        7.802      607.008      121.952        0.040      346.106       24.111      860.827
05/26/2014  19:31:00     -392.755     -107.579       -3.531      237.809      209.083      108.660    56553.218    43715.887    11807.023       13.894        5.604      407.222      126.397        0.096      346.141       24.172      860.835
05/26/2014  19:32:00     -509.979     -138.715      -19.605      187.118      202.521       99.303    35013.099    41014.879     9861.038       18.278        4.294      528.508      101.182        0.037      346.106       24.111      860.845
05/26/2014  19:33:00     -448.451      -87.563      -13.958      210.715      160.109      105.112    44400.725    25635.042    11048.491       14.501        4.054      456.920      107.569        0.055      346.121       24.136      860.859
05/26/2014  19:34:00     -334.864     -145.702       -4.108      199.853      176.273       90.230    39941.353    31072.025     8141.465       10.625        3.958      365.189       99.887        0.075      346.102       24.104      860.848
05/26/2014  19:35:00     -520.353     -329.558      -31.250      185.408      187.306      101.566    34376.029    35083.579    10315.752       23.005        3.989      615.935      105.311        0.029      346.074       24.057      860.851
05/26/2014  19:36:00     -587.190     -484.113      -50.543      213.833      210.223      111.210    45724.672    44193.852    12367.572       34.198        5.114      761.024      109.736        0.021      346.035       23.988      860.813
05/26/2014  19:37:00     -261.539     -109.633       13.807      213.549      148.804      112.977    45603.142    22142.507    12763.823        8.054        4.025      283.587      111.482        0.155      346.088       24.079      860.854
05/26/2014  19:38:00     -438.549     -173.317       -0.748      273.478      252.192      101.744    74790.264    63600.748    10351.857       18.552        7.437      471.555      100.714        0.046      346.053       24.019      860.834
05/26/2014  19:39:00     -353.735     -286.347        8.955      238.817      174.353      114.790    57033.390    30398.877    13176.824       15.389        5.030      455.107      121.272        0.071      346.008       23.944      860.862
05/26/2014  19:40:00     -380.188     -171.887       -4.948      217.357      182.168       94.629    47244.045    33185.160     8954.623       13.173        4.469      417.239      106.622        0.065      345.999       23.929      860.898
05/26/2014  19:41:00     -360.490      -96.332      -20.231      207.966      150.307       93.773    43250.028    22592.064     8793.351       10.712        3.732      373.139       91.075        0.060      346.005       23.938      860.892
05/26/2014  19:42:00     -231.093     -170.099        4.556      198.429      198.234       79.424    39374.076    39296.823     6308.225        8.365        4.249      286.945       94.856        0.109      345.998       23.925      860.926
05/26/2014  19:43:00     -333.594     -276.902      -18.904      217.997      178.004      102.390    47522.813    31685.284    10483.760       13.899        4.485      433.544      111.777        0.066      345.944       23.833      860.901
05/26/2014  19:44:00     -384.229     -212.429        7.734      184.372      156.544      100.486    33992.950    24505.956    10097.390       13.069        3.430      439.042      107.939        0.060      345.917       23.787      860.917
05/26/2014  19:45:00     -292.742     -184.419       -3.800      217.320      148.913       81.473    47227.895    22175.005     6637.887        9.787        3.802      345.989       81.104        0.055      345.914       23.783      860.926
05/26/2014  19:46:00     -466.074     -184.155       -2.285      292.898      219.214      109.185    85789.008    48054.768    11921.453       19.843        7.288      501.137      122.496        0.060      345.880       23.724      860.908
05/26/2014  19:47:00     -384.428     -113.021      -21.316      184.330      215.576       92.036    33977.595    46473.075     8470.714       12.495        4.446      400.698       94.013        0.055      345.870       23.706      860.928
05/26/2014  19:48:00     -411.593     -240.880      -22.911      224.394      179.165      101.025    50352.755    32100.215    10206.131       16.029        4.633      476.898      117.725        0.061      345.818       23.618      860.919
05/26/2014  19:49:00     -350.800     -231.571      -20.637      185.577      152.437       81.158    34438.719    23237.180     6586.700       12.067        3.213      420.340       81.260        0.037      345.840       23.654      860.943
05/26/2014  19:50:00     -277.660     -123.583        5.512      188.207      142.025       75.314    35422.025    20171.062     5672.189        7.682        3.063      303.920       94.099        0.096      345.829       23.637      860.995
05/26/2014  19:51:00     -383.527      -75.656       -3.828      198.354      135.254       82.847    39344.471    18293.632     6863.578       10.865        3.225      390.918       97.503        0.062      345.801       23.589      860.996
05/26/2014  19:52:00     -347.728     -217.272      -13.376      235.089      229.078       95.847    55266.732    52476.539     9186.713       14.259        5.846      410.027      112.564        0.075      345.815       23.613      861.002
05/26/2014  19:53:00     -377.388     -171.424        8.281      231.325      197.458       91.490    53511.427    38989.795     8370.459       13.635        5.044      414.497      105.666        0.065      345.779       23.552      861.010
05/26/2014  19:54:00     -339.252     -161.185       -3.632      262.522      147.052       84.322    68917.728    21624.379     7110.247       11.935        4.883      375.596      110.740        0.087      345.769       23.534      861.005
05/26/2014  19:55:00     -339.368     -152.425       -3.144      181.117      124.838       78.542    32803.478    15584.526     6168.855        9.647        2.728      372.027       90.203        0.059      345.747       23.495      861.033
05/26/2014  19:56:00     -318.021     -198.389       -5.129      184.579      179.607       95.688    34069.336    32258.747     9156.243       10.799        3.774      374.828       91.501        0.060      345.745       23.491      861.016
05/26/2014  19:57:00     -422.247     -179.358      -19.033      204.932      186.914       89.888    41997.141    34936.659     8079.854       14.790        4.251      458.761       95.663        0.043      345.713       23.437      861.035
05/26/2014  19:58:00     -448.112     -246.031      -20.199      188.053      166.678       86.935    35363.825    27781.544     7557.672       16.621        3.535      511.210       95.117        0.035      345.701       23.416      861.063
05/26/2014  19:59:00     -433.456     -292.790      -22.631      226.300      199.689       88.933    51211.813    39875.690     7909.030       18.654        4.950      523.078       99.682        0.036      345.678       23.376      861.081
05/26/2014  20:00:00     -324.001     -217.858        6.108      160.035      161.781       82.190    25611.357    26173.213     6755.244       10.550        2.927      390.434       89.369        0.052      345.670       23.362      861.074
05/26/2014  20:01:00     -355.649     -225.193       -6.254      246.327      159.485       92.493    60676.962    25435.360     8555.028       13.593        4.733      420.949      103.661        0.061      345.650       23.328      861.143
05/26/2014  20:02:00     -383.466     -245.225       -2.350      225.036      196.732       95.399    50641.117    38703.559     9100.882       15.280        4.922      455.172       85.553        0.035      345.658       23.342      861.118
05/26/2014  20:03:00     -227.304     -122.937       -0.120      124.016      133.175       67.799    15380.014    17735.497     4596.709        5.224        1.886      258.420       70.234        0.074      345.653       23.334      861.139
05/26/2014  20:04:00     -369.398     -252.002      -19.663      199.500      159.011       84.112    39800.329    25284.369     7074.882       13.624        3.608      447.169       91.838        0.042      345.633       23.298      861.185
05/26/2014  20:05:00     -357.491     -226.748       -3.514      183.828      169.192       69.167    33792.594    28625.837     4784.080       12.320        3.360      423.337       69.841        0.027      345.634       23.300      861.194
05/26/2014  20:06:00     -308.590     -272.068        3.439      153.252      150.621       83.640    23486.047    22686.792     6995.711       11.120        2.658      411.399       78.011        0.036      345.616       23.270      861.212
05/26/2014  20:07:00     -400.180     -194.435       -4.211      174.890      147.140       71.684    30586.652    21650.141     5138.560       12.766        2.869      444.915       66.727        0.022      345.608       23.257      861.217
05/26/2014  20:08:00     -294.057     -209.852       17.932      176.138      126.192       84.442    31024.753    15924.318     7130.509        9.244        2.704      361.258       93.170        0.067      345.598       23.239      861.244
05/26/2014  20:09:00     -323.639     -202.589      -14.821      229.623      153.390       72.590    52726.547    23528.643     5269.236       11.375        4.076      381.817       72.306        0.036      345.583       23.213      861.254
05/26/2014  20:10:00     -280.815     -126.487      -11.331      129.112      131.639       55.802    16669.809    17328.836     3113.813        6.604        1.856      307.987       58.985        0.037      345.567       23.187      861.254
05/26/2014  20:11:00     -223.251     -185.547       -9.044      186.276      153.725       88.209    34698.851    23631.413     7780.814        7.522        3.306      290.291       98.040        0.114      345.554       23.164      861.251
05/26/2014  20:12:00     -180.771      -93.338        7.994      140.593      132.330       62.396    19766.514    17511.331     3893.252        4.130        2.059      203.446       68.467        0.113      345.538       23.137      861.268
05/26/2014  20:13:00     -319.359     -232.430       13.115      305.698      188.324       94.384    93451.160    35466.052     8908.398       14.698        6.891      394.986      124.613        0.100      345.517       23.102      861.270
05/26/2014  20:14:00     -346.523     -272.344        0.461      192.942      137.354       88.611    37226.636    18866.114     7851.840       12.908        3.197      440.737       88.016        0.040      345.516       23.098      861.244
05/26/2014  20:15:00     -344.407     -166.951       -1.438      219.402      164.641       85.556    48137.089    27106.514     7319.887       11.451        4.128      382.739       91.957        0.058      345.488       23.050      861.259
05/26/2014  20:16:00     -417.170     -237.167        1.301      257.300      228.778      115.892    66203.416    52339.294    13430.859       18.110        6.599      479.874      132.274        0.076      345.481       23.039      861.251
05/26/2014  20:17:00     -405.707     -223.909        3.805      230.642      203.044       94.161    53195.593    41227.033     8866.224       15.900        5.164      463.393      112.518        0.059      345.459       23.002      861.274
05/26/2014  20:18:00     -507.489     -160.816      -30.037      196.909      208.413       86.702    38772.979    43435.940     7517.186       18.700        4.486      532.360       92.239        0.030      345.468       23.016      861.292
05/26/2014  20:19:00     -278.439     -158.936      -15.358      179.592      123.729       89.918    32253.143    15308.941     8085.245        7.932        2.782      320.608      102.774        0.103      345.461       23.003      861.316
05/26/2014  20:20:00     -198.977     -202.703        1.118      149.870      107.831       68.162    22461.113    11627.531     4646.059        5.970        1.937      284.043       75.168        0.070      345.448       22.982      861.326
05/26/2014  20:21:00     -237.657     -187.496        2.197      173.621      159.746       74.685    30144.297    25518.636     5577.795        7.643        3.062      302.713       88.893        0.086      345.406       22.910      861.333
05/26/2014  20:22:00     -414.601     -248.893        4.347      250.270      153.303       88.534    62635.088    23501.721     7838.190       16.390        4.699      483.572      114.556        0.056      345.385       22.873      861.348
05/26/2014  20:23:00     -295.296     -184.966        5.835      170.315      142.058       79.388    29007.200    20180.350     6302.500        8.846        2.775      348.442       87.512        0.063      345.384       22.872      861.337
05/26/2014  20:24:00     -235.713      -48.423       12.962      240.021      162.289       98.115    57609.975    26337.684     9626.574        7.581        4.679      240.635      123.295        0.263      345.330       22.782      861.372
05/26/2014  20:25:00     -312.745     -154.775        6.499      155.284      142.362       72.427    24113.091    20266.892     5245.662        8.571        2.481      348.948       81.254        0.054      345.338       22.794      861.390
05/26/2014  20:26:00     -297.154     -149.303       -3.738      145.259      122.784       64.621    21100.154    15076.026     4175.858        7.547        2.018      332.553       72.003        0.047      345.336       22.791      861.402
05/26/2014  20:27:00     -291.417     -103.186      -13.220      162.800       95.860       61.570    26503.840     9189.055     3790.911        6.761        1.974      309.146       62.088        0.040      345.320       22.763      861.439
05/26/2014  20:28:00     -287.702     -134.466       -4.544      121.587      101.259       62.611    14783.301    10253.390     3920.185        6.491        1.448      317.574       59.219        0.035      345.339       22.795      861.433
05/26/2014  20:29:00     -346.307     -140.086        6.682      196.208      152.673       77.953    38497.429    23309.154     6076.658       10.373        3.394      373.567       91.218        0.060      345.290       22.710      861.461
05/26/2014  20:30:00     -333.051     -126.060       -4.474      242.081      146.176       78.627    58603.412    21367.531     6182.220       10.648        4.308      356.110       92.788        0.068      345.284       22.701      861.467
05/26/2014  20:31:00     -236.702     -151.733       13.905      143.696      112.444       85.059    20648.472    12643.757     7235.075        5.988        2.026      281.160       84.215        0.090      345.286       22.704      861.504
05/26/2014  20:32:00     -388.238     -188.880      -13.516      202.129      163.981       79.138    40856.038    26889.726     6262.828       13.028        3.700      431.746       64.356        0.022      345.302       22.730      861.498
05/26/2014  20:33:00     -223.386     -193.179       -4.203      124.090      106.047       62.319    15398.341    11246.056     3883.670        5.888        1.526      295.329       58.081        0.039      345.282       22.696      861.510
05/26/2014  20:34:00     -328.309     -174.932      -11.969      192.838      164.532       98.699    37186.606    27070.788     9741.434       10.625        3.700      372.005      101.624        0.075      345.251       22.644      861.483
05/26/2014  20:35:00     -294.627     -104.205      -23.696      153.982      177.151       88.695    23710.326    31382.434     7866.848        8.058        3.148      312.511       87.556        0.078      345.242       22.629      861.502
05/26/2014  20:36:00     -290.789     -176.846        0.593      223.466      122.638       67.898    49937.066    15040.092     4610.092        9.270        3.479      340.342       98.368        0.084      345.241       22.627      861.528
05/26/2014  20:37:00     -255.072      -81.313       11.137      158.817      135.155       60.796    25222.797    18266.921     3696.128        5.948        2.359      267.719       60.571        0.051      345.214       22.582      861.526
05/26/2014  20:38:00     -223.990     -213.899        3.224      245.954      179.997       99.145    60493.523    32398.815     9829.829        9.931        5.136      309.716      108.003        0.122      345.222       22.593      861.524
05/26/2014  20:39:00     -299.513     -153.310       -4.564      146.242      116.275       66.601    21386.844    13519.964     4435.683        7.628        1.967      336.470       68.284        0.041      345.203       22.562      861.551
05/26/2014  20:40:00     -478.582     -159.872      -36.582      168.271      171.332       80.125    28315.033    29354.546     6420.078       16.000        3.204      504.579       80.484        0.025      345.202       22.560      861.564
05/26/2014  20:41:00     -337.098     -110.645       -6.305      224.074      119.211       76.647    50209.062    14211.271     5874.754        9.809        3.515      354.792       85.599        0.058      345.185       22.532      861.599
05/26/2014  20:42:00     -313.105     -299.375      -16.797      165.697      165.838       76.376    27455.371    27502.245     5833.300       12.435        3.040      433.198       88.864        0.042      345.200       22.558      861.608
05/26/2014  20:43:00     -131.105      -64.106       10.989      111.318       95.639       41.708    12391.724     9146.802     1739.577        2.234        1.164      145.938       37.505        0.066      345.139       22.454      861.641
05/26/2014  20:44:00      -95.489      -89.236        4.094      101.210       68.861       40.438    10243.438     4741.903     1635.240        1.686        0.831      130.695       45.693        0.122      345.145       22.463      861.658
05/26/2014  20:45:00     -395.957     -163.694      -15.751      196.978      155.800       73.026    38800.286    24273.709     5332.791       12.610        3.420      428.460       92.206        0.046      345.152       22.474      861.655
05/26/2014  20:46:00     -271.720     -120.250       -3.070      135.011      114.758       63.894    18227.962    13169.460     4082.400        6.188        1.774      297.140       62.802        0.045      345.151       22.472      861.699
05/26/2014  20:47:00     -492.904     -252.363      -39.140      194.741      144.611       79.781    37924.176    20912.233     6365.036       18.667        3.260      553.752       82.112        0.022      345.169       22.503      861.698
05/26/2014  20:48:00     -343.737     -242.078       -8.759      201.451      150.806       80.971    40582.661    22742.343     6556.315       12.334        3.494      420.424       95.713        0.052      345.139       22.452      861.716
05/26/2014  20:49:00     -206.500     -169.308        1.743      141.101      119.774       66.430    19909.506    14345.735     4412.946        5.498        1.933      267.034       60.812        0.052      345.091       22.372      861.745
05/26/2014  20:50:00     -111.239     -126.529       25.581      175.080      110.444       72.579    30653.076    12197.821     5267.778        3.857        2.406      168.475       90.233        0.287      345.103       22.392      861.785
05/26/2014  20:51:00     -108.854      -27.285        7.603      124.118       82.347       45.633    15405.228     6781.098     2082.382        1.846        1.213      112.221       55.413        0.244      345.037       22.280      861.817
05/26/2014  20:52:00     -218.409      -80.306       -6.252      160.743      115.725       49.072    25838.372    13392.372     2408.092        4.791        2.082      232.705       63.211        0.074      345.028       22.263      861.805
05/26/2014  20:53:00     -190.632      -59.097      -10.128      110.958       87.339       67.777    12311.676     7628.156     4593.755        3.223        1.227      199.582       55.119        0.076      345.034       22.275      861.831
05/26/2014  20:54:00     -310.125      -96.125       11.244      194.336      102.568       63.220    37766.327    10520.247     3996.720        7.890        2.614      324.681       60.885        0.035      345.034       22.274      861.804
05/26/2014  20:55:00     -177.804     -122.752      -10.106      132.426      123.438       51.591    17536.752    15236.977     2661.663        4.110        1.772      216.061       62.750        0.084      345.025       22.261      861.841
05/26/2014  20:56:00     -278.173     -193.260      -15.819      170.666      137.293       87.446    29126.864    18849.279     7646.763        8.529        2.781      338.718       86.849        0.066      345.002       22.219      861.842
05/26/2014  20:57:00     -163.066      -61.259      -11.657      100.125       82.468       41.435    10025.099     6800.919     1716.847        2.451        0.927      174.193       27.879        0.026      344.999       22.216      861.848
05/26/2014  20:58:00     -180.087      -76.194       -7.120       67.590       64.463       36.561     4568.396     4155.419     1336.690        2.417        0.503      195.543       36.018        0.034      344.954       22.136      861.856
05/26/2014  20:59:00      -83.677      -46.053        6.687       91.970       46.929       33.137     8458.541     2202.357     1098.041        1.046        0.588       95.513       46.036        0.232      344.885       22.021      861.858
05/26/2014  21:00:00      -50.789      -63.582       10.069       61.168       42.594       37.356     3741.498     1814.222     1395.483        0.684        0.348       81.377       35.264        0.188      344.945       22.125      861.868
05/26/2014  21:01:00     -244.900     -128.274      -11.185       69.412       94.634       47.400     4818.071     8955.513     2246.764        4.628        0.801      276.460       45.494        0.027      344.929       22.093      861.869
05/26/2014  21:02:00      -88.217      -72.162       11.299      108.583       47.059       41.445    11790.318     2214.595     1717.676        1.442        0.786      113.972       43.953        0.149      344.914       22.070      861.883
05/26/2014  21:03:00      -57.718      -48.606        3.309       53.236       39.186       20.287     2834.025     1535.533      411.558        0.524        0.239       75.458       23.717        0.099      344.909       22.061      861.874
05/26/2014  21:04:00      -95.188      -70.893        7.146       68.548       42.435       30.417     4698.847     1800.766      925.203        1.078        0.371      118.687       33.639        0.080      344.891       22.031      861.908
05/26/2014  21:05:00     -225.641      -50.211       -6.750      135.990       92.725       48.737    18493.189     8597.884     2375.343        4.147        1.473      231.160       44.969        0.038      344.867       21.989      861.894
05/26/2014  21:06:00     -312.847     -183.727       -5.482      115.358      120.223       55.866    13307.416    14453.575     3120.967        8.126        1.544      362.807       41.999        0.013      344.868       21.990      861.906
05/26/2014  21:07:00      -70.193     -102.049       23.546       95.814       93.768       47.536     9180.300     8792.393     2259.687        1.806        1.012      123.859       52.942        0.183      344.838       21.940      861.904
05/26/2014  21:08:00     -207.112     -123.064        6.423      141.656       96.766       51.721    20066.523     9363.746     2675.087        4.509        1.605      240.915       68.726        0.081      344.839       21.941      861.906
05/26/2014  21:09:00     -280.462     -130.696      -10.196      140.344      148.842       74.577    19696.540    22154.006     5561.758        7.162        2.371      309.419       67.162        0.047      344.860       21.976      861.948
05/26/2014  21:10:00     -162.010      -65.187       23.931      155.158       95.732       67.094    24073.876     9164.569     4501.599        3.440        1.887      174.632       68.621        0.154      344.873       21.999      861.915
05/26/2014  21:11:00     -169.711     -107.470        8.503       97.418       86.930       49.444     9490.322     7556.826     2444.741        2.995        0.975      200.878       46.710        0.054      344.849       21.958      861.929
05/26/2014  21:12:00     -131.756      -27.286        6.385      107.131       91.201       50.645    11477.085     8317.637     2564.952        2.025        1.118      134.552       53.474        0.158      344.805       21.882      861.957
05/26/2014  21:13:00     -199.699     -125.585      -18.425      115.339      138.049       49.550    13303.194    19057.575     2455.227        4.540        1.741      235.905       51.095        0.047      344.819       21.906      861.966
05/26/2014  21:14:00     -159.702      -62.015        0.301       92.835       91.824       50.173     8618.338     8431.723     2517.372        2.446        0.978      171.320       45.427        0.070      344.793       21.862      861.982
05/26/2014  21:15:00     -227.160      -73.309        7.317      151.064       85.699       51.993    22820.207     7344.379     2703.294        4.494        1.643      238.697       58.819        0.061      344.737       21.767      861.977
05/26/2014  21:16:00     -245.770     -113.613       -1.259       91.461       87.355       49.495     8365.201     7630.843     2449.794        4.588        0.922      270.760       42.433        0.025      344.782       21.841      861.995
05/26/2014  21:17:00     -272.017     -113.795        3.092      109.781       75.006       45.026    12051.773     5625.841     2027.303        5.332        0.985      294.860       43.818        0.022      344.746       21.779      862.013
05/26/2014  21:18:00     -254.473     -182.755      -12.401      127.419      112.294       64.267    16235.653    12610.000     4130.243        6.564        1.649      313.298       64.232        0.042      344.763       21.809      862.000
05/26/2014  21:19:00     -126.004      -65.356        0.602      112.632       76.475       58.301    12685.965     5848.455     3399.064        2.104        1.097      141.945       54.631        0.148      344.719       21.734      862.020
05/26/2014  21:20:00     -134.152      -92.927       13.896      113.819       96.972       54.714    12954.842     9403.619     2993.668        2.608        1.268      163.194       59.497        0.133      344.609       21.547      862.021
05/26/2014  21:21:00     -191.630     -109.905       -0.903      123.507      108.239       51.606    15254.011    11715.769     2663.161        3.921        1.482      220.910       58.399        0.070      344.680       21.669      862.030
05/26/2014  21:22:00     -295.533      -82.133       -8.331      120.049       98.769       50.333    14411.824     9755.409     2533.409        6.042        1.335      306.734       44.371        0.021      344.668       21.646      862.061
05/26/2014  21:23:00     -160.057       -1.777        5.906      155.862      140.553       74.100    24293.060    19755.122     5490.834        3.759        2.477      160.067       76.060        0.226      344.544       21.437      862.036
05/26/2014  21:24:00     -291.425      -30.177      -12.764      119.777       97.477       57.539    14346.641     9501.793     3310.778        5.658        1.358      292.983       62.572        0.046      344.670       21.651      862.058
05/26/2014  21:25:00     -290.359     -107.170       -3.629      137.287      125.981       58.670    18847.657    15871.243     3442.191        6.698        1.908      309.505       34.347        0.012      344.656       21.627      862.059
05/26/2014  21:26:00     -229.704      -60.240       -0.288      152.469      112.054       55.011    23246.763    12556.007     3026.164        4.760        1.941      237.471       63.226        0.071      344.667       21.645      862.076
05/26/2014  21:27:00     -268.250       -1.110      -22.557       80.708       59.138       43.078     6513.737     3497.271     1855.714        4.216        0.593      268.252       43.745        0.027      344.633       21.586      862.112
05/26/2014  21:28:00     -254.992      -86.174        6.008      120.742       95.267       53.790    14578.622     9075.841     2893.343        4.951        1.327      269.160       60.004        0.050      344.632       21.585      862.120
05/26/2014  21:29:00     -326.147     -100.909        3.153      165.595      118.946       65.516    27421.808    14148.090     4292.284        8.120        2.293      341.401       78.456        0.053      344.617       21.559      862.115
05/26/2014  21:30:00     -264.797      -52.239      -13.818      118.040       84.204       53.847    13933.496     7090.277     2899.502        4.848        1.196      269.901       63.132        0.055      344.602       21.536      862.123
05/26/2014  21:31:00     -167.780     -144.104       -0.771      137.771      131.719       69.437    18980.903    17349.987     4821.547        4.503        2.058      221.169       75.106        0.115      344.572       21.483      862.154
05/26/2014  21:32:00     -147.930      -33.418        7.917      125.593       91.595       55.085    15773.570     8389.665     3034.381        2.512        1.360      151.658       65.522        0.187      344.477       21.320      862.161
05/26/2014  21:33:00     -273.406     -130.638      -17.971      129.622      122.702       69.515    16801.905    15055.661     4832.302        6.441        1.834      303.014       60.075        0.039      344.540       21.428      862.161
05/26/2014  21:34:00     -327.709      -38.846      -23.062      132.102       81.804       55.349    17450.869     6691.861     3063.518        6.831        1.360      330.004       68.859        0.044      344.495       21.350      862.176
05/26/2014  21:35:00     -280.653      -92.591      -13.452      187.334      120.811       73.865    35093.893    14595.226     5456.109        7.132        2.757      295.532       83.519        0.080      344.526       21.403      862.153
05/26/2014  21:36:00     -358.857      -70.142      -24.783      143.226      135.789       63.588    20513.741    18438.552     4043.492        8.865        2.150      365.648       65.143        0.032      344.532       21.414      862.166
05/26/2014  21:37:00     -280.647      -99.928      -25.434      140.447      122.997       62.021    19725.482    15128.143     3846.664        6.404        1.935      297.906       74.494        0.063      344.504       21.366      862.181
05/26/2014  21:38:00     -376.451      -59.629      -11.396      141.229      106.936       63.172    19945.492    11435.275     3990.715        9.038        1.769      381.145       67.828        0.032      344.548       21.440      862.165
05/26/2014  21:39:00     -272.646      -77.367       -2.281      133.864      130.131       58.596    17919.672    16934.060     3433.511        5.930        1.914      283.411       63.620        0.050      344.503       21.366      862.183
05/26/2014  21:40:00     -305.314     -125.048      -13.558      122.089       91.629       59.567    14905.769     8395.871     3548.283        6.794        1.342      329.930       64.148        0.038      344.521       21.395      862.185
05/26/2014  21:41:00     -227.750      -25.575      -12.648       99.056       76.796       46.710     9812.053     5897.560     2181.786        3.528        0.895      229.181       45.843        0.040      344.456       21.284      862.199
05/26/2014  21:42:00     -172.937      -78.111       -3.410       93.930       92.968       38.351     8822.937     8643.062     1470.789        2.747        0.947      189.759       47.398        0.062      344.420       21.221      862.197
05/26/2014  21:43:00     -213.131       -5.168       -8.069      109.243       97.126       49.844    11934.106     9433.533     2484.381        3.468        1.193      213.194       43.425        0.041      344.408       21.203      862.187
05/26/2014  21:44:00     -387.653     -133.302      -32.266      113.624      118.713       67.242    12910.330    14092.787     4521.545       10.030        1.576      409.932       51.880        0.016      344.462       21.293      862.168
05/26/2014  21:45:00     -303.279      -48.251      -24.435      119.811       97.116       52.829    14354.716     9431.509     2790.907        6.073        1.329      307.094       34.447        0.013      344.425       21.231      862.184
05/26/2014  21:46:00     -302.316      -17.962      -25.006      113.261       82.974       51.777    12827.953     6884.731     2680.873        5.736        1.120      302.849       50.020        0.027      344.406       21.198      862.188
05/26/2014  21:47:00     -359.157      -59.240      -35.089      128.132       95.335       58.691    16417.853     9088.813     3444.640        8.134        1.448      364.010       51.319        0.020      344.424       21.229      862.198
05/26/2014  21:48:00     -375.596        4.630      -38.200      181.065      109.298       70.929    32784.400    11945.983     5030.868        9.615        2.488      375.625       64.535        0.030      344.441       21.258      862.213
05/26/2014  21:49:00     -240.875      -53.111        4.536      142.498      129.865       76.794    20305.814    16864.909     5897.297        5.196        2.153      246.661       80.895        0.108      344.395       21.178      862.217
05/26/2014  21:50:00     -199.117      -62.938        9.568      178.049      116.703       72.626    31701.435    13619.632     5274.491        4.714        2.530      208.827       67.444        0.104      344.334       21.075      862.217
05/26/2014  21:51:00     -266.165      -56.824       -9.966      178.002      110.973       62.158    31684.726    12315.006     3863.590        6.101        2.393      272.163       64.250        0.056      344.340       21.086      862.248
05/26/2014  21:52:00     -272.101      -84.056       -0.866      149.570      129.894       66.602    22371.192    16872.346     4435.890        6.238        2.184      284.789       73.433        0.066      344.319       21.051      862.243
05/26/2014  21:53:00     -328.245      -30.460      -28.077      124.094       94.281       50.091    15399.439     8888.990     2509.064        6.812        1.340      329.655       46.970        0.020      344.320       21.051      862.244
05/26/2014  21:54:00     -375.093      -50.996      -34.125       98.202       78.787       55.847     9643.603     6207.339     3118.918        8.171        0.948      378.544       53.483        0.020      344.304       21.025      862.266
05/26/2014  21:55:00     -412.622      -67.341      -20.060      146.149      117.697       61.484    21359.570    13852.563     3780.332       10.709        1.950      418.081       68.941        0.027      344.301       21.020      862.263
05/26/2014  21:56:00     -423.889      -31.554      -33.796      126.877      123.061       70.385    16097.822    15144.063     4954.081       10.900        1.810      425.062       57.947        0.019      344.339       21.084      862.257
05/26/2014  21:57:00     -393.742       -9.654      -37.246      150.775       99.919       58.055    22733.116     9983.877     3370.409        9.629        1.804      393.860       68.175        0.030      344.284       20.990      862.274
05/26/2014  21:58:00     -293.051       -9.522      -23.851      130.936      122.808       52.130    17144.336    15081.699     2717.581        6.073        1.747      293.206       49.180        0.028      344.274       20.974      862.261
05/26/2014  21:59:00     -296.958      -24.282      -21.738      115.303       97.856       61.456    13294.819     9575.770     3776.792        5.794        1.332      297.949       58.503        0.039      344.257       20.946      862.278
05/26/2014  22:00:00     -308.499      -30.312      -14.676      147.522      120.638       63.386    21762.615    14553.522     4017.799        6.831        2.017      309.985       69.819        0.051      344.268       20.963      862.292
05/26/2014  22:01:00     -330.162      -91.630      -28.685      121.973      122.134       56.532    14877.507    14916.610     3195.855        7.560        1.649      342.642       62.786        0.034      344.294       21.008      862.271
05/26/2014  22:02:00     -224.778       -3.022      -32.121       79.359       64.902       39.681     6297.841     4212.313     1574.554        3.182        0.604      224.799       32.084        0.020      344.283       20.990      862.278
05/26/2014  22:03:00     -348.604      -38.581      -32.293      116.206      106.245       59.945    13503.846    11288.050     3593.439        7.622        1.419      350.733       45.950        0.017      344.245       20.923      862.297
05/26/2014  22:04:00     -252.271     -104.972       11.177      115.406      103.752       60.410    13318.521    10764.534     3649.388        5.125        1.387      273.239       53.300        0.038      344.210       20.865      862.279
05/26/2014  22:05:00     -279.356      -52.470       -7.020      105.135      117.511       49.342    11053.357    13808.736     2434.647        5.406        1.365      284.241       46.348        0.027      344.177       20.806      862.281
05/26/2014  22:06:00     -303.625      -46.344      -20.046      109.528       95.801       52.819    11996.391     9177.829     2789.857        5.935        1.198      307.141       51.020        0.028      344.174       20.803      862.299
05/26/2014  22:07:00     -280.357      -57.530      -26.043      110.123       68.014       58.837    12127.014     4625.953     3461.833        5.140        1.011      286.199       57.487        0.040      344.191       20.832      862.283
05/26/2014  22:08:00     -240.303     -107.794       -9.773      107.103      101.095       53.133    11471.117    10220.280     2823.157        4.698        1.226      263.372       54.204        0.042      344.181       20.814      862.248
05/26/2014  22:09:00     -353.447      -86.982      -18.755      110.227      110.538       58.209    12149.903    12218.602     3388.230        8.029        1.388      363.993       46.474        0.016      344.150       20.761      862.260
05/26/2014  22:10:00     -352.524      -36.220      -34.676      146.014      132.498       53.117    21320.230    17555.690     2821.425        8.423        2.085      354.380       50.156        0.020      344.182       20.815      862.262
05/26/2014  22:11:00     -332.352      -68.855      -22.001      113.046       96.197       47.855    12779.328     9253.836     2290.101        7.000        1.216      339.409       46.228        0.019      344.152       20.764      862.256
05/26/2014  22:12:00     -331.249      -85.994      -18.871       97.935      101.679       52.325     9591.288    10338.585     2737.869        7.007        1.133      342.230       39.594        0.013      344.140       20.743      862.254
05/26/2014  22:13:00     -445.541     -124.908      -19.733      173.605      143.665       77.462    30138.843    20639.510     6000.329       13.563        2.839      462.719       82.119        0.031      344.140       20.745      862.238
05/26/2014  22:14:00     -381.690        8.626      -29.414      139.971       85.510       57.255    19591.969     7311.884     3278.105        8.840        1.509      381.787       68.471        0.032      344.115       20.703      862.268
05/26/2014  22:15:00     -385.129      -36.487      -34.676      155.760      107.034       67.436    24261.043    11456.374     4547.626        9.555        2.013      386.854       73.074        0.036      344.117       20.705      862.251
05/26/2014  22:16:00     -296.980      -90.316       -0.060      130.660      114.384       69.397    17071.952    13083.641     4815.962        6.566        1.749      310.409       72.026        0.054      344.100       20.676      862.241
05/26/2014  22:17:00     -505.482      -92.266      -23.840      155.594      136.797       76.652    24209.642    18713.404     5875.520       15.669        2.440      513.834       74.661        0.021      344.145       20.754      862.245
05/26/2014  22:18:00     -396.594      -21.761      -23.048      187.166      124.125       74.525    35031.009    15406.895     5554.032       10.713        2.800      397.191       87.931        0.049      344.095       20.668      862.267
05/26/2014  22:19:00     -387.747      -53.475      -19.452      160.966      124.447       65.155    25910.150    15487.142     4245.207        9.960        2.282      391.417       66.364        0.029      344.104       20.682      862.250
05/26/2014  22:20:00     -381.765      -93.403      -14.761      130.179      132.394       64.693    16946.580    17528.242     4185.209        9.667        1.933      393.025       59.848        0.023      344.075       20.632      862.263
05/26/2014  22:21:00     -380.916      -15.368      -31.499      145.883       94.247       64.254    21281.856     8882.475     4128.634        9.030        1.715      381.226       77.213        0.041      344.075       20.634      862.269
05/26/2014  22:22:00     -260.870      -56.407      -26.128      111.403       88.168       56.018    12410.654     7773.615     3138.047        4.762        1.166      266.899       35.826        0.018      344.084       20.648      862.258
05/26/2014  22:23:00     -321.564      -77.639      -37.747      106.945      130.917       66.456    11437.261    17139.242     4416.341        7.192        1.650      330.803       57.959        0.031      344.071       20.626      862.245
05/26/2014  22:24:00     -376.295     -152.522      -20.589      163.089      129.542       76.001    26597.900    16781.082     5776.212       10.721        2.458      406.030       62.562        0.024      344.067       20.620      862.256
05/26/2014  22:25:00     -396.591       25.508      -37.149      106.447      117.169       55.941    11330.962    13728.612     3129.347        9.375        1.409      397.410       55.134        0.019      344.101       20.679      862.265
05/26/2014  22:26:00     -309.940      -82.683      -23.785      131.779      105.859       53.721    17365.768    11206.068     2885.972        6.746        1.573      320.779       49.988        0.024      344.094       20.665      862.242
05/26/2014  22:27:00     -398.279      -31.420      -38.091      142.176      107.309       63.562    20214.089    11515.236     4040.104        9.841        1.788      399.516       53.588        0.018      344.077       20.637      862.267
05/26/2014  22:28:00     -352.010      -49.623      -26.268       99.472       98.936       54.845     9894.687     9788.358     3007.994        7.487        1.135      355.491       38.856        0.012      344.029       20.555      862.263
05/26/2014  22:29:00     -302.357     -136.382       -2.453      137.986      115.570       58.540    19040.010    13356.360     3426.931        7.292        1.791      331.693       48.180        0.021      344.010       20.523      862.254
05/26/2014  22:30:00     -416.929      -47.510      -34.362      147.245      133.587       60.587    21681.070    17845.536     3670.753       11.022        2.160      419.627       60.208        0.021      344.004       20.510      862.242
05/26/2014  22:31:00     -337.690      -85.215      -15.568      154.346      103.149       71.510    23822.538    10639.617     5113.740        8.055        1.979      348.276       71.395        0.042      344.009       20.521      862.251
05/26/2014  22:32:00     -400.145     -111.129      -43.810      111.156       83.292       57.591    12355.630     6937.629     3316.720        9.849        1.130      415.290       39.838        0.009      344.028       20.554      862.243
05/26/2014  22:33:00     -468.437      -56.958      -24.349      175.351      124.569       70.160    30747.937    15517.536     4922.475       13.722        2.559      471.887       61.829        0.017      344.007       20.517      862.258
05/26/2014  22:34:00     -356.434     -134.029       -4.918      141.641      138.330       71.114    20062.088    19135.314     5057.244        9.463        2.213      380.800       77.457        0.041      343.974       20.462      862.258
05/26/2014  22:35:00     -354.285      -65.065      -29.481      112.084      104.956       69.128    12562.820    11015.668     4778.749        7.948        1.418      360.210       70.280        0.038      343.976       20.464      862.288
05/26/2014  22:36:00     -422.311      -71.768      -28.776      161.391      118.129       72.341    26047.018    13954.438     5233.189       11.477        2.262      428.366       67.384        0.025      343.997       20.500      862.306
05/26/2014  22:37:00     -390.690      -48.508      -29.657      152.176      128.901       65.032    23157.510    16615.365     4229.171        9.993        2.200      393.690       75.949        0.037      343.997       20.499      862.310
05/26/2014  22:38:00     -397.032      -83.365      -25.963      111.988       78.214       54.194    12541.381     6117.471     2936.954        9.342        1.080      405.690       54.467        0.018      343.990       20.488      862.323
05/26/2014  22:39:00     -340.526     -101.395      -27.997      143.023      111.929       64.432    20455.663    12528.183     4151.452        8.207        1.857      355.301       61.792        0.030      344.012       20.525      862.329
05/26/2014  22:40:00     -308.610      -35.852      -27.192      126.514      122.101       58.944    16005.909    14908.569     3474.402        6.582        1.719      310.686       43.350        0.019      344.035       20.565      862.339
05/26/2014  22:41:00     -401.553      -60.532      -10.039      144.603      102.783       63.644    20910.041    10564.382     4050.505       10.026        1.776      406.090       68.137        0.028      344.014       20.529      862.354
05/26/2014  22:42:00     -256.237      -99.241      -14.187      148.257      114.361       55.676    21980.174    13078.486     3099.779        5.693        1.908      274.784       69.071        0.063      344.060       20.608      862.359
05/26/2014  22:43:00     -169.944      -44.890       -5.021      173.423      103.416       58.713    30075.607    10694.798     3447.273        3.756        2.211      175.773       72.354        0.169      343.999       20.506      862.376
05/26/2014  22:44:00     -179.818      -14.886      -12.992       81.351       62.664       41.230     6617.953     3926.812     1699.925        2.248        0.612      180.434       37.431        0.043      343.986       20.484      862.398
05/26/2014  22:45:00      -34.713      -33.234       -5.338       39.636       41.788       21.664     1571.049     1746.202      469.333        0.306        0.189       48.057        8.662        0.032      343.876       20.297      862.404
05/26/2014  22:46:00      -52.172      -47.292       12.767       45.010       54.142       32.867     2025.860     2931.365     1080.212        0.558        0.302       70.416       25.302        0.129      343.895       20.330      862.416
05/26/2014  22:47:00      -42.418      -83.837        3.131       51.574       34.745       30.967     2659.848     1207.195      958.939        0.683        0.241       93.957       29.423        0.098      343.989       20.492      862.413
05/26/2014  22:48:00      -26.593     -119.126       15.019       30.606       72.783       26.470      936.700     5297.410      700.655        1.103        0.347      122.058       19.978        0.027      344.050       20.595      862.401
05/26/2014  22:49:00     -100.696      -69.502       -0.918       87.504       37.706       26.396     7657.032     1421.722      696.759        1.237        0.489      122.353       34.425        0.079      344.026       20.552      862.412
05/26/2014  22:50:00     -101.319      -63.464        5.889       71.590       33.737       26.800     5125.186     1138.200      718.249        1.065        0.349      119.554       33.010        0.076      343.952       20.429      862.442
05/26/2014  22:51:00      -23.150      -22.608       14.547       30.672       26.851       20.697      940.747      720.957      428.364        0.167        0.105       32.358       12.323        0.145      343.911       20.355      862.456
05/26/2014  22:52:00      -30.565      -16.171        6.678       41.020       23.878       21.066     1682.620      570.156      443.788        0.197        0.135       34.579       18.770        0.295      343.903       20.343      862.453
05/26/2014  22:53:00      -12.277     -110.807       -6.933       30.596       44.624       23.876      936.124     1991.297      570.045        0.799        0.175      111.485       22.535        0.041      344.005       20.520      862.435
05/26/2014  22:54:00      -14.250      -50.493        2.573       38.332       56.503       36.423     1469.325     3192.557     1326.665        0.437        0.299       52.466       32.567        0.385      343.868       20.283      862.422
05/26/2014  22:55:00      -12.171      -32.676        5.212       39.060       33.954       23.581     1525.665     1152.841      556.042        0.224        0.162       34.869       23.390        0.450      343.808       20.179      862.415
05/26/2014  22:56:00        7.834        9.737       20.544       31.008       32.510       26.634      961.479     1056.924      709.359        0.165        0.136       12.497       21.526        2.967      343.477       19.615      862.406
05/26/2014  22:57:00      -18.494      -37.613        9.754       43.288       35.614       18.578     1873.821     1268.344      345.143        0.267        0.174       41.914       20.794        0.246      343.843       20.240      862.404
05/26/2014  22:58:00      -50.334      -62.739       12.083       49.495       37.496       21.447     2449.780     1405.927      459.959        0.546        0.216       80.435       17.229        0.046      344.015       20.534      862.425
05/26/2014  22:59:00      -76.698      -31.713        5.379       52.976       31.483       21.338     2806.417      991.192      455.329        0.558        0.213       82.996       19.018        0.053      343.941       20.408      862.434
05/26/2014  23:00:00     -122.674      -34.871       -4.973       29.583       22.877       17.504      875.155      523.361      306.399        0.900        0.085      127.534       15.694        0.015      343.888       20.318      862.422
05/26/2014  23:01:00     -185.171      -30.448       -3.621       49.113       57.356       29.498     2412.117     3289.700      870.132        2.090        0.329      187.658       25.615        0.019      343.912       20.357      862.411
05/26/2014  23:02:00     -175.102      -64.311       -0.901       75.217       50.893       28.196     5657.639     2590.057      795.013        2.192        0.452      186.538       34.565        0.034      343.968       20.451      862.399
05/26/2014  23:03:00     -165.006      -68.680        3.296       91.907       63.414       38.749     8446.913     4021.362     1501.475        2.296        0.698      178.728       43.751        0.060      344.032       20.560      862.395
05/26/2014  23:04:00     -140.013     -119.782        7.719       94.790       72.977       44.909     8985.093     5325.628     2016.847        2.517        0.816      184.259       51.392        0.078      344.012       20.526      862.380
05/26/2014  23:05:00     -127.897      -94.400        0.187       64.830       87.697       36.307     4202.902     7690.826     1318.209        1.924        0.661      158.962       26.767        0.028      344.049       20.592      862.366
05/26/2014  23:06:00     -146.528      -89.782        4.061       71.135       46.363       30.222     5060.253     2149.572      913.340        1.883        0.406      171.846       20.671        0.014      343.923       20.376      862.378
05/26/2014  23:07:00     -159.454     -134.196        0.204       75.334       51.739       36.129     5675.170     2676.922     1305.308        2.654        0.483      208.409       31.767        0.023      343.983       20.475      862.386
05/26/2014  23:08:00     -151.762     -106.128       -1.016       92.068       78.772       42.052     8476.581     6205.070     1768.396        2.537        0.823      185.189       40.228        0.047      344.025       20.547      862.380
05/26/2014  23:09:00     -130.207     -125.018        1.015       94.944       50.165       35.332     9014.299     2516.556     1248.338        2.268        0.639      180.509       37.265        0.043      344.079       20.641      862.366
05/26/2014  23:10:00     -159.496      -93.693       -2.434       50.874       47.113       29.324     2588.195     2219.650      859.880        1.994        0.283      184.979       26.538        0.021      344.017       20.537      862.365
05/26/2014  23:11:00     -165.711      -58.787       -0.929       72.380       52.840       28.187     5238.809     2792.015      794.524        1.987        0.441      175.829       36.496        0.043      343.835       20.224      862.361
05/26/2014  23:12:00     -144.000      -45.371        0.133       66.677       49.438       31.813     4445.795     2444.115     1012.094        1.535        0.395      150.978       33.176        0.048      343.760       20.097      862.356
05/26/2014  23:13:00     -135.534      -70.767        7.190       63.773       62.109       27.893     4066.994     3857.581      778.011        1.606        0.435      152.897       30.006        0.039      343.801       20.169      862.341
05/26/2014  23:14:00     -197.417      -96.409        5.639      134.405       76.950       58.521    18064.589     5921.348     3424.753        3.785        1.371      219.701       68.476        0.097      343.902       20.338      862.320
05/26/2014  23:15:00     -207.643     -116.449      -17.309       92.192       54.536       44.696     8499.367     2974.157     1997.728        3.522        0.674      238.067       47.755        0.040      343.871       20.284      862.308
05/26/2014  23:16:00     -187.411     -110.770        0.532       90.612       68.015       36.618     8210.598     4626.086     1340.845        3.078        0.709      217.699       35.529        0.027      343.851       20.252      862.304
05/26/2014  23:17:00     -132.491      -38.376       11.183       78.270       78.589       41.589     6126.169     6176.289     1729.622        1.659        0.702      137.937       39.729        0.083      343.811       20.185      862.286
05/26/2014  23:18:00     -175.180      -73.468       -2.695       84.275       73.734       38.291     7102.342     5436.653     1466.163        2.505        0.700      189.962       41.375        0.047      343.733       20.049      862.281
05/26/2014  23:19:00     -223.394     -118.084       -9.864      106.901       70.449       43.940    11427.735     4963.094     1930.693        4.113        0.916      252.684       43.236        0.029      343.807       20.174      862.289
05/26/2014  23:20:00     -164.049     -131.586       -4.753      120.676      104.279       62.557    14562.737    10874.109     3913.326        3.679        1.468      210.302       70.338        0.112      343.904       20.341      862.293
05/26/2014  23:21:00     -227.975     -117.343       -7.939      127.250      102.414       45.314    16192.626    10488.596     2053.317        4.726        1.437      256.402       47.251        0.034      344.033       20.562      862.283
05/26/2014  23:22:00     -180.176     -102.713        2.815      100.444       86.761       46.028    10088.908     7527.434     2118.555        3.137        0.987      207.397       50.499        0.059      343.999       20.503      862.287
05/26/2014  23:23:00     -164.390     -101.471      -10.262       71.437       65.980       33.335     5103.303     4353.312     1111.238        2.399        0.528      193.185       32.377        0.028      343.978       20.467      862.283
05/26/2014  23:24:00     -176.717      -39.943        2.850       75.045       61.494       39.517     5631.711     3781.550     1561.600        2.190        0.549      181.175       42.232        0.054      343.880       20.300      862.286
05/26/2014  23:25:00     -142.607      -45.428        0.112      110.642       74.467       42.489    12241.674     5545.289     1805.330        2.099        0.980      149.668       50.736        0.115      343.923       20.374      862.274
05/26/2014  23:26:00     -132.777        1.751        5.332       73.819       87.506       43.280     5449.305     7657.227     1873.182        1.632        0.749      132.788       39.200        0.087      343.908       20.350      862.258
05/26/2014  23:27:00     -165.425      -28.628        4.957       88.136       57.810       36.711     7768.006     3341.948     1347.662        2.033        0.623      167.884       42.893        0.065      343.823       20.205      862.252
05/26/2014  23:28:00     -246.605      -61.451       -3.433       87.254       76.388       42.763     7613.297     5835.152     1828.709        3.994        0.764      254.147       37.775        0.022      343.836       20.226      862.248
05/26/2014  23:29:00     -226.340      -48.951       -1.764       89.349       73.738       49.717     7983.161     5437.234     2471.776        3.476        0.795      231.572       45.752        0.039      343.786       20.139      862.254
05/26/2014  23:30:00     -238.469     -113.651       -1.696      128.573      105.705       45.602    16530.910    11173.517     2079.569        4.978        1.489      264.166       52.942        0.040      343.914       20.358      862.267
05/26/2014  23:31:00     -183.575      -58.295       -6.260       56.503       46.617       35.860     3192.545     2173.180     1285.957        2.189        0.333      192.609       29.383        0.023      343.942       20.407      862.254
05/26/2014  23:32:00     -237.751      -75.020       -5.553      105.182       68.817       37.373    11063.236     4735.761     1396.746        3.969        0.860      249.306       49.233        0.039      343.822       20.202      862.234
05/26/2014  23:33:00     -249.655      -79.050       -2.187      108.053       92.851       48.346    11675.456     8621.325     2337.314        4.560        1.132      261.872       50.093        0.037      343.843       20.237      862.222
05/26/2014  23:34:00     -229.669     -170.473       -0.572      115.468      104.228       59.736    13332.848    10863.498     3568.373        5.478        1.388      286.023       63.342        0.049      343.971       20.456      862.235
05/26/2014  23:35:00     -208.899     -125.413       -4.336      126.126       94.431       50.179    15907.887     8917.294     2517.922        4.336        1.367      243.654       59.870        0.060      344.001       20.509      862.227
05/26/2014  23:36:00     -139.728      -48.466        0.080       91.577       44.784       30.115     8386.292     2005.575      906.894        1.658        0.565      147.894       37.848        0.065      343.982       20.477      862.220
05/26/2014  23:37:00     -120.145     -104.496       -2.664       96.488       86.104       43.060     9309.862     7413.864     1854.121        2.197        0.929      159.231       50.663        0.101      343.988       20.486      862.210
05/26/2014  23:38:00     -146.064      -72.169       -1.566       92.847       69.392       40.409     8620.474     4815.289     1632.893        2.080        0.753      162.921       41.565        0.065      343.967       20.449      862.205
05/26/2014  23:39:00     -179.312      -37.275      -18.798       38.458       28.997       19.097     1479.003      840.822      364.690        1.829        0.134      183.146       14.674        0.006      343.930       20.389      862.200
05/26/2014  23:40:00     -144.126      -11.303      -13.313       70.931       49.327       32.473     5031.216     2433.107     1054.486        1.480        0.426      144.568       32.883        0.052      343.694       19.985      862.212
05/26/2014  23:41:00     -277.802      -24.939      -20.245       94.871       62.513       42.004     9000.517     3907.926     1764.331        4.644        0.734      278.919       50.681        0.033      343.679       19.957      862.214
05/26/2014  23:42:00     -300.011      -56.000       -6.543      106.432       85.481       53.654    11327.778     7307.033     2878.772        5.735        1.076      305.193       50.528        0.027      343.704       19.999      862.207
05/26/2014  23:43:00     -247.354      -77.620      -12.536      135.768       87.553       57.972    18433.043     7665.569     3360.734        4.841        1.473      259.247       74.605        0.083      343.644       19.897      862.217
05/26/2014  23:44:00     -233.546     -102.874       -4.450       82.336       81.213       38.725     6779.168     6595.574     1499.652        4.001        0.744      255.199       32.469        0.016      343.882       20.302      862.227
05/26/2014  23:45:00     -207.552      -71.117      -13.525       66.539       63.225       33.023     4427.486     3997.406     1090.486        2.891        0.476      219.397       33.041        0.023      343.846       20.243      862.223
05/26/2014  23:46:00     -190.697      -50.434       -8.798       78.045       64.285       38.672     6090.959     4132.590     1495.513        2.535        0.586      197.254       36.124        0.034      343.622       19.860      862.226
05/26/2014  23:47:00     -299.846      -98.283       -3.025       90.006       74.150       36.697     8101.065     5498.257     1346.651        5.726        0.747      315.542       34.753        0.012      343.728       20.040      862.230
05/26/2014  23:48:00     -268.644      -92.561        4.242      154.847      111.089       58.456    23977.633    12340.742     3417.140        6.024        1.987      284.143       70.426        0.061      343.777       20.126      862.209
05/26/2014  23:49:00     -416.268      -99.044      -36.711      130.402      111.114       66.716    17004.635    12346.402     4450.992       10.911        1.690      427.888       59.876        0.020      343.932       20.388      862.201
05/26/2014  23:50:00     -291.084     -121.345      -12.504      121.610       95.085       57.167    14789.037     9041.186     3268.098        6.335        1.355      315.364       48.817        0.024      343.921       20.369      862.235
05/26/2014  23:51:00     -229.458      -92.629        5.227       92.473       75.256       47.502     8551.347     5663.513     2256.455        3.886        0.824      247.450       41.104        0.028      343.905       20.341      862.248
05/26/2014  23:52:00     -198.588      -30.652       -9.808       78.682       73.576       42.093     6190.833     5413.373     1771.839        2.692        0.669      200.940       40.674        0.041      344.173       20.803      862.269
05/26/2014  23:53:00      -94.607      -28.366        2.607       70.799       55.229       29.015     5012.567     3050.271      841.883        0.933        0.445       98.768       29.940        0.092      344.007       20.520      862.291
05/26/2014  23:54:00     -131.241      -44.244      -11.526       68.790       57.000       26.586     4732.049     3249.037      706.807        1.400        0.434      138.498       18.308        0.017      343.957       20.435      862.302
05/26/2014  23:55:00     -191.400        0.243      -11.867       61.897       54.730       29.592     3831.214     2995.420      875.685        2.224        0.385      191.400       31.837        0.028      343.868       20.281      862.285
05/26/2014  23:56:00     -248.535      -66.241      -22.228       89.339       83.028       46.289     7981.440     6893.693     2142.682        4.183        0.851      257.211       42.851        0.028      343.748       20.074      862.264
05/26/2014  23:57:00     -306.553      -77.875      -21.244       76.832       79.617       44.853     5903.121     6338.851     2011.820        5.737        0.713      316.290       38.996        0.015      343.707       20.005      862.269
05/26/2014  23:58:00     -261.144      -79.526      -18.450      101.398       81.767       48.437    10281.507     6685.804     2346.145        4.708        0.966      272.984       45.723        0.028      343.650       19.908      862.283
05/26/2014  23:59:00     -295.631       13.142      -17.696       98.225       72.162       48.419     9648.156     5207.360     2344.403        5.254        0.860      295.923       44.968        0.023      343.731       20.045      862.293
